[[{"header":{"parameterUnit":"m.s-1","parameterCategory":1,"la1":30.6,"la2":29.2853,"lo1":-89.7004,"lo2":-87.6739,"dy":0.0162,"dx":0.0183,"nx":112,"ny":82,"refTime":"2023-08-22T06:00:00:Z","depth":0,"parameterNumber":2,"parameterNumberName":"U-component_of_WINDS"},"data":[0.0,0.0,0.0,0.0,0.0,0.0,0.0,0.0,0.0,0.0,0.0,0.0,0.0,0.0,0.0,0.0,0.0,0.0,0.0,0.0,0.0,0.0,0.0,0.0,0.0,0.0,0.0,0.0,0.0,0.0,0.0,0.0,0.0,0.0,0.0,0.0,0.0,0.0,0.0,0.0,0.0,0.0,0.0,0.0,0.0,0.0,0.0,0.0,0.0,0.0,0.0,0.0,0.0,0.0,0.0,0.0,0.0,0.0,0.0,0.0,0.0,0.0,0.0,0.0,0.0,0.0,0.0,0.0,0.0,0.0,0.0,0.0,0.0,0.0,0.0,0.0,0.0,0.0,0.0,0.0,0.0,0.0,0.0,0.0,0.0,0.0,0.0,0.0,0.0,0.0,0.0,-4.2552,-4.2008,-4.1604,-4.1604,-4.1604,-4.1938,-4.27,0.0,0.0,0.0,0.0,0.0,0.0,0.0,0.0,0.0,0.0,0.0,0.0,0.0,0.0,0.0,0.0,0.0,0.0,0.0,0.0,0.0,0.0,0.0,0.0,0.0,0.0,0.0,0.0,0.0,0.0,0.0,0.0,0.0,0.0,0.0,0.0,0.0,0.0,0.0,0.0,0.0,0.0,0.0,0.0,0.0,0.0,0.0,0.0,0.0,0.0,0.0,0.0,0.0,0.0,0.0,0.0,0.0,0.0,0.0,0.0,0.0,0.0,0.0,0.0,0.0,0.0,0.0,0.0,0.0,0.0,0.0,0.0,0.0,0.0,0.0,0.0,0.0,0.0,0.0,0.0,0.0,0.0,0.0,0.0,0.0,0.0,0.0,0.0,0.0,0.0,0.0,0.0,0.0,0.0,0.0,0.0,0.0,0.0,0.0,0.0,0.0,0.0,0.0,0.0,-4.1353,-4.1718,-4.1674,-4.1604,-4.1604,-4.1604,-4.1893,-4.259,0.0,0.0,0.0,0.0,0.0,0.0,0.0,0.0,0.0,0.0,0.0,0.0,0.0,0.0,0.0,0.0,0.0,0.0,0.0,0.0,0.0,0.0,0.0,0.0,0.0,0.0,0.0,0.0,0.0,0.0,0.0,0.0,0.0,0.0,0.0,0.0,0.0,0.0,0.0,0.0,0.0,0.0,0.0,0.0,0.0,0.0,0.0,0.0,0.0,0.0,0.0,0.0,0.0,0.0,0.0,0.0,0.0,0.0,0.0,0.0,0.0,0.0,0.0,0.0,0.0,0.0,0.0,0.0,0.0,0.0,0.0,0.0,0.0,0.0,0.0,0.0,0.0,0.0,0.0,0.0,0.0,0.0,0.0,0.0,0.0,0.0,0.0,0.0,0.0,0.0,0.0,0.0,0.0,0.0,0.0,0.0,0.0,0.0,0.0,0.0,0.0,0.0,0.0,-4.1226,-4.1363,-4.1471,-4.156,-4.1604,-4.1604,-4.1604,-4.1718,-4.2023,-4.2058,0.0,0.0,0.0,0.0,0.0,0.0,0.0,0.0,0.0,0.0,0.0,0.0,0.0,0.0,0.0,0.0,0.0,0.0,0.0,0.0,0.0,0.0,0.0,0.0,0.0,0.0,0.0,0.0,0.0,0.0,0.0,0.0,0.0,0.0,0.0,0.0,0.0,0.0,0.0,0.0,0.0,0.0,0.0,0.0,0.0,0.0,0.0,0.0,0.0,0.0,0.0,0.0,0.0,0.0,0.0,0.0,0.0,0.0,0.0,0.0,0.0,0.0,0.0,0.0,0.0,0.0,0.0,0.0,0.0,0.0,0.0,0.0,0.0,0.0,0.0,0.0,0.0,0.0,0.0,0.0,0.0,0.0,0.0,0.0,0.0,0.0,0.0,0.0,0.0,0.0,0.0,0.0,0.0,0.0,0.0,0.0,0.0,0.0,0.0,0.0,0.0,0.0,-4.1117,-4.1163,-4.1272,-4.1363,-4.1408,-4.1453,-4.1453,-4.1408,-4.13,-4.1363,0.0,0.0,0.0,0.0,0.0,0.0,0.0,0.0,0.0,0.0,0.0,0.0,0.0,0.0,0.0,0.0,0.0,0.0,0.0,0.0,0.0,0.0,0.0,0.0,0.0,0.0,0.0,0.0,0.0,0.0,0.0,0.0,0.0,0.0,0.0,0.0,0.0,0.0,0.0,0.0,0.0,0.0,0.0,0.0,0.0,0.0,0.0,0.0,0.0,0.0,0.0,0.0,0.0,0.0,0.0,0.0,0.0,0.0,0.0,0.0,0.0,0.0,0.0,0.0,0.0,0.0,0.0,0.0,0.0,0.0,0.0,0.0,0.0,0.0,0.0,0.0,0.0,0.0,0.0,0.0,0.0,0.0,0.0,0.0,0.0,0.0,0.0,0.0,0.0,0.0,0.0,0.0,0.0,0.0,0.0,0.0,0.0,0.0,0.0,0.0,0.0,0.0,-4.0628,-4.0449,-4.0802,-4.0849,-4.0913,-4.1024,-4.1024,-4.0866,-4.0497,-4.1071,0.0,0.0,0.0,0.0,0.0,0.0,0.0,0.0,0.0,0.0,0.0,0.0,0.0,0.0,0.0,0.0,0.0,0.0,0.0,0.0,0.0,0.0,0.0,0.0,0.0,0.0,0.0,0.0,0.0,0.0,0.0,0.0,0.0,0.0,0.0,0.0,0.0,0.0,0.0,0.0,0.0,0.0,0.0,0.0,0.0,0.0,0.0,0.0,0.0,0.0,0.0,0.0,0.0,0.0,0.0,0.0,0.0,0.0,0.0,0.0,0.0,0.0,0.0,0.0,0.0,0.0,0.0,0.0,0.0,0.0,0.0,0.0,0.0,0.0,0.0,0.0,0.0,0.0,0.0,0.0,0.0,0.0,0.0,0.0,0.0,0.0,0.0,0.0,0.0,0.0,0.0,0.0,0.0,0.0,0.0,0.0,0.0,0.0,0.0,0.0,0.0,0.0,-4.0103,-4.0136,0.0,-3.9969,-4.0002,-4.0069,-4.048,-4.0642,-4.04,0.0,0.0,0.0,0.0,0.0,0.0,0.0,0.0,0.0,0.0,0.0,0.0,0.0,0.0,0.0,0.0,0.0,0.0,0.0,0.0,0.0,0.0,0.0,0.0,0.0,0.0,0.0,0.0,0.0,0.0,0.0,0.0,0.0,0.0,0.0,0.0,0.0,0.0,0.0,0.0,0.0,0.0,0.0,0.0,0.0,0.0,0.0,0.0,0.0,0.0,0.0,0.0,0.0,0.0,0.0,0.0,0.0,0.0,0.0,0.0,0.0,0.0,0.0,0.0,0.0,0.0,0.0,0.0,0.0,0.0,0.0,0.0,0.0,0.0,0.0,0.0,0.0,0.0,0.0,0.0,0.0,0.0,0.0,0.0,0.0,0.0,0.0,0.0,0.0,0.0,0.0,0.0,0.0,0.0,0.0,0.0,0.0,0.0,0.0,0.0,0.0,0.0,-3.9259,-3.942,-3.9508,0.0,-3.9262,-3.9299,-3.9318,-3.98,-3.9952,-3.9817,0.0,0.0,0.0,0.0,0.0,0.0,0.0,0.0,0.0,0.0,0.0,0.0,0.0,0.0,0.0,0.0,0.0,0.0,0.0,0.0,0.0,0.0,0.0,0.0,0.0,0.0,0.0,0.0,0.0,0.0,0.0,0.0,0.0,0.0,0.0,0.0,0.0,0.0,0.0,0.0,0.0,0.0,0.0,0.0,0.0,0.0,0.0,0.0,0.0,0.0,0.0,0.0,0.0,0.0,0.0,0.0,0.0,0.0,0.0,0.0,0.0,0.0,0.0,0.0,0.0,0.0,0.0,0.0,0.0,0.0,0.0,0.0,0.0,0.0,0.0,0.0,0.0,0.0,0.0,0.0,0.0,0.0,0.0,0.0,0.0,0.0,0.0,0.0,0.0,0.0,0.0,0.0,0.0,0.0,0.0,0.0,0.0,0.0,0.0,0.0,0.0,0.0,-3.9044,-3.8701,-3.8423,-3.8733,-3.8805,-3.8827,-3.887,-3.8908,-3.8761,0.0,0.0,0.0,0.0,0.0,0.0,0.0,0.0,0.0,0.0,0.0,0.0,0.0,0.0,0.0,0.0,0.0,0.0,0.0,0.0,0.0,0.0,0.0,0.0,0.0,0.0,0.0,0.0,0.0,0.0,0.0,0.0,0.0,0.0,0.0,0.0,0.0,0.0,0.0,0.0,0.0,0.0,0.0,0.0,0.0,0.0,0.0,0.0,0.0,0.0,0.0,0.0,0.0,0.0,0.0,0.0,0.0,0.0,0.0,0.0,0.0,0.0,0.0,0.0,0.0,0.0,0.0,0.0,0.0,0.0,0.0,0.0,0.0,0.0,0.0,0.0,0.0,0.0,0.0,0.0,0.0,0.0,0.0,0.0,0.0,0.0,0.0,0.0,0.0,0.0,0.0,0.0,0.0,0.0,0.0,0.0,0.0,0.0,0.0,0.0,0.0,0.0,0.0,-3.8639,-3.8861,-3.8779,-3.7966,-3.786,-3.7918,-3.7886,-3.8351,-3.8557,-3.839,0.0,0.0,0.0,0.0,0.0,0.0,0.0,0.0,0.0,0.0,0.0,0.0,0.0,0.0,0.0,0.0,0.0,0.0,0.0,0.0,0.0,0.0,0.0,0.0,0.0,0.0,0.0,0.0,0.0,0.0,0.0,0.0,0.0,0.0,0.0,0.0,0.0,0.0,0.0,0.0,0.0,0.0,0.0,0.0,0.0,0.0,0.0,0.0,0.0,0.0,0.0,0.0,0.0,0.0,0.0,0.0,0.0,0.0,0.0,0.0,0.0,0.0,0.0,0.0,0.0,0.0,0.0,0.0,0.0,0.0,0.0,0.0,0.0,0.0,0.0,0.0,0.0,0.0,0.0,0.0,0.0,0.0,0.0,0.0,0.0,0.0,0.0,0.0,0.0,0.0,0.0,0.0,0.0,0.0,0.0,0.0,0.0,0.0,0.0,0.0,0.0,0.0,-3.8868,-3.9366,-3.9436,-3.8394,-3.8511,-3.8571,-3.8347,-3.8658,-3.875,-3.8418,0.0,0.0,0.0,0.0,0.0,0.0,0.0,0.0,0.0,0.0,0.0,0.0,0.0,0.0,0.0,0.0,0.0,0.0,0.0,0.0,0.0,0.0,0.0,0.0,0.0,0.0,0.0,0.0,0.0,0.0,0.0,0.0,0.0,0.0,0.0,0.0,0.0,0.0,0.0,0.0,0.0,0.0,0.0,0.0,0.0,0.0,0.0,0.0,0.0,0.0,0.0,0.0,0.0,0.0,0.0,0.0,0.0,0.0,0.0,0.0,0.0,0.0,0.0,0.0,0.0,0.0,0.0,0.0,0.0,0.0,0.0,0.0,0.0,0.0,0.0,0.0,0.0,0.0,0.0,0.0,0.0,0.0,0.0,0.0,0.0,0.0,0.0,0.0,0.0,0.0,0.0,0.0,0.0,0.0,0.0,0.0,0.0,0.0,0.0,0.0,0.0,0.0,-3.9581,-4.0151,-4.0228,-3.9565,-4.0027,-4.0148,-3.9565,-3.9439,-3.9155,-3.8555,0.0,0.0,0.0,0.0,0.0,0.0,0.0,0.0,0.0,0.0,0.0,0.0,0.0,0.0,0.0,0.0,0.0,0.0,0.0,0.0,0.0,0.0,0.0,0.0,0.0,0.0,0.0,0.0,0.0,0.0,0.0,0.0,0.0,0.0,0.0,0.0,0.0,0.0,0.0,0.0,0.0,0.0,0.0,0.0,0.0,0.0,0.0,0.0,0.0,0.0,0.0,0.0,0.0,0.0,0.0,0.0,0.0,0.0,0.0,0.0,-4.1041,0.0,0.0,0.0,0.0,0.0,0.0,0.0,0.0,0.0,0.0,0.0,0.0,0.0,0.0,0.0,0.0,0.0,0.0,0.0,0.0,0.0,0.0,0.0,0.0,0.0,0.0,0.0,0.0,0.0,0.0,0.0,0.0,0.0,0.0,0.0,0.0,0.0,0.0,0.0,0.0,0.0,-4.0244,-4.0432,-4.0325,-3.9566,-3.9628,-3.969,-3.9503,-3.9029,-3.8665,-3.8523,0.0,0.0,0.0,0.0,0.0,0.0,0.0,0.0,0.0,0.0,0.0,0.0,0.0,0.0,0.0,0.0,0.0,0.0,0.0,0.0,0.0,0.0,0.0,0.0,0.0,0.0,0.0,0.0,0.0,0.0,0.0,0.0,0.0,0.0,0.0,0.0,0.0,0.0,0.0,0.0,0.0,0.0,0.0,0.0,0.0,0.0,0.0,0.0,0.0,0.0,0.0,0.0,0.0,0.0,0.0,0.0,0.0,0.0,0.0,0.0,0.0,-4.1088,0.0,0.0,0.0,0.0,0.0,0.0,0.0,0.0,0.0,0.0,0.0,0.0,0.0,0.0,0.0,0.0,0.0,0.0,0.0,0.0,0.0,0.0,0.0,0.0,0.0,0.0,0.0,0.0,0.0,0.0,0.0,0.0,0.0,0.0,0.0,0.0,0.0,0.0,0.0,0.0,-4.0991,-4.1325,-4.1183,-4.0167,-4.0307,-4.0226,-3.9518,-3.9187,-3.8855,-3.8539,-3.8175,0.0,0.0,0.0,0.0,0.0,0.0,0.0,0.0,0.0,0.0,0.0,0.0,0.0,0.0,0.0,0.0,0.0,0.0,0.0,0.0,0.0,0.0,0.0,0.0,0.0,0.0,0.0,0.0,0.0,0.0,0.0,0.0,0.0,0.0,0.0,0.0,0.0,0.0,0.0,0.0,0.0,0.0,0.0,0.0,0.0,0.0,0.0,0.0,0.0,0.0,0.0,0.0,0.0,0.0,-4.294,-4.2198,-4.2032,-4.1578,-4.0935,-4.1237,-4.1209,-4.0888,0.0,0.0,0.0,0.0,0.0,0.0,0.0,0.0,0.0,0.0,0.0,0.0,0.0,0.0,0.0,0.0,0.0,0.0,0.0,0.0,0.0,0.0,0.0,0.0,0.0,-4.0946,-4.0985,0.0,0.0,0.0,0.0,0.0,0.0,0.0,0.0,0.0,0.0,0.0,0.0,-4.1225,-4.1725,-4.1628,-4.0531,-4.0862,-4.0729,-3.9613,-3.9392,-3.9092,-3.8539,-3.8397,-3.8081,0.0,0.0,0.0,0.0,0.0,0.0,0.0,0.0,0.0,0.0,0.0,0.0,0.0,0.0,0.0,0.0,0.0,0.0,0.0,0.0,0.0,0.0,0.0,0.0,0.0,0.0,0.0,0.0,0.0,0.0,0.0,0.0,-4.4751,-4.4643,0.0,0.0,0.0,0.0,0.0,0.0,0.0,0.0,0.0,0.0,0.0,0.0,0.0,0.0,-4.3804,-4.3771,-4.3719,-4.3582,-4.2829,-4.2364,-4.2157,-4.1418,-4.1012,-4.0871,-4.0965,0.0,-4.0888,-4.0888,0.0,0.0,0.0,0.0,0.0,0.0,0.0,0.0,0.0,0.0,0.0,0.0,0.0,0.0,0.0,0.0,0.0,0.0,0.0,0.0,0.0,0.0,-3.9692,-4.0697,-4.0909,-4.0896,0.0,-3.9969,-3.899,-3.8632,0.0,0.0,0.0,0.0,0.0,0.0,0.0,0.0,-3.9771,-3.9834,-3.9865,-3.9661,-3.9708,-3.9723,-3.9503,-3.8981,-3.8602,-3.8523,-3.7938,-3.7575,-3.748,-3.748,0.0,0.0,0.0,0.0,0.0,0.0,0.0,0.0,0.0,0.0,0.0,0.0,0.0,0.0,0.0,0.0,0.0,0.0,0.0,0.0,0.0,0.0,0.0,0.0,0.0,0.0,0.0,0.0,0.0,-4.4584,-4.421,-4.4602,-4.4298,-4.4036,0.0,0.0,0.0,0.0,0.0,0.0,0.0,0.0,0.0,-4.3961,-4.3929,-4.3897,-4.3897,-4.3883,-4.3851,-4.3767,-4.3159,-4.2639,-4.2244,-4.1622,-4.118,-4.0888,-4.0888,-4.0888,-4.0888,-4.0888,-4.0888,-4.0888,0.0,0.0,0.0,0.0,0.0,-4.094,-4.1306,0.0,0.0,0.0,0.0,0.0,0.0,0.0,0.0,0.0,0.0,0.0,0.0,0.0,0.0,-4.0286,-4.0187,-3.9868,-3.9525,-3.8995,-3.8629,0.0,-3.8779,-3.878,-3.878,0.0,0.0,0.0,0.0,0.0,-3.9503,-3.9503,-3.936,-3.8981,-3.895,-3.8792,-3.8397,-3.8096,-3.7938,-3.7938,-3.7638,-3.748,-3.748,-3.748,-3.748,0.0,0.0,0.0,0.0,0.0,0.0,0.0,0.0,0.0,0.0,0.0,0.0,0.0,0.0,0.0,0.0,0.0,0.0,0.0,0.0,0.0,0.0,0.0,0.0,0.0,0.0,0.0,0.0,-4.4484,-4.4079,-4.4568,-4.4327,-4.4079,0.0,0.0,0.0,0.0,0.0,0.0,-4.4005,-4.4005,-4.4005,-4.4005,-4.3942,-4.3961,-4.4005,-4.3961,-4.3929,-4.3897,-4.3355,-4.2847,-4.2346,-4.1778,-4.1346,-4.0935,-4.0935,-4.0888,-4.0888,-4.0888,-4.0888,-4.0888,-4.0888,-4.0888,-4.0888,-4.0888,-4.0888,-4.0957,-4.1509,-4.1454,-4.1087,-4.0917,0.0,-4.0277,-3.9101,0.0,0.0,0.0,0.0,-3.8974,-3.9969,0.0,-3.9629,-3.9749,-3.9506,-3.9135,-3.8778,-3.8613,-3.8684,0.0,-3.8849,-3.8518,-3.8518,0.0,0.0,0.0,0.0,-3.8981,-3.8981,-3.8981,-3.8792,-3.8302,-3.8254,-3.8033,-3.7512,-3.748,-3.748,-3.748,-3.748,-3.748,-3.748,-3.748,-3.748,-3.748,0.0,0.0,0.0,0.0,0.0,0.0,0.0,0.0,0.0,0.0,0.0,0.0,0.0,0.0,0.0,0.0,0.0,0.0,0.0,0.0,0.0,0.0,0.0,0.0,0.0,0.0,0.0,0.0,0.0,-4.443,-4.4121,0.0,0.0,0.0,0.0,-4.4005,-4.4005,-4.4005,-4.4005,-4.4005,-4.4005,-4.4005,-4.4005,-4.4005,-4.4005,-4.4005,-4.3942,-4.3897,-4.3032,-4.2582,-4.2444,-4.1569,-4.1093,-4.1093,-4.0935,-4.0888,-4.0888,-4.0888,-4.0888,-4.0888,-4.0888,-4.0888,-4.0888,-4.0888,-4.0888,-4.0888,-4.0922,-4.094,-4.0827,-4.0221,-3.9312,-3.8343,-3.7743,-3.7583,0.0,0.0,-3.7583,-3.7743,-3.8294,-3.839,-3.8518,-3.9082,-3.9206,-3.9348,-3.98,-3.9489,-3.9135,0.0,-3.9206,-3.9152,-3.9152,0.0,-3.8148,-3.7689,-3.7619,-3.7575,-3.7575,-3.7575,-3.7575,-3.7528,-3.7528,-3.7512,-3.748,-3.748,-3.748,-3.748,-3.748,-3.748,-3.748,-3.748,-3.748,-3.748,-3.748,0.0,0.0,0.0,0.0,0.0,0.0,0.0,0.0,0.0,0.0,0.0,0.0,0.0,0.0,0.0,0.0,0.0,0.0,0.0,0.0,0.0,0.0,0.0,0.0,0.0,0.0,0.0,0.0,-4.4346,-4.4079,0.0,0.0,-4.3961,-4.3974,-4.4005,-4.4005,-4.4005,-4.4005,-4.4005,-4.4005,-4.4005,-4.4005,-4.4005,-4.4005,-4.4005,-4.3974,-4.3942,-4.3123,-4.2639,-4.2483,-4.164,-4.1215,-4.1093,-4.1047,-4.1047,-4.1047,-4.0935,-4.0888,-4.0888,-4.0888,-4.0888,-4.0888,-4.0888,-4.0888,-4.0888,-4.0888,-4.0662,-4.0286,-4.0053,-3.9732,-3.9368,-3.9156,-3.9385,-3.9558,-3.8827,-3.8865,-3.9156,-3.9351,-3.9156,-3.892,-3.9152,-3.892,-3.8574,-3.8423,-3.823,-3.823,-3.8574,-3.8629,-3.8629,-3.8629,-3.8157,-3.7727,-3.7539,-3.748,-3.748,-3.748,-3.748,-3.748,-3.748,-3.748,-3.748,-3.748,-3.748,-3.748,-3.748,-3.748,-3.748,-3.748,-3.748,-3.748,-3.748,-3.748,-3.7464,0.0,0.0,0.0,0.0,0.0,0.0,0.0,0.0,0.0,0.0,0.0,0.0,0.0,0.0,0.0,0.0,0.0,0.0,0.0,0.0,0.0,0.0,0.0,0.0,0.0,0.0,-4.4402,-4.426,-4.4079,-4.3961,-4.3974,-4.3974,-4.4005,-4.4005,-4.4005,-4.4005,-4.4005,-4.4005,-4.4005,-4.4005,-4.4005,-4.4005,-4.4005,-4.4005,-4.3923,-4.3777,-4.3105,-4.2657,-4.2382,-4.1683,-4.129,-4.1123,-4.1123,-4.114,-4.1093,-4.1012,-4.0995,-4.0995,-4.0918,-4.0888,-4.0888,-4.0888,-4.0888,-4.0888,-4.0888,-4.0483,-4.0003,-4.0003,-3.9902,-3.9749,-3.9749,-4.002,-4.0187,-3.9418,-3.9332,-3.942,-3.942,-3.9011,-3.8606,-3.8606,-3.8327,-3.7985,-3.7786,-3.7786,-3.7943,-3.8518,-3.8463,-3.8278,-3.8278,-3.7985,-3.7685,-3.7539,-3.748,-3.748,-3.748,-3.748,-3.748,-3.748,-3.748,-3.748,-3.748,-3.748,-3.748,-3.748,-3.748,-3.748,-3.748,-3.748,-3.748,-3.748,-3.748,-3.748,-3.748,0.0,0.0,0.0,0.0,0.0,0.0,0.0,0.0,0.0,0.0,0.0,0.0,0.0,0.0,0.0,0.0,0.0,0.0,0.0,0.0,0.0,0.0,0.0,-4.5255,-4.4881,-4.4565,-4.4221,-4.4109,-4.3974,-4.3897,-4.3974,-4.3986,-4.4005,-4.4005,-4.4005,-4.4005,-4.4005,-4.4005,-4.4005,-4.4005,-4.4005,-4.4005,-4.4005,-4.3809,-4.3406,-4.2996,-4.258,-4.2175,-4.1657,-4.1318,-4.1209,-4.1209,-4.1198,-4.1093,-4.118,-4.1209,-4.1163,-4.0965,-4.0935,-4.0935,-4.0888,-4.0888,-4.0888,-4.0888,-4.05,-4.0003,-4.0003,-3.9645,-3.9206,-3.9206,-3.9206,-3.9206,-3.9206,-3.8756,-3.8278,-3.8334,-3.7943,-3.748,-3.7539,-3.7539,-3.7626,-3.8181,-3.8294,-3.8463,-3.9028,-3.8684,-3.8278,-3.8294,-3.8294,-3.8084,-3.7583,-3.748,0.0,-3.748,-3.748,-3.748,-3.748,-3.748,-3.748,-3.748,-3.748,-3.748,-3.748,-3.748,-3.748,-3.748,-3.748,-3.748,-3.748,-3.748,-3.748,-3.748,0.0,0.0,0.0,0.0,0.0,0.0,0.0,0.0,0.0,0.0,0.0,0.0,0.0,0.0,0.0,0.0,0.0,0.0,0.0,0.0,0.0,0.0,-4.6249,-4.5811,-4.5021,-4.4374,-4.4109,-4.4192,-4.4192,-4.4005,-4.421,-4.4298,-4.4165,-4.4153,-4.4153,-4.4153,-4.4036,-4.4005,-4.4005,-4.4005,-4.4005,-4.4005,-4.4005,-4.3809,-4.3406,-4.2996,-4.2541,-4.2032,-4.1701,-4.1471,-4.1363,-4.1363,-4.1272,-4.118,-4.1169,-4.1076,-4.0965,-4.1029,-4.1047,-4.1047,-4.0935,-4.0888,-4.0888,-4.0888,-4.0776,-4.0645,-4.0645,-4.0286,-3.98,-3.98,-3.9506,-3.9206,-3.9206,-3.8756,-3.839,-3.8849,-3.823,-3.7583,-3.7985,-3.7786,-3.7524,-3.7685,-3.7743,-3.7786,-3.796,-3.7844,-3.7828,-3.8238,-3.7985,-3.7685,-3.7539,-3.748,0.0,-3.748,-3.748,-3.748,-3.748,-3.748,-3.748,-3.748,-3.748,-3.748,-3.748,-3.748,-3.748,-3.748,-3.748,-3.748,-3.748,-3.748,-3.7405,0.0,0.0,0.0,0.0,0.0,0.0,0.0,0.0,0.0,0.0,0.0,0.0,0.0,0.0,0.0,0.0,0.0,0.0,0.0,0.0,0.0,0.0,-4.6498,-4.568,-4.5514,-4.4847,-4.4346,-4.421,-4.4192,-4.4221,-4.421,-4.4298,-4.4335,-4.4214,-4.4184,-4.4184,-4.4135,-4.4036,-4.4005,-4.4005,-4.4005,-4.4005,-4.4005,-4.4005,-4.3809,-4.3406,-4.2996,-4.2541,-4.2074,-4.1744,-4.1515,0.0,-4.1471,-4.1408,-4.1272,-4.129,-4.1261,0.0,0.0,0.0,0.0,0.0,-4.0888,-4.0871,-4.0597,-4.05,-4.05,-4.0254,-3.9919,-3.9645,-3.9645,-3.9594,-3.9506,-3.9242,-3.9119,-3.8995,-3.8849,-3.8327,-3.7828,-3.7927,-3.7743,-3.748,-3.748,-3.748,-3.748,-3.748,0.0,0.0,-3.7943,-3.7685,-3.748,-3.748,-3.748,-3.748,-3.748,-3.748,-3.748,-3.748,-3.748,-3.748,-3.748,-3.748,0.0,0.0,0.0,-3.748,-3.748,-3.748,0.0,0.0,0.0,-3.7464,-3.7329,0.0,0.0,0.0,-3.5907,-3.5033,0.0,0.0,0.0,0.0,0.0,0.0,0.0,0.0,0.0,0.0,0.0,0.0,0.0,0.0,0.0,0.0,-4.569,-4.4868,-4.4868,-4.4624,-4.4438,-4.4383,-4.4221,-4.421,-4.4457,-4.4364,-4.4244,-4.4214,-4.4214,-4.4135,-4.4036,0.0,0.0,0.0,0.0,-4.4005,-4.4005,-4.4005,-4.3777,-4.3336,-4.2996,-4.258,-4.2133,-4.1744,-4.1515,-4.1426,-4.156,-4.1515,-4.1426,-4.1515,-4.156,-4.1498,-4.1105,-4.0918,-4.0888,-4.0888,-4.0888,0.0,0.0,0.0,0.0,-3.9454,-3.9189,-3.9098,-3.9098,-3.9437,-3.9749,-3.9295,-3.9558,-3.9697,-3.8668,-3.8351,-3.8181,-3.7642,-3.748,-3.748,-3.748,-3.748,-3.748,-3.748,-3.748,-3.748,-3.748,-3.748,-3.748,-3.748,-3.748,-3.748,-3.748,-3.748,-3.748,-3.748,0.0,0.0,-3.748,-3.748,-3.748,-3.748,-3.748,-3.748,-3.748,-3.748,-3.748,-3.748,-3.748,-3.748,-3.748,-3.748,-3.6921,-3.5854,-3.5523,-3.45,0.0,0.0,0.0,0.0,0.0,0.0,0.0,0.0,0.0,0.0,0.0,0.0,0.0,0.0,0.0,-4.6839,-4.5876,-4.5118,-4.5118,-4.4896,-4.465,-4.443,-4.4599,-4.4669,-4.4511,-4.4568,-4.4524,-4.4285,-4.4244,-4.4214,-4.4255,-4.4097,0.0,-4.4153,-4.4055,-4.4005,-4.4005,-4.4005,-4.3627,-4.2922,0.0,0.0,-4.1719,-4.1648,-4.1604,-4.156,-4.1604,-4.1515,-4.138,-4.1426,-4.1363,-4.1255,-4.1163,-4.1041,-4.0888,-4.0888,-4.0888,-4.0871,-4.0776,-4.0385,-4.0003,-3.9902,-3.9209,-3.8446,-3.8446,-3.8557,0.0,-3.9082,-3.9242,-3.9295,-3.9082,-3.8684,-3.8181,-3.7642,-3.748,-3.748,-3.748,-3.748,-3.748,-3.748,-3.748,-3.748,-3.748,-3.748,-3.748,-3.748,-3.748,-3.748,-3.748,-3.748,-3.748,-3.748,-3.748,-3.748,-3.748,-3.748,-3.748,-3.748,-3.748,-3.748,-3.748,-3.748,-3.748,-3.748,-3.748,-3.748,-3.748,-3.748,-3.6867,-3.5706,-3.5309,-3.4508,0.0,0.0,0.0,0.0,0.0,0.0,0.0,0.0,0.0,0.0,0.0,-4.7894,0.0,0.0,-4.6723,-4.6261,-4.5629,-4.5222,-4.5243,-4.5118,-4.5007,-4.4872,-4.4872,-4.4872,-4.48,-4.4714,-4.4568,-4.4373,-4.4285,-4.4255,-4.4285,-4.4165,-4.4135,-4.4244,-4.4085,-4.4036,-4.4104,-4.4036,-4.3809,-4.3406,-4.2996,-4.258,-4.2216,-4.1788,-4.1604,-4.1604,-4.1604,-4.156,-4.1515,-4.1515,-4.1408,-4.1318,-4.1318,-4.1198,-4.0982,-4.0935,-4.0888,-4.0871,-4.0549,-4.0269,-3.9902,-3.9351,-3.8761,-3.8238,-3.7985,-3.8084,-3.8294,-3.8327,-3.8772,-3.9098,-3.8511,-3.8311,-3.8181,-3.7642,-3.748,-3.748,-3.748,-3.748,-3.748,-3.748,-3.748,-3.748,-3.748,-3.748,-3.748,-3.748,-3.748,-3.748,-3.748,-3.748,-3.748,-3.748,-3.748,-3.748,-3.748,-3.748,-3.748,-3.748,-3.748,-3.748,-3.748,-3.748,-3.748,-3.748,-3.748,-3.748,-3.748,-3.7117,-3.6535,-3.5685,-3.4559,-3.3698,0.0,0.0,0.0,0.0,0.0,0.0,0.0,0.0,-4.766,-4.7547,-4.753,-4.7338,-4.6704,-4.6607,-4.6413,-4.5701,-4.5419,-4.5322,-4.5362,-4.5381,-4.5381,-4.5381,-4.514,-4.503,-4.5074,-4.4795,-4.4549,-4.4383,-4.4344,-4.4285,-4.4285,-4.4244,-4.4244,-4.4285,-4.4116,-4.4085,-4.4153,-4.4036,-4.3955,-4.3873,-4.3141,-4.2772,-4.2657,-4.1941,-4.1604,-4.1604,-4.1604,-4.1604,-4.1604,-4.1604,-4.1515,-4.1426,-4.1426,-4.1307,-4.114,-4.0982,-4.0935,-4.0823,-4.0336,-4.012,-3.9851,-3.8924,-3.8557,-3.8351,-3.7844,-3.8042,-3.8351,-3.7786,-3.8383,-3.899,-3.7902,-3.7985,-3.8181,-3.7642,-3.748,-3.748,-3.748,-3.748,-3.748,-3.748,-3.748,-3.748,-3.748,-3.748,-3.748,-3.748,-3.748,-3.748,-3.748,-3.748,-3.748,-3.748,-3.748,-3.748,-3.748,-3.748,-3.748,-3.748,-3.748,-3.748,-3.748,-3.748,-3.748,-3.748,-3.748,-3.7417,-3.7275,-3.6706,-3.6048,-3.5385,-3.3863,-3.2996,-4.5687,-4.6202,-4.6738,-4.6736,-4.7352,-4.7585,0.0,0.0,-4.6724,-4.601,-4.5874,-4.5836,-4.5759,-4.574,-4.5701,-4.5605,-4.5622,-4.564,-4.5657,-4.5657,-4.5673,-4.5668,-4.5475,-4.5243,-4.503,-4.4808,-4.4587,-4.4344,-4.4314,-4.4285,-4.4285,-4.4285,-4.4255,-4.4214,-4.4184,-4.4135,-4.4005,-4.4005,-4.3809,-4.3474,-4.3032,-4.2619,-4.2239,-4.1788,-4.1604,-4.1604,-4.1604,-4.1604,-4.1604,-4.1604,-4.1604,-4.156,-4.1426,-4.138,-4.1335,-4.114,-4.1,-4.0888,-4.0823,-4.0434,-4.0003,-3.9851,-3.9489,-3.8974,-3.8407,-3.8629,-3.8974,-3.8351,-3.8684,-3.9028,-3.8407,-3.8238,-3.8181,-3.7642,-3.748,-3.748,-3.748,-3.748,-3.748,-3.748,-3.748,-3.748,-3.748,-3.748,-3.748,-3.748,-3.748,-3.748,-3.748,-3.748,-3.748,-3.748,-3.748,-3.748,-3.748,-3.748,-3.748,-3.748,-3.748,-3.748,-3.748,-3.748,-3.748,-3.748,-3.748,-3.7164,-3.6548,-3.6469,-3.5717,-3.4471,-3.3886,-3.3142,-4.5495,-4.5687,-4.5896,0.0,-4.6205,-4.6321,-4.5648,-4.5783,-4.5955,-4.5663,-4.5586,-4.5586,-4.5586,-4.564,-4.564,0.0,-4.5657,-4.5693,-4.5693,-4.5693,-4.5706,-4.575,-4.5651,-4.5438,-4.5096,-4.4981,-4.4783,-4.444,-4.4373,-4.4373,-4.443,-4.4373,-4.4344,-4.4314,-4.4244,-4.4184,-4.4104,-4.4036,-4.3923,-4.3744,-4.3336,-4.2959,-4.2541,-4.2133,-4.1831,-4.1604,-4.1604,-4.1604,-4.1604,-4.1604,-4.1604,-4.1604,-4.156,-4.1471,-4.138,-4.1186,-4.1047,-4.1,-4.0935,-4.071,-4.0451,-4.0103,-3.9851,-3.9542,-3.9011,-3.8974,-3.9082,-3.8446,-3.8463,-3.8535,-3.8001,-3.7828,-3.7786,-3.7524,-3.748,-3.748,-3.748,-3.748,-3.748,-3.748,-3.748,-3.748,-3.748,-3.748,-3.748,-3.748,-3.748,-3.748,-3.748,-3.748,-3.748,-3.748,-3.748,-3.748,-3.748,-3.748,-3.748,-3.748,-3.748,-3.748,-3.748,-3.748,-3.748,-3.748,-3.748,-3.7133,-3.6421,-3.6026,-3.5187,-3.392,-3.3069,-3.2319,-4.5495,-4.5458,0.0,-4.5438,-4.5438,-4.5476,-4.5513,-4.5513,-4.5531,-4.5586,-4.5586,-4.5622,-4.5622,-4.5657,-4.5657,-4.564,-4.5676,-4.5693,-4.5693,-4.569,-4.5722,-4.5765,-4.57,-4.5493,-4.514,-4.5096,-4.4934,-4.4496,-4.444,-4.444,-4.4487,-4.444,-4.4383,-4.4344,-4.4274,-4.4214,-4.4153,-4.4055,-4.4005,-4.4005,-4.3594,-4.3177,-4.2754,-4.2279,-4.1874,-4.1604,-4.1604,-4.1604,-4.1604,-4.1604,-4.1604,-4.1604,-4.1604,-4.156,-4.1426,-4.1261,-4.1169,-4.1123,-4.0982,-4.0935,-4.0888,-4.0385,-4.0269,-4.012,-3.961,-3.9401,-3.9295,-3.8739,-3.8446,-3.8181,-3.7844,-3.7642,-3.748,-3.748,-3.748,-3.748,-3.748,-3.748,-3.748,-3.748,-3.748,-3.748,-3.748,-3.748,-3.748,-3.748,-3.748,-3.748,-3.748,-3.748,-3.748,-3.748,-3.748,-3.748,-3.748,-3.748,-3.748,-3.748,-3.748,-3.748,-3.748,-3.748,-3.748,-3.748,-3.7393,-3.6906,-3.6137,-3.5498,-3.462,-3.3543,-3.2461,-3.1709,-4.5419,0.0,-4.5495,-4.5495,-4.555,-4.5586,-4.5605,-4.5586,-4.5586,-4.5586,-4.5586,-4.5622,-4.5673,-4.564,-4.5622,-4.5693,-4.5693,-4.5693,-4.5693,-4.5703,-4.57,-4.57,-4.5601,-4.54,0.0,-4.5096,-4.491,-4.444,-4.4458,-4.4487,-4.4411,-4.444,-4.4401,-4.4214,-4.4274,-4.4207,-4.4005,-4.4005,-4.4005,-4.4005,-4.3594,-4.3177,-4.2772,-4.1984,-4.1604,-4.1604,-4.1604,-4.1604,-4.1604,-4.1604,-4.1604,-4.1604,-4.1604,-4.1604,-4.156,-4.1426,-4.1318,-4.1163,-4.114,-4.1093,-4.1047,-4.0935,-4.0871,-4.0776,-4.017,-4.0003,-3.9851,-3.9295,-3.8739,-3.8294,-3.8294,-3.7886,-3.748,-3.748,-3.748,-3.748,-3.748,-3.748,-3.748,-3.748,-3.748,-3.748,-3.748,-3.748,-3.748,-3.748,-3.748,-3.748,-3.748,-3.748,-3.748,-3.748,-3.748,-3.748,-3.748,-3.748,-3.748,-3.748,-3.748,-3.748,-3.748,-3.748,-3.748,-3.748,-3.7017,-3.6389,-3.5426,-3.4972,-3.4218,-3.3287,-3.2342,-3.1879,-4.555,0.0,-4.5513,-4.5568,-4.5586,-4.5586,-4.5586,-4.5586,-4.5586,-4.5586,-4.5586,-4.5622,-4.564,-4.564,-4.5657,-4.564,-4.5671,-4.5687,-4.5709,-4.5703,-4.5715,-4.5765,-4.5735,0.0,0.0,0.0,0.0,-4.4496,-4.4487,-4.4487,-4.4487,-4.4458,-4.4383,-4.4255,-4.4244,-4.4165,-4.4005,-4.4005,-4.4005,-4.4005,-4.3318,-4.2922,-4.2772,-4.1984,-4.1604,-4.1604,-4.1604,-4.1604,-4.1604,-4.1604,-4.1604,-4.1604,-4.1604,-4.1604,-4.1604,-4.156,-4.1498,-4.1408,-4.1169,-4.1093,-4.1093,-4.0935,-4.0888,-4.0871,-4.0662,-4.0597,-4.05,-3.9919,-3.9577,-3.9246,-3.8502,-3.8181,-3.8042,-3.8042,-3.8042,-3.8042,-3.8042,-3.8042,-3.7943,-3.7583,-3.748,-3.748,-3.748,-3.748,-3.748,-3.748,-3.748,-3.748,-3.748,-3.7626,-3.7786,-3.7786,-3.7786,-3.7786,-3.7786,-3.7786,-3.7685,-3.7539,-3.7892,-3.795,-3.7539,-3.7685,-3.7462,-3.6785,-3.6606,-3.5894,-3.4668,-3.4524,-3.3887,-3.2834,-3.2492,-3.2048,-4.5586,-4.5568,-4.555,-4.5586,-4.5586,-4.5586,-4.5586,-4.5586,-4.5586,-4.5586,-4.5586,-4.5622,-4.564,-4.5657,-4.5693,-4.564,-4.5671,-4.5687,-4.5709,-4.5706,-4.5719,-4.5781,-4.5735,0.0,0.0,0.0,0.0,-4.4515,-4.4515,-4.4515,-4.4515,-4.4458,-4.4354,-4.4314,-4.4244,-4.4135,-4.4005,-4.4005,-4.4005,-4.4005,-4.3177,-4.281,-4.2772,-4.1984,-4.1604,-4.1604,-4.1604,-4.1604,-4.1604,-4.1604,-4.1604,-4.1604,-4.1604,-4.1604,-4.1604,-4.1604,-4.1604,-4.156,-4.1307,-4.1169,-4.1123,-4.0982,-4.0935,-4.0888,-4.0888,-4.0888,-4.0823,-4.0434,-4.017,-3.9834,-3.9086,-3.8778,-3.8629,-3.8629,-3.8629,-3.8629,-3.8629,-3.8629,-3.8535,-3.8173,-3.796,-3.7786,-3.7786,-3.7642,-3.748,-3.748,-3.748,-3.748,-3.748,-3.7626,-3.7727,-3.7727,-3.7727,-3.7727,-3.7727,-3.7727,-3.7727,-3.7626,-3.7934,-3.7934,-3.7626,-3.7743,-3.7351,-3.6437,-3.6242,-3.5586,-3.4288,-3.4159,-3.3634,-3.2834,-3.2656,-3.2216,-4.5586,-4.5586,-4.5586,-4.5586,-4.5586,-4.5586,-4.5586,-4.5586,-4.5586,-4.5586,-4.5586,-4.5622,0.0,0.0,-4.5693,-4.5693,-4.5709,-4.5709,-4.5709,-4.5709,-4.5722,0.0,0.0,0.0,0.0,0.0,0.0,-4.4515,0.0,-4.4515,-4.4515,-4.4411,-4.4354,-4.4285,-4.4244,-4.4135,-4.4005,-4.4005,-4.4005,-4.4005,-4.3212,-4.281,-4.2772,-4.1984,-4.1604,-4.1604,-4.1604,-4.1604,-4.1604,-4.1604,-4.1604,-4.1604,-4.1604,-4.1604,-4.1604,-4.1604,-4.1604,-4.156,-4.1471,-4.1318,-4.1209,-4.1123,-4.0982,-4.0935,-4.0888,-4.0888,-4.0888,-4.0935,-4.0483,-4.0053,-4.0003,-3.9662,-3.9259,-3.9259,-3.9259,-3.9259,-3.9259,-3.9259,-3.9242,-3.9206,-3.8684,-3.8278,-3.8278,-3.7828,-3.748,-3.7539,-3.7539,-3.748,-3.748,-3.7539,-3.7539,-3.7539,-3.7539,-3.7539,-3.7539,-3.7539,-3.7626,-3.7886,-3.7685,-3.7626,-3.7886,-3.7594,-3.7101,-3.639,-3.5959,-3.5243,-3.4241,-3.3857,-3.3555,-3.3309,-3.2834,-3.2382,-4.5603,-4.5586,-4.5586,-4.5586,-4.5586,-4.5586,-4.5586,-4.5586,-4.5586,-4.5586,-4.5586,-4.5622,0.0,0.0,0.0,-4.5693,-4.5738,0.0,-4.577,-4.5761,0.0,-4.5805,0.0,-4.5596,-4.5243,-4.5159,0.0,0.0,-4.4515,-4.4487,-4.4411,-4.4373,-4.4285,-4.4214,-4.4116,-4.4036,-4.4005,-4.4005,-4.4005,-4.4005,-4.3474,-4.3105,-4.2754,-4.2279,-4.1856,-4.1604,-4.1604,-4.1604,-4.1604,-4.1604,-4.1604,-4.1604,-4.1604,-4.1604,-4.1604,-4.1604,-4.1604,-4.1604,-4.156,-4.1471,-4.1335,-4.1123,-4.1093,-4.1047,-4.0935,-4.0888,-4.0935,-4.1047,-4.0888,-4.0597,-4.0252,-3.9986,-3.98,-3.98,-3.98,-3.98,-3.98,-3.98,-3.9697,-3.9295,-3.8684,-3.8278,-3.8278,-3.7828,-3.7583,-3.7786,-3.7642,-3.748,-3.748,-3.7685,-3.7786,-3.7786,-3.8033,-3.8164,-3.8164,-3.8375,-3.8303,-3.7943,-3.823,-3.8189,-3.7642,-3.7249,-3.6587,-3.5663,-3.4991,-3.4279,-3.3546,-3.3441,-3.3361,-3.3309,-3.3187,-3.2672,-4.5622,-4.5586,-4.5586,-4.5586,-4.5586,-4.5586,-4.5586,-4.5586,-4.5586,-4.5586,-4.5622,0.0,-4.564,0.0,0.0,0.0,0.0,0.0,-4.58,-4.5776,-4.5771,0.0,-4.5786,0.0,-4.5362,-4.5244,-4.503,0.0,-4.4532,-4.4487,-4.4411,-4.4344,-4.4255,-4.4184,-4.4055,-4.4005,-4.4005,-4.4005,-4.4005,-4.4005,-4.3406,-4.3032,-4.2772,-4.2198,-4.1831,-4.1604,0.0,-4.1604,-4.1604,-4.1604,-4.1604,-4.1604,-4.1604,-4.1604,-4.1604,-4.1604,-4.1604,-4.1604,-4.1604,-4.156,-4.1471,-4.1307,-4.1186,-4.1111,-4.0982,-4.0935,-4.0935,-4.0982,-4.1,-4.0935,-4.0645,-4.0563,-4.0514,-4.0483,-4.0483,-4.0451,-4.0385,-4.0434,-4.0336,-3.9817,-3.9456,-3.9139,-3.8854,-3.8446,-3.8141,-3.8294,-3.8059,-3.7817,-3.7685,-3.7669,-3.7727,-3.7727,-3.7876,-3.8008,-3.8008,-3.8148,-3.8132,-3.7943,-3.7769,-3.7625,-3.7412,-3.6685,-3.5872,-3.5102,-3.4673,-3.408,-3.3309,-3.3398,-3.3414,-3.3309,-3.3309,-3.2796,-4.5584,-4.5622,-4.5586,-4.5586,-4.5586,-4.5586,-4.5586,-4.5586,-4.5586,-4.5603,0.0,-4.5709,-4.5709,-4.5754,-4.5765,-4.5715,0.0,-4.5815,-4.5795,-4.5746,-4.5727,-4.58,-4.5791,-4.5715,-4.5526,-4.5304,-4.5074,-4.4819,-4.4595,-4.4458,-4.4383,-4.4314,-4.4255,-4.4184,-4.4055,-4.4005,-4.4005,-4.4005,-4.4005,-4.4005,-4.3283,-4.2904,-4.2772,-4.2092,-4.1719,-4.1604,0.0,0.0,-4.1604,-4.1604,-4.1604,-4.1604,-4.1604,-4.1604,-4.1587,-4.1499,-4.1446,-4.1446,-4.1341,-4.1288,-4.1279,-4.1233,-4.1168,-4.0967,-4.0834,-4.0735,-4.0625,-4.0671,-4.0735,-4.0782,-4.0845,-4.0839,-4.0868,-4.0828,-4.0799,-4.0816,-4.081,-4.096,-4.0965,-4.0563,-4.0449,-4.0235,-3.9698,-3.9265,-3.9016,-3.9016,-3.8717,-3.8359,-3.8157,-3.7786,-3.7524,-3.748,-3.7524,-3.7583,-3.7599,-3.7599,-3.7711,-3.7857,-3.7026,-3.6717,-3.7122,-3.6007,-3.5172,-3.4713,-3.4601,-3.416,-3.3309,-3.3555,-3.3555,-3.3309,-3.3309,-3.2796,-4.5464,-4.564,-4.5586,-4.5586,-4.5586,-4.5586,-4.5586,-4.5586,0.0,0.0,-4.5693,-4.569,-4.5703,-4.57,-4.5731,-4.5765,0.0,0.0,0.0,0.0,-4.5786,0.0,0.0,0.0,0.0,0.0,0.0,0.0,0.0,0.0,-4.4314,-4.4255,-4.4165,-4.4036,-4.4005,-4.4005,-4.4005,-4.4005,-4.4005,-4.4005,-4.386,-4.344,-4.281,-4.2657,-4.2239,-4.1604,0.0,0.0,-4.1604,-4.1604,-4.1604,-4.1604,-4.1604,-4.1604,-4.1534,-4.0902,-4.0674,-4.0586,-3.9937,-3.9708,-3.9771,-4.0333,-4.0455,-4.0289,-3.9538,-3.9259,-3.9286,-3.9373,-3.9329,-3.9303,-3.9434,-3.9373,-3.9286,-3.9286,-3.9303,-3.9477,-4.0092,-4.0746,-4.1163,-4.1053,-4.0707,-4.0351,-4.0235,-3.9749,-3.9492,-3.9783,-3.9246,-3.8887,-3.9119,-3.8367,-3.7727,-3.7539,-3.7685,-3.796,-3.8221,-3.8221,-3.8076,-3.7775,-3.7371,-3.6938,-3.6395,-3.5561,-3.5021,-3.4697,-3.4174,-3.3666,-3.3309,-3.3361,-3.3361,-3.3309,-3.3309,-3.2796,-4.485,-4.5276,-4.5586,-4.5586,-4.5586,-4.5586,-4.5586,0.0,0.0,0.0,-4.5742,-4.5754,-4.575,-4.5761,0.0,0.0,0.0,0.0,0.0,0.0,0.0,0.0,0.0,0.0,0.0,0.0,0.0,0.0,0.0,0.0,-4.4255,-4.4165,-4.4055,-4.4005,-4.4005,-4.4005,-4.4005,-4.4005,-4.4005,-4.4005,-4.3777,-4.3371,-4.281,-4.258,-4.2157,-4.1604,-4.1604,0.0,-4.1569,-4.1183,-4.1025,-4.099,-4.0569,-4.0411,-4.0358,-4.0007,-3.9884,-3.9814,-3.9445,-3.9305,-3.9305,-3.9168,-3.9388,-3.9608,-3.9138,-3.8972,-3.8929,-3.8972,-3.9015,-3.9015,-3.9101,-3.9118,-3.9076,-3.9015,-3.8929,-3.9034,-3.946,-3.987,-4.0114,-4.022,-4.0026,-3.9829,-3.9829,-3.9409,-3.9157,-3.9286,-3.8819,-3.8472,-3.8506,-3.7942,-3.7627,-3.7911,-3.7753,-3.7641,-3.7825,-3.7501,-3.7183,-3.6918,-3.6453,-3.6044,-3.5844,-3.5043,-3.4552,-3.4603,-3.4279,-3.3899,-3.3503,-3.3658,-3.3555,-3.3309,-3.3309,-3.2796,-4.4218,-4.4814,-4.5355,-4.5547,-4.5586,-4.5586,-4.5586,-4.564,0.0,0.0,-4.5754,-4.5815,-4.5795,-4.5805,-4.5805,0.0,-4.5791,0.0,0.0,0.0,0.0,0.0,0.0,0.0,0.0,0.0,0.0,0.0,0.0,0.0,0.0,-4.4055,-4.4005,-4.4005,-4.4005,-4.4005,-4.4005,-4.4005,-4.4005,-4.4005,-4.366,-4.3336,-4.2922,-4.2619,-4.2198,-4.1701,-4.1542,0.0,0.0,-4.0533,-4.0217,-4.0165,-3.955,-3.9305,-3.9287,-3.9111,-3.9059,-3.9024,-3.8866,-3.8813,-3.8708,-3.8076,-3.8351,-3.8863,-3.8706,-3.8569,-3.8485,-3.8485,-3.8569,-3.8653,-3.8653,-3.8713,-3.8772,-3.8671,-3.8692,-3.8771,-3.8856,-3.9021,-3.9161,-3.9263,-3.9305,-3.9305,-3.9305,-3.9033,-3.8825,-3.8825,-3.8498,-3.8179,-3.7946,-3.7612,-3.7619,-3.8269,-3.7584,-3.708,-3.7134,-3.6562,-3.6173,-3.6186,-3.5529,-3.5242,-3.5349,-3.4643,-3.4349,-3.4497,-3.4448,-3.4201,-3.3694,-3.3848,-3.3694,-3.3309,-3.3309,-3.2796,-4.3962,-4.4408,-4.4605,-4.5393,-4.5586,-4.5586,-4.5586,0.0,0.0,-4.57,-4.575,-4.5795,-4.58,-4.5791,-4.5795,-4.58,-4.5765,-4.5731,0.0,0.0,0.0,0.0,0.0,0.0,0.0,0.0,0.0,0.0,0.0,0.0,0.0,-4.4005,-4.4005,-4.4005,-4.4005,-4.4005,-4.4005,-4.4005,-4.4005,-4.4005,-4.3955,-4.3726,-4.3318,-4.3318,-4.2867,-4.2098,0.0,0.0,0.0,-3.9743,-3.9427,-3.941,-3.934,-3.9305,-3.9217,-3.8497,-3.8216,-3.8111,-3.7426,-3.7198,-3.718,-3.711,-3.7602,-3.8093,-3.7409,-3.7198,-3.718,-3.718,-3.7198,-3.7198,-3.7198,-3.7198,-3.7198,-3.7198,-3.7684,-3.8175,-3.8175,-3.8754,-3.9263,-3.9305,-3.9305,-3.9305,-3.9305,-3.9263,-3.9263,-3.9263,-3.8912,-3.8632,-3.8632,-3.8271,-3.8044,-3.8133,-3.7015,-3.6372,-3.6656,-3.636,-3.6173,-3.6042,-3.5661,-3.5333,-3.4967,-3.4885,-3.4739,-3.4497,-3.425,-3.4,-3.3694,-3.3503,-3.3361,-3.3309,-3.3309,-3.2796,-4.3275,-4.3948,-4.4509,-4.5374,-4.5586,-4.5622,-4.564,0.0,-4.5719,-4.575,-4.5776,-4.5805,-4.58,-4.58,-4.5791,-4.5795,-4.5776,0.0,-4.5815,0.0,0.0,0.0,0.0,0.0,0.0,0.0,0.0,0.0,0.0,0.0,0.0,-4.4005,-4.4005,-4.4005,-4.4005,-4.4005,-4.4005,-4.4005,-4.4005,-4.4005,-4.4005,-4.3777,-4.3387,-4.291,-4.225,-4.1466,0.0,0.0,0.0,-3.8918,-3.8585,-3.8532,-3.8093,-3.7918,-3.7865,-3.7549,-3.7426,-3.7391,-3.7093,-3.6987,-3.6987,-3.6987,-3.718,-3.7374,-3.7075,-3.6987,-3.6987,-3.6987,-3.6987,-3.6987,-3.6987,-3.6987,-3.6987,-3.6987,-3.7198,-3.7426,-3.7426,-3.769,-3.7918,-3.7918,-3.7918,-3.7918,-3.7918,-3.7918,-3.7918,-3.7918,-3.7761,-3.7679,-3.7679,-3.7369,-3.7128,-3.7128,-3.667,-3.6406,-3.6554,-3.5844,-3.5383,-3.5346,-3.5233,-3.5053,-3.4916,-3.4899,-3.4787,-3.4497,-3.4399,-3.4151,-3.3694,-3.3607,-3.345,-3.3309,-3.3309,-3.2958,-4.2797,-4.3508,-4.4201,-4.5316,-4.5586,-4.5622,0.0,0.0,-4.5715,-4.58,-4.5805,-4.58,-4.58,-4.58,-4.5786,-4.5795,-4.5791,-4.5805,-4.5795,0.0,0.0,0.0,0.0,0.0,0.0,0.0,0.0,0.0,0.0,0.0,0.0,-4.4048,-4.4005,-4.4005,-4.4005,-4.4005,-4.4005,-4.4005,-4.4005,-4.4005,-4.4005,-4.373,-4.3207,-4.2654,-4.1915,-4.1031,0.0,0.0,0.0,-3.8134,-3.7777,-3.7725,-3.718,-3.6987,-3.6987,-3.6987,-3.6987,-3.6987,-3.6987,-3.6987,-3.6987,-3.6987,-3.6987,-3.6987,-3.6987,-3.6987,-3.6987,-3.6987,-3.6987,-3.6987,-3.6987,-3.6987,-3.6987,-3.6987,-3.6987,-3.6987,-3.6987,-3.6987,-3.6987,-3.6987,-3.6987,-3.6987,-3.6987,-3.6987,-3.6987,-3.6987,-3.6987,-3.6987,-3.6987,-3.6771,-3.6667,-3.6667,-3.6551,-3.6412,-3.6182,-3.5496,-3.5024,-3.4899,-3.4899,-3.4899,-3.4899,-3.4899,-3.4787,-3.4497,-3.4399,-3.4151,-3.3694,-3.3607,-3.3503,-3.3309,-3.3309,-3.2958,-4.2659,-4.3104,-4.3508,-4.5182,-4.5586,-4.5622,0.0,0.0,-4.5715,-4.58,-4.5805,-4.58,-4.58,-4.58,-4.5786,-4.5795,-4.58,-4.58,-4.58,0.0,0.0,0.0,0.0,0.0,0.0,0.0,0.0,0.0,0.0,0.0,0.0,0.0,-4.4005,-4.4005,-4.4005,-4.4005,-4.4005,-4.4005,-4.4005,-4.4005,-4.4005,-4.3578,-4.2816,-4.2797,-4.2149,0.0,0.0,0.0,0.0,-3.75,-3.6987,-3.6987,-3.6987,-3.6987,-3.6987,-3.6987,-3.6987,-3.6987,-3.6987,-3.6987,-3.6987,-3.6987,-3.6987,-3.6987,-3.6987,-3.6987,-3.6987,-3.6987,-3.6987,-3.6987,-3.6987,-3.6987,-3.6987,-3.6987,-3.6987,-3.6987,-3.6987,-3.6987,-3.6987,-3.6987,-3.6987,-3.6987,-3.6987,-3.6987,-3.6987,-3.6987,-3.6987,-3.6987,-3.6987,-3.6987,-3.697,-3.697,-3.6708,-3.6191,-3.547,-3.5379,-3.5241,-3.4947,-3.4899,-3.4899,-3.4899,-3.4899,-3.4787,-3.4497,-3.425,-3.3949,-3.3694,-3.345,-3.3309,-3.3309,-3.3309,-3.2796,-4.1979,-4.2236,-4.2604,-4.4297,-4.4754,-4.4941,-4.5568,0.0,-4.5781,-4.5805,-4.58,-4.58,-4.58,-4.58,-4.58,-4.5805,-4.5805,-4.5791,0.0,0.0,0.0,0.0,0.0,0.0,0.0,0.0,0.0,0.0,0.0,0.0,0.0,0.0,-4.4192,-4.4005,-4.4005,-4.4005,-4.4005,-4.4005,-4.3726,-4.3188,-4.3188,-4.276,-4.1962,-4.1404,0.0,0.0,0.0,0.0,0.0,-3.7482,-3.7206,-3.6987,-3.6987,-3.6987,-3.6987,-3.6987,-3.6987,-3.6987,-3.6987,-3.6987,-3.6987,-3.6987,-3.6987,-3.6987,-3.6987,-3.6987,-3.6987,-3.6987,-3.6987,-3.6987,-3.6987,-3.6987,-3.6987,-3.6987,-3.6987,-3.6987,-3.6987,-3.6987,-3.6987,-3.6987,-3.6987,-3.6987,-3.6987,-3.6987,-3.6987,-3.6987,-3.6987,-3.6987,-3.6987,-3.6987,-3.6987,-3.6987,-3.6908,-3.665,-3.6191,-3.5694,-3.5333,-3.5241,-3.5024,-3.4804,-3.4643,-3.4804,-3.4594,-3.3949,-3.405,-3.3899,-3.345,-3.3346,-3.3309,-3.3309,-3.3309,-3.2958,-4.1677,-4.211,-4.2653,-4.4001,-4.4614,0.0,0.0,-4.5765,-4.5795,-4.58,-4.58,-4.58,-4.58,-4.58,-4.58,-4.58,-4.58,-4.5791,0.0,0.0,0.0,0.0,0.0,0.0,0.0,0.0,0.0,0.0,0.0,0.0,0.0,0.0,-4.4168,-4.3703,-4.3881,-4.3856,-4.3559,-4.3559,-4.3132,-4.2352,-4.2352,-4.1924,-4.1126,-4.0624,0.0,0.0,0.0,0.0,0.0,-3.7791,-3.7523,-3.7185,-3.7185,-3.7108,-3.6987,-3.6987,-3.6987,-3.6987,-3.6987,-3.6987,-3.6987,-3.6987,-3.6987,-3.6987,-3.6987,-3.6987,-3.6987,-3.6987,-3.6987,-3.6987,-3.6987,-3.6987,-3.6987,-3.6987,-3.6987,-3.6987,-3.6987,-3.6987,-3.6987,-3.6987,-3.6987,-3.6987,-3.6987,-3.6987,-3.6987,-3.6987,-3.6987,-3.6987,-3.6987,-3.6987,-3.6987,-3.6987,-3.6987,-3.6908,-3.6708,-3.6131,-3.5694,-3.5424,-3.5195,-3.493,-3.4497,-3.4643,-3.4399,-3.3694,-3.3848,-3.3745,-3.3309,-3.3309,-3.3309,-3.3309,-3.3309,-3.3065,0.0,-4.2478,-4.3288,0.0,0.0,0.0,0.0,-4.5815,0.0,-4.58,-4.58,-4.58,-4.58,-4.58,-4.58,-4.58,-4.5791,0.0,0.0,0.0,0.0,0.0,0.0,0.0,0.0,0.0,0.0,0.0,0.0,0.0,0.0,0.0,0.0,-4.3133,-4.3591,-4.3466,-4.2723,-4.2705,-4.2314,-4.1497,-4.1497,-4.1089,-4.0308,-4.0308,0.0,0.0,0.0,0.0,0.0,-3.8249,-3.7913,-3.7542,-3.7505,-3.7301,-3.7009,-3.7027,-3.6987,-3.6987,-3.6987,-3.6987,-3.6987,-3.6987,-3.6987,-3.6987,-3.6987,-3.6987,-3.6987,-3.6987,-3.6987,-3.6987,-3.6987,-3.6987,-3.6987,-3.6987,-3.6987,-3.6987,-3.6987,-3.6987,-3.6987,-3.6987,-3.6987,-3.6987,-3.6987,-3.6987,-3.6987,-3.6987,-3.6987,-3.6987,-3.6987,-3.6987,-3.6987,-3.6987,-3.6987,-3.6987,-3.6987,-3.665,-3.6191,-3.5453,-3.5379,-3.5102,-3.4497,-3.4497,-3.425,-3.371,-3.3642,-3.3555,-3.3309,-3.3309,-3.3309,-3.3309,-3.3309,-3.3065,-4.1925,0.0,-4.2401,-4.3269,-4.4148,-4.4969,0.0,0.0,0.0,0.0,0.0,-4.58,-4.58,-4.58,-4.58,-4.58,-4.5791,0.0,0.0,0.0,0.0,0.0,0.0,0.0,0.0,0.0,0.0,0.0,0.0,0.0,0.0,0.0,0.0,-4.2224,-4.2164,-4.2073,-4.1869,-4.1827,-4.1438,-4.068,-4.0585,-4.0129,-3.9332,-3.9332,0.0,0.0,0.0,0.0,-3.8579,-3.8517,-3.8281,-3.7913,-3.7614,-3.7432,-3.7339,-3.7069,-3.6987,-3.6987,-3.6987,-3.6987,-3.6987,-3.6987,-3.6987,-3.6987,-3.6987,-3.6987,-3.6987,-3.6987,-3.6987,-3.6987,-3.6987,-3.6987,-3.6987,-3.6987,-3.6987,-3.6987,-3.6987,-3.6987,-3.6987,-3.6987,-3.6987,-3.6987,-3.6987,-3.6987,-3.6987,-3.6987,-3.6987,-3.6987,-3.6987,-3.6987,-3.6987,-3.6987,-3.6987,-3.6908,-3.6626,-3.6284,-3.5968,-3.5776,-3.5316,-3.4787,-3.4201,-3.4399,-3.4151,-3.3398,-3.3398,-3.3346,-3.3309,-3.3309,-3.3309,-3.3309,-3.3309,-3.324,-4.2609,-4.2853,-4.325,-4.3714,-4.4462,-4.5211,-4.5694,-4.5786,0.0,0.0,0.0,-4.58,-4.5805,-4.5805,-4.5791,-4.5757,-4.575,0.0,0.0,0.0,0.0,0.0,0.0,0.0,0.0,0.0,0.0,0.0,0.0,0.0,0.0,0.0,0.0,0.0,-4.1266,-4.1082,-4.0956,-4.0926,-4.0507,-3.9692,-3.9674,-3.9404,-3.8968,-3.8997,0.0,0.0,0.0,0.0,-3.8796,-3.8826,-3.8628,-3.8281,-3.7929,-3.765,-3.7469,-3.7108,-3.6987,-3.6987,-3.6987,-3.6987,-3.6987,-3.6987,-3.6987,-3.6987,-3.6987,-3.6987,-3.6987,-3.6987,-3.6987,-3.6987,-3.6987,-3.6987,-3.6987,-3.6987,-3.6987,-3.6987,-3.6987,-3.6987,-3.6987,-3.6987,-3.6987,-3.6987,-3.6987,-3.6987,-3.6987,-3.6987,-3.6987,-3.6987,-3.6987,-3.6987,-3.6987,-3.6987,-3.6987,-3.6948,-3.6731,-3.6224,-3.582,-3.5705,-3.5224,-3.4675,-3.4151,-3.4101,-3.3848,-3.3293,-3.3398,-3.3398,-3.3309,-3.3309,-3.3309,-3.3309,-3.3309,-3.3187,-4.339,-4.4028,-4.4679,-4.4626,-4.52,-4.58,-4.58,-4.58,-4.58,0.0,0.0,0.0,-4.5746,-4.5765,0.0,0.0,0.0,0.0,0.0,0.0,0.0,0.0,0.0,0.0,0.0,0.0,0.0,0.0,0.0,0.0,0.0,0.0,0.0,0.0,-4.0591,-4.0298,-4.0055,-3.9997,-3.9634,-3.891,-3.8968,-3.8921,-3.8881,-3.8921,0.0,0.0,0.0,0.0,-3.9026,-3.9073,-3.8942,-3.864,-3.8314,-3.7982,-3.7596,-3.7206,-3.7087,-3.7087,-3.7009,-3.6987,-3.6987,-3.6987,-3.6987,-3.6987,-3.6987,-3.6987,-3.6987,-3.6987,-3.6987,-3.6987,-3.6987,-3.6987,-3.6987,-3.6987,-3.6987,-3.6987,-3.6987,-3.6987,-3.6987,-3.6987,-3.6987,-3.6987,-3.6987,-3.6987,-3.6987,-3.6987,-3.6987,-3.6987,-3.6987,-3.6987,-3.6987,-3.6987,-3.6987,-3.6987,-3.6948,-3.635,-3.5837,-3.5424,-3.5131,-3.4706,-3.4151,-3.3797,-3.3555,-3.3293,-3.3555,-3.3555,-3.3309,-3.3346,-3.3346,-3.3309,-3.3309,-3.3065,-4.3809,-4.4422,-4.5036,-4.4684,-4.52,-4.58,-4.58,-4.58,-4.58,0.0,0.0,0.0,0.0,-4.5648,0.0,0.0,0.0,0.0,0.0,0.0,0.0,0.0,0.0,0.0,0.0,0.0,0.0,0.0,0.0,0.0,0.0,0.0,0.0,0.0,0.0,-3.9563,-3.9342,-3.9135,-3.8962,-3.891,-3.8833,-3.8822,-3.8822,-3.8822,-3.8822,0.0,0.0,-3.8968,-3.9026,-3.9073,-3.9073,-3.8998,-3.864,-3.8486,-3.8342,-3.7667,-3.7432,-3.7376,-3.7126,-3.6987,-3.6987,-3.6987,-3.6987,-3.6987,-3.6987,-3.6987,-3.6987,-3.6987,-3.6987,-3.6987,-3.6987,-3.6987,-3.6987,-3.6987,-3.6987,-3.6987,-3.6987,-3.6987,-3.6987,-3.6987,-3.6987,-3.6987,-3.6987,-3.6987,-3.6987,-3.6987,-3.6987,-3.6987,-3.6987,-3.6987,-3.6987,-3.6987,-3.6987,-3.6908,-3.6585,-3.6485,-3.6131,-3.5424,-3.5118,-3.4691,-3.4101,-3.3591,-3.3346,-3.3309,-3.3555,-3.3555,-3.3309,-3.3555,-3.3503,-3.3309,-3.3309,-3.324,-4.4609,-4.4895,-4.5147,-4.492,-4.5149,-4.5399,-4.5342,-4.5304,-4.5341,0.0,0.0,0.0,0.0,0.0,0.0,0.0,0.0,0.0,0.0,0.0,0.0,0.0,0.0,0.0,0.0,0.0,0.0,0.0,0.0,0.0,0.0,0.0,0.0,0.0,0.0,-3.9421,-3.9154,-3.8873,-3.875,-3.881,-3.8792,-3.8792,-3.875,-3.8792,-3.8792,-3.875,0.0,-3.8939,-3.895,-3.9045,-3.9101,-3.9073,-3.8748,-3.8609,-3.8517,-3.7773,-3.7505,-3.7469,-3.7126,-3.6987,-3.6987,-3.6987,-3.6987,-3.6987,-3.6987,-3.6987,-3.6987,-3.6987,-3.6987,-3.6987,-3.6987,-3.6987,-3.6987,-3.6987,-3.6987,-3.6987,-3.6987,-3.6987,-3.6987,-3.6987,-3.6987,-3.6987,-3.6987,-3.6987,-3.6987,-3.6987,-3.6987,-3.6987,-3.6987,-3.6987,-3.6987,-3.6987,-3.6987,-3.6948,-3.6771,-3.6609,-3.6131,-3.5224,-3.4866,-3.4497,-3.4101,-3.4,-3.3899,-3.3761,-3.3848,-3.3797,-3.3503,-3.3503,-3.3398,-3.3309,-3.3309,-3.3187,-4.4706,-4.4763,-4.4779,-4.49,-4.5007,-4.5055,-4.4931,-4.4912,-4.4957,0.0,0.0,0.0,0.0,0.0,0.0,0.0,0.0,0.0,0.0,0.0,0.0,0.0,0.0,0.0,0.0,0.0,0.0,0.0,0.0,0.0,0.0,0.0,0.0,0.0,-3.988,-3.9576,-3.9282,-3.897,-3.878,-3.8707,-3.875,-3.875,-3.8707,-3.875,-3.875,-3.8707,-3.8822,-3.8881,-3.891,-3.9036,-3.9073,-3.9073,-3.8807,-3.8688,-3.8517,-3.798,-3.7721,-3.7614,-3.7356,-3.7261,-3.7261,-3.7261,-3.7241,-3.7203,-3.7203,-3.7126,-3.7066,-3.7066,-3.7027,-3.6987,-3.6987,-3.6987,-3.6987,-3.6987,-3.6987,-3.6987,-3.6987,-3.6987,-3.6987,-3.6987,-3.6987,-3.6987,-3.6987,-3.6987,-3.6987,-3.6987,-3.6987,-3.6987,-3.6987,-3.6987,-3.6987,-3.6987,-3.6987,-3.6987,-3.6987,-3.6609,-3.6028,-3.5237,-3.4754,-3.4399,-3.4201,-3.4349,-3.43,-3.4101,-3.4151,-3.405,-3.3694,-3.3555,-3.3398,-3.3309,-3.3309,-3.3065,-4.3216,-4.345,-4.3611,-4.4261,-4.4764,-4.5055,-4.4931,-4.4912,0.0,-4.4935,0.0,0.0,0.0,0.0,0.0,0.0,0.0,0.0,0.0,0.0,0.0,0.0,0.0,0.0,0.0,0.0,0.0,0.0,0.0,0.0,0.0,0.0,0.0,0.0,0.0,-4.0001,-3.9851,-3.9401,-3.9007,-3.8707,-3.8707,-3.8707,-3.8707,-3.8707,-3.8707,-3.8707,-3.878,-3.8833,-3.891,-3.8979,-3.9045,-3.9101,-3.9073,-3.8865,-3.8579,-3.8548,-3.8328,-3.8068,-3.8034,-3.8034,-3.8034,-3.8034,-3.7879,-3.7756,-3.7756,-3.7522,-3.7259,-3.7259,-3.7143,-3.6987,-3.6987,-3.6987,-3.6987,-3.6987,-3.6987,-3.6987,-3.6987,-3.6987,-3.6987,-3.6987,-3.6987,-3.6987,-3.6987,-3.6987,-3.6987,-3.6987,-3.6987,-3.6987,-3.6987,-3.6987,-3.6987,-3.6987,-3.6987,-3.6987,-3.6987,-3.635,-3.5907,-3.5864,-3.4991,-3.4497,-3.4448,-3.425,-3.4101,-3.4101,-3.4349,-3.4201,-3.3694,-3.3949,-3.3797,-3.3309,-3.3309,-3.3065,-4.2358,-4.2406,-4.2426,-4.266,-4.324,0.0,0.0,-4.3668,-4.3676,-4.3832,-4.3441,0.0,0.0,0.0,0.0,0.0,0.0,0.0,0.0,0.0,0.0,0.0,0.0,0.0,0.0,0.0,0.0,0.0,0.0,0.0,0.0,0.0,0.0,0.0,0.0,-4.0002,-3.996,-3.958,-3.9227,-3.8933,-3.8773,-3.8707,-3.8707,-3.8707,-3.8707,-3.8707,-3.8762,-3.8851,-3.891,-3.8979,-3.9036,-3.9101,-3.9101,-3.9027,-3.8884,-3.8688,-3.8517,-3.8378,-3.8168,-3.8101,-3.8101,-3.815,-3.8099,-3.8032,-3.7895,-3.7791,-3.7632,-3.7354,-3.7259,-3.7143,-3.7027,-3.6987,-3.6987,-3.6987,-3.6987,-3.6987,-3.6987,-3.6987,-3.6987,-3.6987,-3.6987,-3.6987,-3.6987,-3.6987,-3.6987,-3.6987,-3.6987,-3.6987,-3.6987,-3.6987,-3.6987,-3.6987,-3.6987,-3.6987,-3.6987,-3.655,-3.6156,-3.5907,-3.5178,-3.4756,-3.4756,-3.4643,-3.4594,-3.4594,-3.4349,-3.4151,-3.3949,-3.371,-3.3503,-3.3309,-3.3309,-3.3187,-4.1443,-4.1463,-4.1465,-4.167,0.0,0.0,-4.222,-4.2526,-4.2853,-4.2698,-4.2329,0.0,0.0,0.0,0.0,0.0,0.0,0.0,0.0,0.0,0.0,0.0,0.0,0.0,0.0,0.0,0.0,0.0,0.0,0.0,0.0,0.0,0.0,0.0,0.0,0.0,-4.0101,-3.9791,-3.9494,-3.9223,-3.8942,-3.878,-3.8707,-3.8707,-3.8707,-3.8707,-3.875,-3.8792,-3.8862,-3.8921,-3.9036,-3.9101,-3.9101,-3.9101,-3.9073,-3.8836,-3.8748,-3.8718,-3.8504,-3.841,-3.841,-3.841,-3.836,-3.8296,-3.8132,-3.7929,-3.7739,-3.7466,-3.7297,-3.7182,-3.7027,-3.6987,-3.6987,-3.6987,-3.6987,-3.6987,-3.6987,-3.6987,-3.6987,-3.6987,-3.6987,-3.6987,-3.6987,-3.6987,-3.6987,-3.6987,-3.6987,-3.6987,-3.6987,-3.6987,-3.6987,-3.6987,-3.6987,-3.6987,-3.6987,-3.669,-3.6343,-3.595,-3.5362,-3.5024,-3.4899,-3.4899,-3.4899,-3.4899,-3.4546,-3.425,-3.4101,-3.3745,-3.345,-3.3309,-3.3309,-3.324,-4.0469,-4.0641,-4.0774,-4.1586,0.0,0.0,-4.0673,-4.1667,-4.2537,-4.1739,0.0,-4.1987,0.0,0.0,0.0,0.0,0.0,0.0,0.0,0.0,0.0,0.0,0.0,0.0,0.0,0.0,0.0,0.0,0.0,0.0,0.0,0.0,0.0,0.0,0.0,0.0,-4.0307,-4.0022,-3.9769,-3.9502,-3.9219,-3.895,-3.8707,-3.8707,-3.8707,-3.8707,-3.8707,-3.875,-3.8822,-3.8862,-3.8979,-3.9101,-3.9101,-3.9101,-3.9101,-3.9101,-3.9101,-3.9101,-3.9101,-3.9101,-3.9073,-3.895,-3.8755,-3.8585,-3.8446,-3.8052,-3.7613,-3.7631,-3.7317,-3.7009,-3.7009,-3.7009,-3.7027,-3.7009,-3.7009,-3.7027,-3.7009,-3.7009,-3.6987,-3.6987,-3.6987,-3.6987,-3.6987,-3.6987,-3.6987,-3.6987,-3.6987,-3.6987,-3.6987,-3.6987,-3.6987,-3.6987,-3.6987,-3.6987,-3.6987,-3.6708,-3.6343,-3.5907,-3.5571,-3.5241,-3.4899,-3.4899,-3.4899,-3.4899,-3.4899,-3.4643,-3.4101,-3.4101,-3.3797,-3.3309,-3.3309,-3.3065,-3.9724,-3.9656,0.0,-3.9853,0.0,0.0,0.0,-4.0365,0.0,0.0,0.0,0.0,0.0,0.0,0.0,0.0,0.0,0.0,0.0,0.0,0.0,0.0,0.0,0.0,0.0,0.0,0.0,0.0,0.0,0.0,0.0,0.0,0.0,0.0,0.0,0.0,-4.0449,-4.0081,-3.9794,-3.9571,-3.9253,-3.895,-3.8707,-3.8707,-3.8707,-3.8707,-3.8707,-3.875,-3.8822,-3.8921,-3.9036,-3.9101,-3.9101,-3.9101,-3.9101,-3.9101,-3.9129,-3.9183,-3.9183,-3.9183,-3.9202,-3.9275,-3.9248,-3.9092,-3.8833,-3.8737,-3.8628,-3.815,-3.8065,-3.808,-3.7946,-3.7773,-3.7542,-3.7279,-3.7334,-3.7392,-3.7259,-3.722,-3.7182,-3.7027,-3.6987,-3.6987,-3.6987,-3.6987,-3.6987,-3.6987,-3.6987,-3.6987,-3.6987,-3.6987,-3.6987,-3.6987,-3.6987,-3.6891,-3.6667,-3.6544,-3.6233,-3.5588,-3.5453,-3.5241,-3.4899,-3.4899,-3.4899,-3.4899,-3.4691,-3.4448,-3.4101,-3.3899,-3.3658,-3.3309,-3.3309,-3.324,-3.9346,-3.9202,0.0,-3.9101,-3.9491,-3.9751,-3.9212,0.0,0.0,0.0,0.0,0.0,0.0,0.0,0.0,0.0,0.0,0.0,0.0,0.0,0.0,0.0,0.0,0.0,0.0,0.0,0.0,0.0,0.0,0.0,0.0,0.0,0.0,0.0,0.0,0.0,-4.0502,-4.0252,-3.9943,-3.9552,-3.9345,-3.9055,-3.8707,-3.8707,-3.8707,-3.8707,-3.8707,-3.875,-3.8822,-3.8939,-3.9007,-3.9045,-3.9101,-3.9101,-3.9101,-3.9101,-3.9129,-3.9156,-3.9156,-3.9156,-3.9183,-3.9275,-3.9275,-3.9193,-3.8968,-3.8931,-3.8865,-3.8455,-3.8423,-3.8436,-3.8342,-3.8245,-3.808,-3.7632,-3.7559,-3.754,-3.7334,-3.7297,-3.722,-3.7027,-3.6987,-3.6987,-3.6987,-3.6987,-3.6987,-3.6987,-3.6987,-3.6987,-3.6987,-3.6987,-3.6987,-3.6987,-3.6987,-3.6908,-3.6708,-3.6708,-3.6385,-3.5677,-3.5616,-3.5407,-3.4947,-3.4899,-3.4899,-3.4899,-3.4739,-3.4448,-3.4101,-3.3949,-3.3658,-3.3309,-3.3118,-3.3011,-3.9256,-3.9156,-3.9101,-3.9101,-3.9101,0.0,-3.9101,-3.9101,-3.9101,0.0,0.0,0.0,0.0,0.0,0.0,0.0,0.0,0.0,0.0,0.0,0.0,0.0,0.0,0.0,0.0,0.0,0.0,0.0,0.0,0.0,0.0,0.0,0.0,0.0,0.0,0.0,-4.0482,-4.0466,-4.0158,0.0,-3.9505,-3.9216,-3.8738,-3.8707,-3.8707,-3.8707,-3.8707,-3.875,-3.8822,-3.8862,-3.8921,-3.9007,-3.9073,-3.9101,-3.9101,-3.9101,-3.9101,-3.9101,-3.9101,-3.9129,-3.9129,-3.9073,-3.9045,-3.9017,-3.895,-3.8815,-3.8688,-3.864,-3.853,-3.8436,-3.8436,-3.8548,-3.8548,-3.8114,-3.7844,-3.7649,-3.7392,-3.7354,-3.7279,-3.7066,-3.6987,-3.6987,-3.6987,-3.6987,-3.6987,-3.6987,-3.6987,-3.6987,-3.6987,-3.6987,-3.6987,-3.6987,-3.6987,-3.6987,-3.6948,-3.693,-3.6632,-3.5907,-3.5864,-3.5571,-3.4947,-3.4899,-3.4899,-3.4899,-3.4899,-3.4643,-3.4151,-3.4101,-3.3848,-3.3361,-3.2888,-3.2656,-3.9373,-3.9229,0.0,0.0,-3.9101,-3.9101,-3.9101,-3.9101,0.0,0.0,0.0,0.0,0.0,0.0,0.0,0.0,0.0,0.0,0.0,0.0,0.0,0.0,0.0,0.0,0.0,0.0,0.0,0.0,0.0,0.0,0.0,0.0,0.0,0.0,0.0,-4.0489,-4.0508,-4.0232,-4.0042,0.0,-3.9632,-3.9331,-3.9007,-3.881,-3.8707,-3.8707,-3.8707,-3.875,-3.8822,-3.8862,-3.8921,-3.9007,-3.9073,-3.9101,-3.9101,-3.9101,-3.9129,-3.9183,-3.9183,-3.9229,-3.9346,-3.9373,-3.9399,-3.9373,-3.9202,-3.9256,-3.9335,-3.911,-3.921,-3.9317,-3.9317,-3.921,-3.8998,-3.8755,-3.8664,-3.846,-3.7877,-3.7791,-3.7614,-3.7087,-3.6987,-3.6987,-3.6987,-3.6987,-3.6987,-3.6987,-3.6987,-3.6987,-3.6987,-3.6987,-3.6987,-3.6987,-3.6987,-3.6891,-3.6626,-3.6626,-3.6301,-3.5543,-3.5498,-3.5316,-3.4899,-3.4899,-3.4899,-3.4899,-3.4899,-3.4739,-3.4399,-3.4201,-3.3949,-3.3607,-3.3277,-3.3134,-3.9328,0.0,0.0,-3.9101,0.0,-3.9101,-3.9101,-3.9101,0.0,0.0,0.0,0.0,0.0,0.0,0.0,0.0,0.0,0.0,0.0,0.0,0.0,0.0,0.0,0.0,0.0,0.0,0.0,0.0,0.0,0.0,0.0,0.0,0.0,0.0,-4.0489,-4.0489,-4.0489,-4.0319,-4.0157,-4.0002,-3.9816,-3.9513,-3.9101,-3.8822,-3.8707,-3.8707,-3.8707,-3.8719,-3.875,-3.8851,-3.8939,-3.895,-3.9045,-3.9101,-3.9101,-3.9101,-3.9129,-3.9156,-3.9156,-3.9229,-3.9328,-3.9418,-3.9469,-3.9495,-3.9406,-3.9483,-3.9577,-3.9432,-3.9483,-3.9602,-3.9602,-3.9502,-3.938,-3.9275,-3.8979,-3.8572,-3.8034,-3.7897,-3.7756,-3.7354,-3.7279,-3.7279,-3.7279,-3.722,-3.7143,-3.7143,-3.7066,-3.7009,-3.7143,-3.7143,-3.7143,-3.7143,-3.7143,-3.7009,-3.6748,-3.6585,-3.6259,-3.5661,-3.5498,-3.5241,-3.4899,-3.4899,-3.4899,-3.4899,-3.4899,-3.4756,-3.4497,-3.425,-3.405,-3.3848,-3.3118,-3.285,-3.9283,0.0,-3.9183,-3.9129,-3.9101,0.0,-3.9101,0.0,0.0,0.0,0.0,0.0,0.0,0.0,0.0,0.0,0.0,0.0,0.0,0.0,0.0,0.0,0.0,0.0,0.0,0.0,0.0,0.0,0.0,0.0,0.0,0.0,-4.0457,-4.0457,-4.0473,-4.0489,-4.0489,-4.0508,-4.0356,-4.0101,-4.0022,-3.9728,-3.9219,-3.8892,-3.875,-3.8707,-3.8707,-3.8707,-3.8707,-3.8851,-3.891,-3.8921,-3.9045,-3.9101,-3.9101,-3.9101,-3.9101,-3.9101,-3.9101,-3.9156,-3.9256,-3.9373,-3.9444,-3.952,-3.9577,-3.9602,-3.9602,-3.9602,-3.9602,-3.9602,-3.9602,-3.9602,-3.9577,-3.9552,-3.9073,-3.8491,-3.8104,-3.802,-3.7951,-3.7649,-3.7577,-3.7594,-3.754,-3.7447,-3.7334,-3.7334,-3.722,-3.7182,-3.7334,-3.7334,-3.7297,-3.7297,-3.7259,-3.7182,-3.7009,-3.6748,-3.6385,-3.595,-3.5661,-3.5333,-3.4899,-3.4899,-3.4899,-3.4899,-3.4899,-3.4787,-3.4546,-3.43,-3.4151,-3.4151,-3.2942,-3.2508,-3.9469,0.0,-3.9183,0.0,-3.9101,-3.9101,0.0,0.0,0.0,0.0,0.0,0.0,0.0,0.0,0.0,0.0,0.0,0.0,0.0,0.0,0.0,0.0,0.0,0.0,0.0,0.0,0.0,0.0,0.0,0.0,0.0,-4.0002,-4.0251,-4.0251,-4.0425,-4.0489,-4.0489,-4.0495,-4.0482,-4.0432,-4.0081,-3.9878,-3.9785,-3.9272,-3.8921,-3.8707,-3.8707,-3.8707,-3.8707,-3.8851,-3.891,-3.8921,-3.9045,-3.9101,-3.9101,-3.9101,-3.9101,-3.9101,-3.9101,-3.9202,-3.9391,-3.9373,-3.9476,-3.9596,-3.9596,-3.9602,-3.9602,-3.9602,-3.9602,-3.9602,-3.9602,-3.9602,-3.9552,-3.9309,-3.9183,-3.8998,-3.8597,-3.8504,-3.8346,-3.7721,-3.7577,-3.754,-3.7372,-3.7484,-3.754,-3.754,-3.7558,-3.754,-3.7558,-3.741,-3.7297,-3.7297,-3.7143,-3.7027,-3.6987,-3.6948,-3.6632,-3.595,-3.5864,-3.5571,-3.4947,-3.4899,-3.4899,-3.4899,-3.4899,-3.4899,-3.4851,-3.4594,-3.4448,-3.4448,-3.3539,-3.3187,-3.9495,-3.9399,-3.9301,0.0,-3.9275,-3.9275,0.0,0.0,0.0,0.0,0.0,0.0,0.0,0.0,0.0,0.0,0.0,0.0,0.0,0.0,0.0,0.0,0.0,0.0,0.0,0.0,0.0,0.0,0.0,0.0,-3.9502,-3.9794,-4.0042,-4.0196,-4.0286,-4.0392,-4.0489,-4.0492,-4.0495,-4.0502,-4.0252,-4.0041,-3.9897,-3.9508,-3.9183,-3.8939,-3.878,-3.8719,-3.8762,-3.8851,-3.8921,-3.8968,-3.9045,-3.9101,-3.9101,-3.9101,-3.9101,-3.9101,-3.9156,-3.9256,-3.9418,-3.9444,-3.952,-3.9602,-3.9602,-3.9602,-3.9602,-3.9602,-3.9602,-3.9602,-3.9602,-3.9602,-3.9577,-3.9458,-3.9413,-3.9335,-3.9027,-3.8855,-3.8646,-3.8201,-3.8101,-3.8052,-3.7846,-3.7898,-3.7915,-3.7775,-3.7667,-3.7631,-3.7739,-3.7594,-3.7484,-3.7484,-3.7297,-3.7105,-3.7027,-3.6829,-3.6509,-3.5933,-3.5732,-3.5407,-3.4947,-3.4899,-3.4899,-3.4899,-3.4899,-3.4899,-3.4899,-3.4643,-3.4594,-3.4691,-3.3559,-3.3087,0.0,0.0,-3.9418,-3.9418,-3.9391,-3.9391,0.0,0.0,0.0,0.0,0.0,0.0,0.0,0.0,0.0,0.0,0.0,0.0,0.0,0.0,0.0,0.0,0.0,0.0,0.0,0.0,0.0,0.0,0.0,0.0,-3.9401,-3.9609,-3.9816,-4.0021,-4.0139,-4.0269,-4.0406,-4.0473,-4.0492,-4.0502,-4.0396,-4.0233,-4.0021,-3.9747,-3.9513,-3.9305,-3.8892,-3.875,-3.8822,-3.8862,-3.8921,-3.9007,-3.9073,-3.9101,-3.9101,-3.9101,-3.9101,-3.9101,-3.9183,-3.9301,-3.9418,-3.9469,-3.9546,-3.9602,-3.9602,-3.9602,-3.9602,-3.9602,-3.9602,-3.9602,-3.9602,-3.9602,-3.9602,-3.9602,-3.9602,-3.9527,-3.9256,-3.9036,-3.8833,-3.8585,-3.8572,-3.8528,-3.8256,-3.8252,-3.8219,-3.8003,-3.7864,-3.781,-3.7969,-3.7739,-3.7577,-3.7577,-3.7354,-3.7182,-3.7009,-3.669,-3.6343,-3.595,-3.5588,-3.5241,-3.4899,-3.4899,-3.4899,-3.4899,-3.4899,-3.4899,-3.4899,-3.4691,-3.4691,-3.4899,-3.3527,-3.2986,0.0,-3.9495,0.0,-3.9418,0.0,0.0,0.0,0.0,0.0,0.0,0.0,0.0,0.0,0.0,0.0,0.0,0.0,0.0,0.0,0.0,0.0,0.0,0.0,0.0,0.0,0.0,0.0,0.0,0.0,0.0,-3.9129,-3.9357,-3.9508,-3.9551,-3.9981,-4.0214,-4.0214,-4.0389,-4.0492,-4.0502,-4.0502,-4.0449,-4.0362,-4.0101,-3.9982,-3.9901,-3.9064,-3.875,-3.8822,-3.8862,-3.8921,-3.9007,-3.9073,-3.9101,-3.9101,-3.9101,-3.9101,-3.9101,-3.9183,-3.9301,-3.9418,-3.9469,-3.9546,-3.9602,-3.9602,-3.9602,-3.9602,-3.9602,-3.9602,-3.9602,-3.9602,-3.9602,-3.9602,-3.9602,-3.9602,-3.9527,-3.9256,-3.9036,-3.8833,-3.8628,-3.8755,-3.8725,-3.83,-3.8364,-3.8415,-3.8207,-3.8192,-3.8192,-3.8192,-3.7846,-3.7577,-3.7577,-3.7241,-3.7027,-3.6987,-3.669,-3.6343,-3.595,-3.5588,-3.5241,-3.4899,-3.4899,-3.4899,-3.4899,-3.4899,-3.4899,-3.4899,-3.4899,-3.4899,-3.4899,-3.3716,-3.3145,0.0,0.0,0.0,-3.9527,0.0,0.0,0.0,0.0,0.0,0.0,0.0,0.0,0.0,0.0,0.0,0.0,0.0,0.0,0.0,0.0,0.0,0.0,0.0,0.0,0.0,0.0,0.0,0.0,0.0,0.0,-3.9101,-3.9192,-3.9324,-3.9483,-3.9772,-4.0101,-4.0389,-4.0473,-4.0508,-4.0511,-4.0499,-4.0502,-4.0449,-4.0139,-3.9983,-3.9982,-3.9338,-3.9129,-3.9183,-3.9036,-3.9007,-3.9073,-3.9101,-3.9101,-3.9101,-3.9101,-3.9101,-3.9101,-3.9183,-3.9301,-3.9418,-3.9469,-3.9546,-3.9602,-3.9602,-3.9602,-3.9602,-3.9602,-3.9602,-3.9602,-3.9602,-3.9602,-3.9602,-3.9602,-3.9602,-3.9577,-3.9483,-3.9256,-3.9073,-3.8998,-3.8931,-3.8803,-3.846,-3.846,-3.8415,-3.8241,-3.8192,-3.8192,-3.8192,-3.7969,-3.7739,-3.7613,-3.7372,-3.7143,-3.7027,-3.6908,-3.669,-3.6301,-3.5924,-3.5571,-3.5241,-3.5024,-3.4899,-3.4899,-3.4899,-3.4899,-3.4899,-3.4899,-3.4899,-3.4899,-3.4118,-3.3764,-3.9602,0.0,0.0,0.0,0.0,0.0,0.0,0.0,0.0,0.0,0.0,0.0,0.0,0.0,0.0,0.0,0.0,0.0,0.0,0.0,0.0,0.0,0.0,0.0,0.0,0.0,0.0,0.0,0.0,0.0,-3.9101,-3.9101,-3.9253,-3.9585,-3.9728,-4.0043,-4.0489,-4.0489,-4.0489,-4.0489,-4.0495,-4.0515,-4.0479,-4.0269,-4.0157,-4.0139,-3.975,-3.9532,-3.9376,-3.912,-3.9036,-3.9101,-3.9101,-3.9101,-3.9101,-3.9101,-3.9101,-3.9129,-3.9229,-3.9346,-3.9418,-3.9495,-3.9571,-3.9602,-3.9602,-3.9602,-3.9602,-3.9602,-3.9602,-3.9602,-3.9602,-3.9602,-3.9602,-3.9602,-3.9602,-3.9602,-3.9602,-3.9388,-3.921,-3.921,-3.9036,-3.8803,-3.8541,-3.851,-3.8415,-3.8241,-3.8192,-3.8192,-3.8192,-3.8003,-3.7864,-3.7703,-3.7521,-3.7334,-3.7203,-3.7087,-3.6834,-3.6426,-3.6037,-3.5644,-3.5241,-3.5024,-3.4899,-3.4899,-3.4899,-3.4899,-3.4899,-3.4899,-3.4899,-3.4899,-3.4118,-3.361,0.0,0.0,0.0,0.0,0.0,0.0,0.0,0.0,0.0,0.0,0.0,0.0,0.0,0.0,0.0,0.0,0.0,0.0,0.0,0.0,0.0,0.0,0.0,0.0,0.0,0.0,0.0,0.0,0.0,-3.8748,-3.9073,-3.9101,-3.9313,-3.9775,-3.9797,-4.0004,-4.0489,-4.0489,-4.0489,-4.0489,-4.0489,-4.0489,-4.0489,-4.0489,-4.0489,-4.0489,-4.0286,-3.9899,-3.9376,-3.9129,-3.9064,-3.9101,-3.9101,-3.9101,-3.9101,-3.9101,-3.9101,-3.9129,-3.932,-3.9391,-3.9418,-3.9552,-3.9596,-3.9602,-3.9602,-3.9602,-3.9602,-3.9602,-3.9602,-3.9602,-3.9602,-3.9602,-3.9602,-3.9602,-3.9602,-3.9602,-3.9602,-3.9388,-3.921,-3.921,-3.9064,-3.8833,-3.8572,-3.851,-3.8415,-3.8241,-3.8192,-3.8192,-3.8192,-3.8038,-3.7899,-3.7899,-3.7739,-3.7631,-3.7577,-3.7299,-3.6838,-3.6274,-3.5873,-3.5464,-3.4947,-3.4899,-3.4899,-3.4899,-3.4899,-3.4899,-3.4899,-3.4899,-3.4899,-3.4899,-3.3732,-3.2625,-3.9602,0.0,0.0,0.0,0.0,0.0,0.0,0.0,0.0,0.0,0.0,0.0,0.0,0.0,0.0,0.0,0.0,0.0,0.0,0.0,0.0,0.0,0.0,0.0,0.0,0.0,0.0,0.0,-3.8609,-3.8748,-3.9073,-3.9101,-3.9245,-3.9561,-3.9709,-3.9963,-4.0286,-4.0441,-4.0489,-4.0489,-4.0489,-4.0489,-4.0489,-4.0489,-4.0489,-4.0489,-4.0286,-4.0002,-3.9683,-3.9458,-3.9245,-3.9101,-3.9101,-3.9101,-3.9101,-3.9101,-3.9129,-3.9183,-3.9229,-3.9354,-3.9469,-3.952,-3.9571,-3.9602,-3.9602,-3.9602,-3.9602,-3.9602,-3.9602,-3.9602,-3.9602,-3.9602,-3.9602,-3.9602,-3.9602,-3.9602,-3.9602,-3.9388,-3.9256,-3.9458,-3.9283,-3.9045,-3.8833,-3.8634,-3.8415,-3.8241,-3.8192,-3.8192,-3.8192,-3.8158,-3.8038,-3.7899,-3.7864,-3.7739,-3.7631,-3.7392,-3.7069,-3.6638,-3.6165,-3.5688,-3.5287,-3.5024,-3.4899,-3.4899,-3.4899,-3.4899,-3.4899,-3.4899,-3.4899,-3.4899,-3.4168,-3.323,-3.9602,-3.9602,-3.9602,0.0,0.0,0.0,0.0,-3.9602,0.0,0.0,0.0,0.0,0.0,0.0,0.0,0.0,0.0,0.0,0.0,0.0,0.0,0.0,0.0,0.0,0.0,0.0,0.0,0.0,-3.841,-3.8597,-3.9073,-3.9101,-3.9219,-3.9483,-3.9705,-3.9922,-4.0196,-4.0389,-4.0489,-4.0489,-4.0489,-4.0489,-4.0489,-4.0489,-4.0489,-4.0489,-4.0372,-4.012,-3.9797,-3.9683,-3.9414,-3.9101,-3.9101,-3.9101,-3.9101,-3.9129,-3.9156,-3.921,-3.9301,-3.9399,-3.9495,-3.952,-3.9571,-3.9602,-3.9602,-3.9602,-3.9602,-3.9602,-3.9602,-3.9602,-3.9602,-3.9602,-3.9602,-3.9602,-3.9602,-3.9602,-3.9602,-3.9483,-3.9362,-3.9413,-3.9229,-3.9036,-3.8921,-3.8773,-3.8621,-3.8515,-3.8387,-3.8322,-3.8322,-3.8241,-3.8158,-3.8056,-3.8021,-3.7969,-3.7846,-3.7667,-3.7354,-3.6935,-3.6516,-3.5994,-3.5407,-3.5195,-3.5024,-3.4899,-3.4899,-3.4899,-3.4899,-3.4899,-3.4675,-3.4202,-3.3646,-3.2926,-3.9577,-3.9602,-3.9602,0.0,0.0,0.0,-3.9602,-3.9602,0.0,0.0,0.0,0.0,0.0,0.0,0.0,0.0,0.0,0.0,0.0,0.0,0.0,0.0,0.0,0.0,0.0,0.0,-3.7299,-3.8,-3.8101,-3.8442,-3.9073,-3.9101,-3.9192,-3.9452,-3.9683,-3.9903,-4.0158,-4.0372,-4.0489,-4.0489,-4.0489,-4.0489,-4.0489,-4.0489,-4.0489,-4.0489,-4.0489,-4.0248,-3.984,-3.984,-3.9566,-3.9101,-3.9101,-3.9101,-3.9129,-3.9183,-3.921,-3.9256,-3.9425,-3.9495,-3.952,-3.9596,-3.9602,-3.9602,-3.9602,-3.9602,-3.9602,-3.9602,-3.9602,-3.9602,-3.9602,-3.9602,-3.9602,-3.9602,-3.9602,-3.9602,-3.9602,-3.9602,-3.9527,-3.9309,-3.9092,-3.895,-3.8921,-3.8921,-3.8939,-3.8862,-3.8634,-3.851,-3.8478,-3.8322,-3.8192,-3.8192,-3.8192,-3.8192,-3.8192,-3.8021,-3.7667,-3.7091,-3.6856,-3.6308,-3.5379,-3.5379,-3.5211,-3.4899,-3.4899,-3.4899,-3.4899,-3.4899,-3.4301,-3.3198,-3.2695,-3.212,0.0,0.0,0.0,0.0,0.0,0.0,-3.9602,-3.9602,0.0,0.0,0.0,0.0,0.0,0.0,0.0,0.0,0.0,0.0,0.0,0.0,0.0,0.0,0.0,0.0,0.0,0.0,-3.7185,-3.7578,-3.8165,-3.8688,-3.9073,-3.9101,-3.9129,-3.9183,-3.9571,-3.9819,-3.988,-4.0302,-4.0489,-4.0489,-4.0489,-4.0489,-4.0489,-4.0489,-4.0489,-4.0489,-4.0489,-4.0356,-4.012,-4.012,-3.9705,-3.9101,-3.9101,-3.9129,-3.9183,-3.9183,-3.9283,-3.9469,-3.9495,-3.9546,-3.9577,-3.9596,-3.9602,-3.9602,-3.9602,-3.9602,-3.9602,-3.9602,-3.9602,-3.9602,-3.9602,-3.9602,-3.9602,-3.9602,-3.9602,-3.9602,-3.9602,-3.9602,-3.9577,-3.9527,-3.9502,-3.9406,-3.9183,-3.9129,-3.9017,-3.8615,-3.8541,-3.8446,-3.8274,-3.8207,-3.8192,-3.8192,-3.8192,-3.8192,-3.8192,-3.8021,-3.7504,-3.6689,-3.6522,-3.6037,-3.5024,-3.5088,-3.5088,-3.4899,-3.4899,-3.4947,-3.5041,-3.4947,-3.4301,-3.3182,-3.3093,-3.2461,0.0,0.0,0.0,-3.9602,0.0,0.0,0.0,-3.9703,0.0,0.0,0.0,0.0,0.0,0.0,0.0,0.0,0.0,0.0,0.0,0.0,0.0,0.0,0.0,0.0,0.0,0.0,-3.7147,-3.7469,-3.818,-3.867,-3.8836,-3.8998,-3.9101,-3.9101,-3.9464,-3.9705,-3.9797,-4.0157,-4.0389,-4.0489,-4.0489,-4.0489,-4.0489,-4.0489,-4.0489,-4.0489,-4.0489,-4.0392,-4.0196,-4.0196,-3.9857,-3.9298,-3.9298,-3.9245,-3.921,-3.9275,-3.9399,-3.9495,-3.9546,-3.9571,-3.9602,-3.9602,-3.9602,-3.9602,-3.9602,-3.9602,-3.9602,-3.9602,-3.9602,-3.9602,-3.9602,-3.9602,-3.9602,-3.9602,-3.9602,-3.9602,-3.9602,-3.9602,-3.9602,-3.9602,-3.9602,-3.9552,-3.9432,-3.9283,-3.9129,-3.8884,-3.8646,-3.8478,-3.8368,-3.8274,-3.8192,-3.8192,-3.8192,-3.8192,-3.8192,-3.8021,-3.7685,-3.7246,-3.686,-3.6374,-3.5661,-3.5515,-3.5321,-3.4994,-3.4994,-3.4994,-3.4994,-3.4947,-3.4301,-3.3182,-3.2949,-3.2312,0.0,0.0,0.0,0.0,0.0,-3.9689,0.0,0.0,0.0,0.0,0.0,0.0,0.0,0.0,0.0,0.0,0.0,0.0,0.0,0.0,0.0,0.0,0.0,0.0,0.0,0.0,-3.7147,-3.7469,-3.8114,-3.8517,-3.8579,-3.8913,-3.9101,-3.9101,-3.9376,-3.9585,-3.9797,-4.0062,-4.0304,-4.0489,-4.0489,-4.0489,-4.0489,-4.0489,-4.0489,-4.0489,-4.0489,-4.0425,-4.0269,-4.0269,-3.9982,-3.958,-3.9532,-3.9401,-3.9256,-3.9373,-3.9469,-3.952,-3.9596,-3.9602,-3.9602,-3.9602,-3.9602,-3.9602,-3.9602,-3.9602,-3.9602,-3.9602,-3.9602,-3.9602,-3.9602,-3.9602,-3.9602,-3.9602,-3.9602,-3.9602,-3.9602,-3.9602,-3.9602,-3.9602,-3.9602,-3.9602,-3.9602,-3.9432,-3.9256,-3.9156,-3.8815,-3.8541,-3.8446,-3.8289,-3.8192,-3.8192,-3.8192,-3.8192,-3.8192,-3.8038,-3.7899,-3.7792,-3.7301,-3.686,-3.6457,-3.6028,-3.5577,-3.5152,-3.5105,-3.493,-3.4787,-3.4739,-3.4202,-3.3198,-3.2749,-3.2176,0.0,0.0,0.0,0.0,-3.9637,0.0,0.0,0.0,0.0,0.0,0.0,0.0,0.0,0.0,0.0,0.0,0.0,0.0,0.0,0.0,0.0,0.0,0.0,0.0,0.0,0.0,0.0,-3.7469,-3.7913,-3.8281,-3.8579,-3.8913,-3.9101,-3.9101,-3.9376,-3.9585,-3.9797,-4.0062,-4.0304,-4.0489,-4.0489,-4.0489,-4.0489,-4.0489,-4.0489,-4.0489,-4.0489,-4.0489,-4.0473,-4.0473,-4.0212,-3.9857,-3.9651,-3.9514,-3.9391,-3.9469,-3.952,-3.9596,-3.9596,-3.9602,-3.9602,-3.9602,-3.9602,-3.9602,-3.9602,-3.9602,-3.9602,-3.9602,-3.9602,-3.9602,-3.9602,-3.9602,-3.9602,-3.9602,-3.9602,-3.9602,-3.9602,-3.9602,-3.9602,-3.9602,-3.9602,-3.9602,-3.9602,-3.9577,-3.9406,-3.8979,-3.8892,-3.8713,-3.8307,-3.8207,-3.8192,-3.8192,-3.8192,-3.8192,-3.8192,-3.8192,-3.7933,-3.7396,-3.7414,-3.7135,-3.651,-3.5985,-3.5571,-3.5291,-3.5041,-3.4723,-3.4284,-3.4234,-3.3866,-3.3182,-3.3145,-3.2516,0.0,0.0,0.0,0.0,0.0,0.0,-3.9477,0.0,-3.947,0.0,0.0,0.0,0.0,0.0,0.0,0.0,0.0,0.0,0.0,0.0,0.0,0.0,0.0,0.0,0.0,0.0,0.0,0.0,0.0,-3.8249,-3.8579,-3.8913,-3.9101,-3.9101,-3.9192,-3.9439,-3.9797,-3.9922,-4.0157,-4.0489,-4.0489,-4.0489,-4.0489,-4.0489,-4.0489,-4.0489,-4.0489,-4.0489,-4.0504,-4.0539,-4.0372,-4.0062,-3.9941,-3.9712,-3.9469,-3.9495,-3.9546,-3.9602,-3.9602,-3.9602,-3.9602,-3.9602,-3.9602,-3.9602,-3.9602,-3.9602,-3.9602,-3.9602,-3.9602,-3.9602,-3.9602,-3.9602,-3.9602,-3.9602,-3.9602,-3.9602,-3.9602,-3.9602,-3.9602,-3.9602,-3.9602,-3.9602,-3.9602,-3.9458,-3.9309,-3.9101,-3.8979,-3.8773,-3.8401,-3.8368,-3.8322,-3.8225,-3.8192,-3.8192,-3.8192,-3.8192,-3.8088,-3.7827,-3.7395,-3.6921,-3.6416,-3.5924,-3.5515,-3.5291,-3.5245,-3.5041,-3.4626,-3.4301,-3.3834,-3.3182,-3.2895,-3.2272,-3.8743,0.0,0.0,0.0,0.0,0.0,0.0,0.0,0.0,0.0,0.0,0.0,0.0,0.0,0.0,-3.899,0.0,0.0,0.0,0.0,0.0,0.0,0.0,0.0,0.0,0.0,0.0,0.0,-3.8135,0.0,-3.8609,-3.8942,-3.9101,-3.9101,-3.9101,-3.9305,-3.9709,-3.9775,-4.0023,-4.0425,-4.0473,-4.0489,-4.0489,-4.0489,-4.0489,-4.0489,-4.0523,-4.0523,-4.0539,-4.0588,-4.0454,-4.0266,-4.0213,-3.9958,-3.9602,-3.9546,-3.9571,-3.9602,-3.9602,-3.9602,-3.9602,-3.9602,-3.9602,-3.9602,-3.9602,-3.9602,-3.9602,-3.9602,-3.9602,-3.9602,-3.9602,-3.9602,-3.9602,-3.9602,-3.9602,-3.9602,-3.9602,-3.9602,-3.9602,-3.9607,-3.9626,-3.9602,-3.9607,-3.9439,-3.9264,-3.921,-3.9092,-3.8892,-3.8634,-3.8541,-3.8446,-3.8289,-3.8241,-3.8192,-3.8192,-3.8192,-3.814,-3.802,-3.7413,-3.6821,-3.6343,-3.5958,-3.5622,-3.5354,-3.54,-3.5198,-3.4723,-3.4366,-3.3783,-3.2986,-3.2602,-3.2079,0.0,0.0,0.0,-3.9137,0.0,0.0,0.0,0.0,-3.935,0.0,0.0,0.0,0.0,0.0,-3.8892,-3.8822,-3.859,0.0,0.0,0.0,0.0,0.0,0.0,0.0,0.0,0.0,0.0,-3.7911,-3.8216,0.0,-3.867,-3.897,-3.9101,-3.9101,-3.9101,-3.9219,-3.9508,-3.9705,-3.9943,-4.0214,-4.0425,-4.0489,-4.0489,-4.0489,-4.0489,-4.0504,-4.0573,-4.0607,-4.0607,-4.0593,-4.0515,-4.0406,-4.0389,-4.0177,-3.987,-3.9656,-3.9596,-3.9602,-3.9602,-3.9602,-3.9602,-3.9602,-3.9602,-3.9602,-3.9602,-3.9602,-3.9602,-3.9602,-3.9602,-3.9602,-3.9602,-3.9602,-3.9602,-3.9602,-3.9602,-3.9602,-3.9602,-3.9602,-3.9626,-3.967,-3.9637,-3.9607,-3.9689,-3.9656,-3.9502,-3.9237,-3.9183,-3.9101,-3.8921,-3.8664,-3.851,-3.851,-3.8322,-3.8192,-3.8192,-3.8192,-3.802,-3.7542,-3.7505,-3.7132,-3.6343,-3.6156,-3.5915,-3.5492,-3.5245,-3.4818,-3.4235,-3.4118,-3.3507,-3.2453,-3.2398,-3.2079,0.0,0.0,-3.8483,-3.8615,0.0,0.0,0.0,0.0,0.0,0.0,0.0,0.0,0.0,0.0,-3.8603,-3.8559,-3.851,-3.8433,0.0,0.0,0.0,0.0,0.0,0.0,0.0,0.0,0.0,-3.8342,-3.8517,-3.8718,0.0,-3.9055,-3.9101,-3.9101,-3.9101,-3.9219,-3.9502,-3.9705,-3.9943,-4.0214,-4.0389,-4.0489,-4.0489,-4.0489,-4.0523,-4.0573,-4.0588,-4.0603,-4.0593,-4.0654,-4.0564,-4.0389,-4.0304,-4.012,-3.9892,-3.9804,-3.9727,-3.9602,-3.9602,-3.9602,-3.9602,-3.9602,-3.9602,-3.9602,-3.9602,-3.9602,-3.9602,-3.9602,-3.9602,-3.9602,-3.9602,-3.9602,-3.9602,-3.9661,-3.9684,-3.9689,-3.9777,-3.9796,-3.9777,-3.9717,-3.9689,-3.9661,-3.9631,-3.9626,-3.9577,-3.9483,-3.9309,-3.9129,-3.8921,-3.8664,-3.8446,-3.8322,-3.8241,-3.8192,-3.8192,-3.8192,-3.814,-3.7967,-3.7667,-3.7283,-3.6719,-3.6409,-3.5958,-3.54,-3.5354,-3.5135,-3.4675,-3.3986,-3.3407,-3.2895,-3.2176,-3.1697,-3.8192,-3.8192,0.0,-3.8354,-3.8322,0.0,-3.8446,0.0,0.0,0.0,0.0,0.0,0.0,0.0,-3.8478,-3.8446,-3.8478,-3.8446,0.0,-3.8241,0.0,0.0,0.0,0.0,0.0,0.0,-3.8597,-3.8778,-3.8778,-3.8884,0.0,0.0,-3.9101,-3.9101,-3.9101,-3.9165,-3.935,-3.966,-3.9901,-4.0062,-4.0372,-4.0489,-4.0489,-4.0489,-4.0539,-4.0607,-4.0603,-4.0564,-4.053,-4.0612,-4.0504,-4.0321,-4.0213,-4.008,-3.9892,-3.9823,-3.9703,-3.9602,-3.9602,-3.9602,-3.9602,-3.9602,-3.9602,-3.9602,-3.9631,-3.9626,-3.9602,-3.9698,-3.9679,-3.9656,-3.9679,-3.9722,-3.9727,-3.9758,-3.9781,-3.9804,-3.9889,-3.9848,-3.9826,-3.9781,-3.9712,-3.9661,-3.9656,-3.9626,-3.9602,-3.9602,-3.9458,-3.9283,-3.9166,-3.8844,-3.859,-3.8451,-3.8307,-3.8192,-3.8192,-3.8192,-3.8072,-3.7757,-3.745,-3.7038,-3.6457,-3.6199,-3.5708,-3.5026,-3.5295,-3.5111,-3.4374,-3.3922,-3.3511,-3.3039,-3.2312,-3.1853]},{"header":{"parameterUnit":"m.s-1","parameterCategory":1,"la1":30.6,"la2":29.2853,"lo1":-89.7004,"lo2":-87.6739,"dy":0.0162,"dx":0.0183,"nx":112,"ny":82,"refTime":"2023-08-22T06:00:00:Z","depth":0,"parameterNumber":3,"parameterNumberName":"V-component_of_WINDS"},"data":[0.0,0.0,0.0,0.0,0.0,0.0,0.0,0.0,0.0,0.0,0.0,0.0,0.0,0.0,0.0,0.0,0.0,0.0,0.0,0.0,0.0,0.0,0.0,0.0,0.0,0.0,0.0,0.0,0.0,0.0,0.0,0.0,0.0,0.0,0.0,0.0,0.0,0.0,0.0,0.0,0.0,0.0,0.0,0.0,0.0,0.0,0.0,0.0,0.0,0.0,0.0,0.0,0.0,0.0,0.0,0.0,0.0,0.0,0.0,0.0,0.0,0.0,0.0,0.0,0.0,0.0,0.0,0.0,0.0,0.0,0.0,0.0,0.0,0.0,0.0,0.0,0.0,0.0,0.0,0.0,0.0,0.0,0.0,0.0,0.0,0.0,0.0,0.0,0.0,0.0,0.0,-2.0754,-2.0489,-2.0292,-2.0292,-2.0292,-2.0454,-2.0941,0.0,0.0,0.0,0.0,0.0,0.0,0.0,0.0,0.0,0.0,0.0,0.0,0.0,0.0,0.0,0.0,0.0,0.0,0.0,0.0,0.0,0.0,0.0,0.0,0.0,0.0,0.0,0.0,0.0,0.0,0.0,0.0,0.0,0.0,0.0,0.0,0.0,0.0,0.0,0.0,0.0,0.0,0.0,0.0,0.0,0.0,0.0,0.0,0.0,0.0,0.0,0.0,0.0,0.0,0.0,0.0,0.0,0.0,0.0,0.0,0.0,0.0,0.0,0.0,0.0,0.0,0.0,0.0,0.0,0.0,0.0,0.0,0.0,0.0,0.0,0.0,0.0,0.0,0.0,0.0,0.0,0.0,0.0,0.0,0.0,0.0,0.0,0.0,0.0,0.0,0.0,0.0,0.0,0.0,0.0,0.0,0.0,0.0,0.0,0.0,0.0,0.0,0.0,0.0,-2.0843,-2.046,-2.0326,-2.0292,-2.0292,-2.0292,-2.0546,-2.1119,0.0,0.0,0.0,0.0,0.0,0.0,0.0,0.0,0.0,0.0,0.0,0.0,0.0,0.0,0.0,0.0,0.0,0.0,0.0,0.0,0.0,0.0,0.0,0.0,0.0,0.0,0.0,0.0,0.0,0.0,0.0,0.0,0.0,0.0,0.0,0.0,0.0,0.0,0.0,0.0,0.0,0.0,0.0,0.0,0.0,0.0,0.0,0.0,0.0,0.0,0.0,0.0,0.0,0.0,0.0,0.0,0.0,0.0,0.0,0.0,0.0,0.0,0.0,0.0,0.0,0.0,0.0,0.0,0.0,0.0,0.0,0.0,0.0,0.0,0.0,0.0,0.0,0.0,0.0,0.0,0.0,0.0,0.0,0.0,0.0,0.0,0.0,0.0,0.0,0.0,0.0,0.0,0.0,0.0,0.0,0.0,0.0,0.0,0.0,0.0,0.0,0.0,0.0,-2.1006,-2.0736,-2.0564,-2.0382,-2.0292,-2.0292,-2.0292,-2.046,-2.0724,-2.0741,0.0,0.0,0.0,0.0,0.0,0.0,0.0,0.0,0.0,0.0,0.0,0.0,0.0,0.0,0.0,0.0,0.0,0.0,0.0,0.0,0.0,0.0,0.0,0.0,0.0,0.0,0.0,0.0,0.0,0.0,0.0,0.0,0.0,0.0,0.0,0.0,0.0,0.0,0.0,0.0,0.0,0.0,0.0,0.0,0.0,0.0,0.0,0.0,0.0,0.0,0.0,0.0,0.0,0.0,0.0,0.0,0.0,0.0,0.0,0.0,0.0,0.0,0.0,0.0,0.0,0.0,0.0,0.0,0.0,0.0,0.0,0.0,0.0,0.0,0.0,0.0,0.0,0.0,0.0,0.0,0.0,0.0,0.0,0.0,0.0,0.0,0.0,0.0,0.0,0.0,0.0,0.0,0.0,0.0,0.0,0.0,0.0,0.0,0.0,0.0,0.0,0.0,-2.1177,-2.1087,-2.0916,-2.0736,-2.0645,-2.0555,-2.0555,-2.0645,-2.0817,-2.0736,0.0,0.0,0.0,0.0,0.0,0.0,0.0,0.0,0.0,0.0,0.0,0.0,0.0,0.0,0.0,0.0,0.0,0.0,0.0,0.0,0.0,0.0,0.0,0.0,0.0,0.0,0.0,0.0,0.0,0.0,0.0,0.0,0.0,0.0,0.0,0.0,0.0,0.0,0.0,0.0,0.0,0.0,0.0,0.0,0.0,0.0,0.0,0.0,0.0,0.0,0.0,0.0,0.0,0.0,0.0,0.0,0.0,0.0,0.0,0.0,0.0,0.0,0.0,0.0,0.0,0.0,0.0,0.0,0.0,0.0,0.0,0.0,0.0,0.0,0.0,0.0,0.0,0.0,0.0,0.0,0.0,0.0,0.0,0.0,0.0,0.0,0.0,0.0,0.0,0.0,0.0,0.0,0.0,0.0,0.0,0.0,0.0,0.0,0.0,0.0,0.0,0.0,-2.2059,-2.2306,-2.1695,-2.1606,-2.1526,-2.1356,-2.1356,-2.1615,-2.2217,-2.1266,0.0,0.0,0.0,0.0,0.0,0.0,0.0,0.0,0.0,0.0,0.0,0.0,0.0,0.0,0.0,0.0,0.0,0.0,0.0,0.0,0.0,0.0,0.0,0.0,0.0,0.0,0.0,0.0,0.0,0.0,0.0,0.0,0.0,0.0,0.0,0.0,0.0,0.0,0.0,0.0,0.0,0.0,0.0,0.0,0.0,0.0,0.0,0.0,0.0,0.0,0.0,0.0,0.0,0.0,0.0,0.0,0.0,0.0,0.0,0.0,0.0,0.0,0.0,0.0,0.0,0.0,0.0,0.0,0.0,0.0,0.0,0.0,0.0,0.0,0.0,0.0,0.0,0.0,0.0,0.0,0.0,0.0,0.0,0.0,0.0,0.0,0.0,0.0,0.0,0.0,0.0,0.0,0.0,0.0,0.0,0.0,0.0,0.0,0.0,0.0,0.0,0.0,-2.2921,-2.2824,0.0,-2.3076,-2.2979,-2.2902,-2.2208,-2.1952,-2.2394,0.0,0.0,0.0,0.0,0.0,0.0,0.0,0.0,0.0,0.0,0.0,0.0,0.0,0.0,0.0,0.0,0.0,0.0,0.0,0.0,0.0,0.0,0.0,0.0,0.0,0.0,0.0,0.0,0.0,0.0,0.0,0.0,0.0,0.0,0.0,0.0,0.0,0.0,0.0,0.0,0.0,0.0,0.0,0.0,0.0,0.0,0.0,0.0,0.0,0.0,0.0,0.0,0.0,0.0,0.0,0.0,0.0,0.0,0.0,0.0,0.0,0.0,0.0,0.0,0.0,0.0,0.0,0.0,0.0,0.0,0.0,0.0,0.0,0.0,0.0,0.0,0.0,0.0,0.0,0.0,0.0,0.0,0.0,0.0,0.0,0.0,0.0,0.0,0.0,0.0,0.0,0.0,0.0,0.0,0.0,0.0,0.0,0.0,0.0,0.0,0.0,0.0,-2.4413,-2.4039,-2.3856,0.0,-2.4296,-2.42,-2.4094,-2.3327,-2.3066,-2.3337,0.0,0.0,0.0,0.0,0.0,0.0,0.0,0.0,0.0,0.0,0.0,0.0,0.0,0.0,0.0,0.0,0.0,0.0,0.0,0.0,0.0,0.0,0.0,0.0,0.0,0.0,0.0,0.0,0.0,0.0,0.0,0.0,0.0,0.0,0.0,0.0,0.0,0.0,0.0,0.0,0.0,0.0,0.0,0.0,0.0,0.0,0.0,0.0,0.0,0.0,0.0,0.0,0.0,0.0,0.0,0.0,0.0,0.0,0.0,0.0,0.0,0.0,0.0,0.0,0.0,0.0,0.0,0.0,0.0,0.0,0.0,0.0,0.0,0.0,0.0,0.0,0.0,0.0,0.0,0.0,0.0,0.0,0.0,0.0,0.0,0.0,0.0,0.0,0.0,0.0,0.0,0.0,0.0,0.0,0.0,0.0,0.0,0.0,0.0,0.0,0.0,0.0,-2.4754,-2.5253,-2.5673,-2.5274,-2.52,-2.5094,-2.4882,-2.4787,-2.5052,0.0,0.0,0.0,0.0,0.0,0.0,0.0,0.0,0.0,0.0,0.0,0.0,0.0,0.0,0.0,0.0,0.0,0.0,0.0,0.0,0.0,0.0,0.0,0.0,0.0,0.0,0.0,0.0,0.0,0.0,0.0,0.0,0.0,0.0,0.0,0.0,0.0,0.0,0.0,0.0,0.0,0.0,0.0,0.0,0.0,0.0,0.0,0.0,0.0,0.0,0.0,0.0,0.0,0.0,0.0,0.0,0.0,0.0,0.0,0.0,0.0,0.0,0.0,0.0,0.0,0.0,0.0,0.0,0.0,0.0,0.0,0.0,0.0,0.0,0.0,0.0,0.0,0.0,0.0,0.0,0.0,0.0,0.0,0.0,0.0,0.0,0.0,0.0,0.0,0.0,0.0,0.0,0.0,0.0,0.0,0.0,0.0,0.0,0.0,0.0,0.0,0.0,0.0,-2.5454,-2.5966,-2.6403,-2.6584,-2.6633,-2.655,-2.6528,-2.5746,-2.54,-2.5652,0.0,0.0,0.0,0.0,0.0,0.0,0.0,0.0,0.0,0.0,0.0,0.0,0.0,0.0,0.0,0.0,0.0,0.0,0.0,0.0,0.0,0.0,0.0,0.0,0.0,0.0,0.0,0.0,0.0,0.0,0.0,0.0,0.0,0.0,0.0,0.0,0.0,0.0,0.0,0.0,0.0,0.0,0.0,0.0,0.0,0.0,0.0,0.0,0.0,0.0,0.0,0.0,0.0,0.0,0.0,0.0,0.0,0.0,0.0,0.0,0.0,0.0,0.0,0.0,0.0,0.0,0.0,0.0,0.0,0.0,0.0,0.0,0.0,0.0,0.0,0.0,0.0,0.0,0.0,0.0,0.0,0.0,0.0,0.0,0.0,0.0,0.0,0.0,0.0,0.0,0.0,0.0,0.0,0.0,0.0,0.0,0.0,0.0,0.0,0.0,0.0,0.0,-2.6963,-2.6929,-2.7103,-2.7767,-2.747,-2.7386,-2.7733,-2.7195,-2.6757,-2.6652,0.0,0.0,0.0,0.0,0.0,0.0,0.0,0.0,0.0,0.0,0.0,0.0,0.0,0.0,0.0,0.0,0.0,0.0,0.0,0.0,0.0,0.0,0.0,0.0,0.0,0.0,0.0,0.0,0.0,0.0,0.0,0.0,0.0,0.0,0.0,0.0,0.0,0.0,0.0,0.0,0.0,0.0,0.0,0.0,0.0,0.0,0.0,0.0,0.0,0.0,0.0,0.0,0.0,0.0,0.0,0.0,0.0,0.0,0.0,0.0,0.0,0.0,0.0,0.0,0.0,0.0,0.0,0.0,0.0,0.0,0.0,0.0,0.0,0.0,0.0,0.0,0.0,0.0,0.0,0.0,0.0,0.0,0.0,0.0,0.0,0.0,0.0,0.0,0.0,0.0,0.0,0.0,0.0,0.0,0.0,0.0,0.0,0.0,0.0,0.0,0.0,0.0,-2.8626,-2.7854,-2.7778,-2.8614,-2.7897,-2.7722,-2.8614,-2.8654,-2.8448,-2.8012,0.0,0.0,0.0,0.0,0.0,0.0,0.0,0.0,0.0,0.0,0.0,0.0,0.0,0.0,0.0,0.0,0.0,0.0,0.0,0.0,0.0,0.0,0.0,0.0,0.0,0.0,0.0,0.0,0.0,0.0,0.0,0.0,0.0,0.0,0.0,0.0,0.0,0.0,0.0,0.0,0.0,0.0,0.0,0.0,0.0,0.0,0.0,0.0,0.0,0.0,0.0,0.0,0.0,0.0,0.0,0.0,0.0,0.0,0.0,0.0,-2.1365,0.0,0.0,0.0,0.0,0.0,0.0,0.0,0.0,0.0,0.0,0.0,0.0,0.0,0.0,0.0,0.0,0.0,0.0,0.0,0.0,0.0,0.0,0.0,0.0,0.0,0.0,0.0,0.0,0.0,0.0,0.0,0.0,0.0,0.0,0.0,0.0,0.0,0.0,0.0,0.0,0.0,-2.7789,-2.8442,-2.8896,-2.8746,-2.8528,-2.8441,-2.87,-2.8356,-2.8092,-2.7989,0.0,0.0,0.0,0.0,0.0,0.0,0.0,0.0,0.0,0.0,0.0,0.0,0.0,0.0,0.0,0.0,0.0,0.0,0.0,0.0,0.0,0.0,0.0,0.0,0.0,0.0,0.0,0.0,0.0,0.0,0.0,0.0,0.0,0.0,0.0,0.0,0.0,0.0,0.0,0.0,0.0,0.0,0.0,0.0,0.0,0.0,0.0,0.0,0.0,0.0,0.0,0.0,0.0,0.0,0.0,0.0,0.0,0.0,0.0,0.0,0.0,-2.1275,0.0,0.0,0.0,0.0,0.0,0.0,0.0,0.0,0.0,0.0,0.0,0.0,0.0,0.0,0.0,0.0,0.0,0.0,0.0,0.0,0.0,0.0,0.0,0.0,0.0,0.0,0.0,0.0,0.0,0.0,0.0,0.0,0.0,0.0,0.0,0.0,0.0,0.0,0.0,0.0,-2.8835,-2.8936,-2.9105,-2.9049,-2.8618,-2.8429,-2.8712,-2.8471,-2.823,-2.8,-2.7736,0.0,0.0,0.0,0.0,0.0,0.0,0.0,0.0,0.0,0.0,0.0,0.0,0.0,0.0,0.0,0.0,0.0,0.0,0.0,0.0,0.0,0.0,0.0,0.0,0.0,0.0,0.0,0.0,0.0,0.0,0.0,0.0,0.0,0.0,0.0,0.0,0.0,0.0,0.0,0.0,0.0,0.0,0.0,0.0,0.0,0.0,0.0,0.0,0.0,0.0,0.0,0.0,0.0,0.0,-1.7023,-1.8788,-1.9155,-2.0167,-2.1651,-2.0898,-2.0997,-2.1741,0.0,0.0,0.0,0.0,0.0,0.0,0.0,0.0,0.0,0.0,0.0,0.0,0.0,0.0,0.0,0.0,0.0,0.0,0.0,0.0,0.0,0.0,0.0,0.0,0.0,-2.2697,-2.3306,0.0,0.0,0.0,0.0,0.0,0.0,0.0,0.0,0.0,0.0,0.0,0.0,-2.9952,-2.9216,-2.8878,-2.9312,-2.8612,-2.8255,-2.8648,-2.862,-2.8402,-2.8,-2.7897,-2.7667,0.0,0.0,0.0,0.0,0.0,0.0,0.0,0.0,0.0,0.0,0.0,0.0,0.0,0.0,0.0,0.0,0.0,0.0,0.0,0.0,0.0,0.0,0.0,0.0,0.0,0.0,0.0,0.0,0.0,0.0,0.0,0.0,-1.1678,-1.1858,0.0,0.0,0.0,0.0,0.0,0.0,0.0,0.0,0.0,0.0,0.0,0.0,0.0,0.0,-1.5083,-1.5178,-1.5267,-1.554,-1.7196,-1.8311,-1.888,-2.0538,-2.1463,-2.1731,-2.1553,0.0,-2.1741,-2.1741,0.0,0.0,0.0,0.0,0.0,0.0,0.0,0.0,0.0,0.0,0.0,0.0,0.0,0.0,0.0,0.0,0.0,0.0,0.0,0.0,0.0,0.0,-2.3967,-2.2097,-2.1866,-2.1974,0.0,-2.3193,-2.484,-2.557,0.0,0.0,0.0,0.0,0.0,0.0,0.0,0.0,-2.8896,-2.8809,-2.8699,-2.8815,-2.8717,-2.8596,-2.87,-2.8322,-2.8046,-2.7989,-2.7564,-2.73,-2.7231,-2.7231,0.0,0.0,0.0,0.0,0.0,0.0,0.0,0.0,0.0,0.0,0.0,0.0,0.0,0.0,0.0,0.0,0.0,0.0,0.0,0.0,0.0,0.0,0.0,0.0,0.0,0.0,0.0,0.0,0.0,-1.2155,-1.3516,-1.216,-1.3227,-1.4202,0.0,0.0,0.0,0.0,0.0,0.0,0.0,0.0,0.0,-1.4496,-1.4592,-1.4688,-1.4688,-1.479,-1.4885,-1.507,-1.6459,-1.7662,-1.8588,-2.0076,-2.1096,-2.1741,-2.1741,-2.1741,-2.1741,-2.1741,-2.1741,-2.1741,0.0,0.0,0.0,0.0,0.0,-2.1768,-2.2078,0.0,0.0,0.0,0.0,0.0,0.0,0.0,0.0,0.0,0.0,0.0,0.0,0.0,0.0,-2.2677,-2.2853,-2.3367,-2.3867,-2.4723,-2.5326,0.0,-2.5667,-2.6157,-2.6157,0.0,0.0,0.0,0.0,0.0,-2.87,-2.87,-2.8597,-2.8322,-2.8299,-2.8184,-2.7897,-2.7679,-2.7564,-2.7564,-2.7346,-2.7231,-2.7231,-2.7231,-2.7231,0.0,0.0,0.0,0.0,0.0,0.0,0.0,0.0,0.0,0.0,0.0,0.0,0.0,0.0,0.0,0.0,0.0,0.0,0.0,0.0,0.0,0.0,0.0,0.0,0.0,0.0,0.0,0.0,-1.2441,-1.4004,-1.236,-1.313,-1.4004,0.0,0.0,0.0,0.0,0.0,0.0,-1.4298,-1.4298,-1.4298,-1.4298,-1.449,-1.4496,-1.4298,-1.4496,-1.4592,-1.4688,-1.5994,-1.7203,-1.8303,-1.9704,-2.0727,-2.1651,-2.1651,-2.1741,-2.1741,-2.1741,-2.1741,-2.1741,-2.1741,-2.1741,-2.1741,-2.1741,-2.1741,-2.1777,-2.2071,-2.2625,-2.3246,-2.3504,0.0,-2.4321,-2.503,0.0,0.0,0.0,0.0,-2.4829,-2.3193,0.0,-2.3694,-2.3531,-2.3973,-2.4573,-2.5062,-2.5316,-2.5242,0.0,-2.4988,-2.5495,-2.5495,0.0,0.0,0.0,0.0,-2.8322,-2.8322,-2.8322,-2.8184,-2.7828,-2.7793,-2.7633,-2.7254,-2.7231,-2.7231,-2.7231,-2.7231,-2.7231,-2.7231,-2.7231,-2.7231,-2.7231,0.0,0.0,0.0,0.0,0.0,0.0,0.0,0.0,0.0,0.0,0.0,0.0,0.0,0.0,0.0,0.0,0.0,0.0,0.0,0.0,0.0,0.0,0.0,0.0,0.0,0.0,0.0,0.0,0.0,-1.2635,-1.3806,0.0,0.0,0.0,0.0,-1.4298,-1.4298,-1.4298,-1.4298,-1.4298,-1.4298,-1.4298,-1.4298,-1.4298,-1.4298,-1.4298,-1.449,-1.4688,-1.6734,-1.7747,-1.8126,-2.0275,-2.1392,-2.1392,-2.1651,-2.1741,-2.1741,-2.1741,-2.1741,-2.1741,-2.1741,-2.1741,-2.1741,-2.1741,-2.1741,-2.1741,-2.1759,-2.1768,-2.1937,-2.2872,-2.4327,-2.5863,-2.6798,-2.7056,0.0,0.0,-2.7056,-2.6798,-2.583,-2.5652,-2.5495,-2.4659,-2.4498,-2.4231,-2.3444,-2.3963,-2.4573,0.0,-2.4498,-2.4584,-2.4584,0.0,-2.6218,-2.7008,-2.7206,-2.73,-2.73,-2.73,-2.73,-2.7265,-2.7265,-2.7254,-2.7231,-2.7231,-2.7231,-2.7231,-2.7231,-2.7231,-2.7231,-2.7231,-2.7231,-2.7231,-2.7231,0.0,0.0,0.0,0.0,0.0,0.0,0.0,0.0,0.0,0.0,0.0,0.0,0.0,0.0,0.0,0.0,0.0,0.0,0.0,0.0,0.0,0.0,0.0,0.0,0.0,0.0,0.0,0.0,-1.2926,-1.4004,0.0,0.0,-1.4496,-1.4394,-1.4298,-1.4298,-1.4298,-1.4298,-1.4298,-1.4298,-1.4298,-1.4298,-1.4298,-1.4298,-1.4298,-1.4394,-1.449,-1.6445,-1.7662,-1.8033,-2.0085,-2.1114,-2.1392,-2.1482,-2.1482,-2.1482,-2.1651,-2.1741,-2.1741,-2.1741,-2.1741,-2.1741,-2.1741,-2.1741,-2.1741,-2.1741,-2.2078,-2.2677,-2.3008,-2.3521,-2.4125,-2.4467,-2.4135,-2.3887,-2.5094,-2.4999,-2.4467,-2.4114,-2.4467,-2.4914,-2.4584,-2.4914,-2.5411,-2.5673,-2.603,-2.603,-2.5411,-2.5326,-2.5326,-2.5326,-2.6102,-2.6787,-2.7149,-2.7231,-2.7231,-2.7231,-2.7231,-2.7231,-2.7231,-2.7231,-2.7231,-2.7231,-2.7231,-2.7231,-2.7231,-2.7231,-2.7231,-2.7231,-2.7231,-2.7231,-2.7231,-2.7231,-2.7219,0.0,0.0,0.0,0.0,0.0,0.0,0.0,0.0,0.0,0.0,0.0,0.0,0.0,0.0,0.0,0.0,0.0,0.0,0.0,0.0,0.0,0.0,0.0,0.0,0.0,0.0,-1.2732,-1.3216,-1.4004,-1.4496,-1.4394,-1.4394,-1.4298,-1.4298,-1.4298,-1.4298,-1.4298,-1.4298,-1.4298,-1.4298,-1.4298,-1.4298,-1.4298,-1.4298,-1.4484,-1.486,-1.6546,-1.7669,-1.8319,-1.9994,-2.0925,-2.1293,-2.1293,-2.1302,-2.1392,-2.1463,-2.1454,-2.1454,-2.1642,-2.1741,-2.1741,-2.1741,-2.1741,-2.1741,-2.1741,-2.2325,-2.3096,-2.3096,-2.327,-2.3531,-2.3531,-2.3105,-2.2853,-2.4155,-2.4221,-2.4039,-2.4039,-2.4734,-2.5432,-2.5432,-2.5852,-2.6351,-2.6704,-2.6704,-2.6445,-2.5495,-2.5579,-2.5819,-2.5819,-2.6351,-2.688,-2.7149,-2.7231,-2.7231,-2.7231,-2.7231,-2.7231,-2.7231,-2.7231,-2.7231,-2.7231,-2.7231,-2.7231,-2.7231,-2.7231,-2.7231,-2.7231,-2.7231,-2.7231,-2.7231,-2.7231,-2.7231,-2.7231,0.0,0.0,0.0,0.0,0.0,0.0,0.0,0.0,0.0,0.0,0.0,0.0,0.0,0.0,0.0,0.0,0.0,0.0,0.0,0.0,0.0,0.0,0.0,-1.0448,-1.1086,-1.215,-1.3414,-1.3908,-1.4394,-1.4688,-1.4394,-1.4292,-1.4298,-1.4298,-1.4298,-1.4298,-1.4298,-1.4298,-1.4298,-1.4298,-1.4298,-1.4298,-1.4298,-1.4765,-1.5798,-1.6828,-1.7855,-1.8888,-2.0093,-2.0826,-2.0997,-2.0997,-2.1105,-2.1392,-2.1096,-2.0997,-2.1087,-2.1553,-2.1651,-2.1651,-2.1741,-2.1741,-2.1741,-2.1741,-2.2334,-2.3096,-2.3096,-2.3704,-2.4498,-2.4498,-2.4498,-2.4498,-2.4498,-2.5168,-2.5819,-2.5735,-2.6445,-2.7231,-2.7149,-2.7149,-2.6962,-2.5997,-2.583,-2.5579,-2.4744,-2.5242,-2.5819,-2.583,-2.583,-2.6174,-2.7056,-2.7231,0.0,-2.7231,-2.7231,-2.7231,-2.7231,-2.7231,-2.7231,-2.7231,-2.7231,-2.7231,-2.7231,-2.7231,-2.7231,-2.7231,-2.7231,-2.7231,-2.7231,-2.7231,-2.7231,-2.7231,0.0,0.0,0.0,0.0,0.0,0.0,0.0,0.0,0.0,0.0,0.0,0.0,0.0,0.0,0.0,0.0,0.0,0.0,0.0,0.0,0.0,0.0,-1.0571,-1.1316,-1.1958,-1.2829,-1.3908,-1.3511,-1.3511,-1.4298,-1.3516,-1.3227,-1.3925,-1.4027,-1.4027,-1.4027,-1.4202,-1.4298,-1.4298,-1.4298,-1.4298,-1.4298,-1.4298,-1.4765,-1.5798,-1.6828,-1.7948,-1.9155,-2.0002,-2.0564,-2.0736,-2.0736,-2.0916,-2.1096,-2.1203,-2.1383,-2.1553,-2.1472,-2.1482,-2.1482,-2.1651,-2.1741,-2.1741,-2.1741,-2.1909,-2.2069,-2.2069,-2.2677,-2.3444,-2.3444,-2.3973,-2.4498,-2.4498,-2.5168,-2.5652,-2.4988,-2.603,-2.7056,-2.6351,-2.6704,-2.7138,-2.688,-2.6798,-2.6704,-2.6456,-2.6622,-2.661,-2.5913,-2.6351,-2.688,-2.7149,-2.7231,0.0,-2.7231,-2.7231,-2.7231,-2.7231,-2.7231,-2.7231,-2.7231,-2.7231,-2.7231,-2.7231,-2.7231,-2.7231,-2.7231,-2.7231,-2.7231,-2.7231,-2.7231,-2.7301,0.0,0.0,0.0,0.0,0.0,0.0,0.0,0.0,0.0,0.0,0.0,0.0,0.0,0.0,0.0,0.0,0.0,0.0,0.0,0.0,0.0,0.0,-0.9989,-1.0861,-1.1454,-1.2227,-1.2926,-1.3516,-1.3511,-1.3414,-1.3516,-1.3227,-1.3238,-1.3835,-1.3931,-1.3931,-1.4022,-1.4202,-1.4298,-1.4298,-1.4298,-1.4298,-1.4298,-1.4298,-1.4765,-1.5798,-1.6828,-1.7948,-1.9063,-1.9911,-2.0473,0.0,-2.0564,-2.0645,-2.0916,-2.0925,-2.1024,0.0,0.0,0.0,0.0,0.0,-2.1741,-2.1731,-2.2157,-2.2334,-2.2334,-2.2775,-2.328,-2.3704,-2.3704,-2.379,-2.3973,-2.4402,-2.4563,-2.4723,-2.4988,-2.5852,-2.661,-2.6434,-2.6798,-2.7231,-2.7231,-2.7231,-2.7231,-2.7231,0.0,0.0,-2.6445,-2.688,-2.7231,-2.7231,-2.7231,-2.7231,-2.7231,-2.7231,-2.7231,-2.7231,-2.7231,-2.7231,-2.7231,-2.7231,0.0,0.0,0.0,-2.7231,-2.7231,-2.7231,0.0,0.0,0.0,-2.7219,-2.7371,0.0,0.0,0.0,-2.818,-2.8243,0.0,0.0,0.0,0.0,0.0,0.0,0.0,0.0,0.0,0.0,0.0,0.0,0.0,0.0,0.0,0.0,-1.0025,-1.0979,-1.0979,-1.1853,-1.2533,-1.2727,-1.3414,-1.3516,-1.2538,-1.3141,-1.3738,-1.3835,-1.3835,-1.4022,-1.4202,0.0,0.0,0.0,0.0,-1.4298,-1.4298,-1.4298,-1.486,-1.5988,-1.6828,-1.7855,-1.898,-1.9911,-2.0473,-2.0654,-2.0382,-2.0473,-2.0654,-2.0473,-2.0382,-2.0464,-2.1284,-2.1642,-2.1741,-2.1741,-2.1741,0.0,0.0,0.0,0.0,-2.4059,-2.4488,-2.4669,-2.4669,-2.4049,-2.3531,-2.4317,-2.3887,-2.3617,-2.5231,-2.5746,-2.5997,-2.6974,-2.7231,-2.7231,-2.7231,-2.7231,-2.7231,-2.7231,-2.7231,-2.7231,-2.7231,-2.7231,-2.7231,-2.7231,-2.7231,-2.7231,-2.7231,-2.7231,-2.7231,-2.7231,0.0,0.0,-2.7231,-2.7231,-2.7231,-2.7231,-2.7231,-2.7231,-2.7231,-2.7231,-2.7231,-2.7231,-2.7231,-2.7231,-2.7231,-2.7231,-2.7822,-2.8905,-2.813,-2.8187,0.0,0.0,0.0,0.0,0.0,0.0,0.0,0.0,0.0,0.0,0.0,0.0,0.0,0.0,0.0,-0.8681,-0.9334,-0.9899,-0.9899,-1.0779,-1.1755,-1.2635,-1.195,-1.176,-1.2344,-1.236,-1.2662,-1.3539,-1.3738,-1.3835,-1.3636,-1.401,0.0,-1.4027,-1.4208,-1.4298,-1.4298,-1.4298,-1.5235,-1.7016,0.0,0.0,-2.0011,-2.0201,-2.0292,-2.0382,-2.0292,-2.0473,-2.0744,-2.0654,-2.0736,-2.0907,-2.1087,-2.1365,-2.1741,-2.1741,-2.1741,-2.1731,-2.1909,-2.2501,-2.3096,-2.327,-2.4382,-2.5568,-2.5568,-2.54,0.0,-2.4659,-2.4402,-2.4317,-2.4659,-2.5242,-2.5997,-2.6974,-2.7231,-2.7231,-2.7231,-2.7231,-2.7231,-2.7231,-2.7231,-2.7231,-2.7231,-2.7231,-2.7231,-2.7231,-2.7231,-2.7231,-2.7231,-2.7231,-2.7231,-2.7231,-2.7231,-2.7231,-2.7231,-2.7231,-2.7231,-2.7231,-2.7231,-2.7231,-2.7231,-2.7231,-2.7231,-2.7231,-2.7231,-2.7231,-2.7231,-2.7231,-2.7405,-2.7771,-2.796,-2.87,0.0,0.0,0.0,0.0,0.0,0.0,0.0,0.0,0.0,0.0,0.0,-0.9093,0.0,0.0,-0.8449,-0.8365,-0.9076,-0.9509,-0.941,-0.9899,-1.0391,-1.0877,-1.0877,-1.0877,-1.117,-1.1668,-1.236,-1.3249,-1.3539,-1.3636,-1.3539,-1.3925,-1.4022,-1.3738,-1.4112,-1.4202,-1.4118,-1.4202,-1.4765,-1.5798,-1.6828,-1.7855,-1.8796,-1.982,-2.0292,-2.0292,-2.0292,-2.0382,-2.0473,-2.0473,-2.0645,-2.0826,-2.0826,-2.1105,-2.1562,-2.1651,-2.1741,-2.1731,-2.2246,-2.2668,-2.327,-2.4114,-2.5052,-2.5913,-2.6351,-2.6174,-2.583,-2.5852,-2.5179,-2.4669,-2.5611,-2.5841,-2.5997,-2.6974,-2.7231,-2.7231,-2.7231,-2.7231,-2.7231,-2.7231,-2.7231,-2.7231,-2.7231,-2.7231,-2.7231,-2.7231,-2.7231,-2.7231,-2.7231,-2.7231,-2.7231,-2.7231,-2.7231,-2.7231,-2.7231,-2.7231,-2.7231,-2.7231,-2.7231,-2.7231,-2.7231,-2.7231,-2.7231,-2.7231,-2.7231,-2.7231,-2.7231,-2.6967,-2.7034,-2.7382,-2.7366,-2.7779,0.0,0.0,0.0,0.0,0.0,0.0,0.0,0.0,-0.948,-0.9242,-0.8916,-0.8667,-0.8551,-0.8428,-0.8184,-0.8058,-0.8726,-0.9118,-0.892,-0.8924,-0.8821,-0.8821,-0.9801,-1.0293,-1.0096,-1.1272,-1.2355,-1.3147,-1.3346,-1.3539,-1.3539,-1.3738,-1.3738,-1.3539,-1.4016,-1.4112,-1.4027,-1.4202,-1.4388,-1.4573,-1.6452,-1.739,-1.7669,-1.9446,-2.0292,-2.0292,-2.0292,-2.0292,-2.0292,-2.0292,-2.0473,-2.0654,-2.0654,-2.0934,-2.1302,-2.1562,-2.1651,-2.182,-2.2589,-2.2931,-2.3357,-2.4798,-2.54,-2.5746,-2.6622,-2.6268,-2.5746,-2.6704,-2.5768,-2.484,-2.6539,-2.6351,-2.5997,-2.6974,-2.7231,-2.7231,-2.7231,-2.7231,-2.7231,-2.7231,-2.7231,-2.7231,-2.7231,-2.7231,-2.7231,-2.7231,-2.7231,-2.7231,-2.7231,-2.7231,-2.7231,-2.7231,-2.7231,-2.7231,-2.7231,-2.7231,-2.7231,-2.7231,-2.7231,-2.7231,-2.7231,-2.7231,-2.7231,-2.7231,-2.7231,-2.7185,-2.7082,-2.6668,-2.6674,-2.6907,-2.6576,-2.66,-0.8984,-0.94,-0.9509,-0.9615,-0.9526,-0.9357,0.0,0.0,-0.866,-0.8216,-0.8089,-0.8082,-0.8069,-0.8065,-0.8058,-0.8041,-0.7942,-0.7842,-0.7743,-0.7743,-0.7643,-0.7437,-0.8326,-0.941,-1.0293,-1.138,-1.2365,-1.3346,-1.3443,-1.3539,-1.3539,-1.3539,-1.3636,-1.3835,-1.3931,-1.4022,-1.4298,-1.4298,-1.4765,-1.5609,-1.6734,-1.7762,-1.8696,-1.982,-2.0292,-2.0292,-2.0292,-2.0292,-2.0292,-2.0292,-2.0292,-2.0382,-2.0654,-2.0744,-2.0835,-2.1302,-2.1571,-2.1741,-2.182,-2.2413,-2.3096,-2.3357,-2.3963,-2.4829,-2.5663,-2.5326,-2.4829,-2.5746,-2.5242,-2.4744,-2.5663,-2.5913,-2.5997,-2.6974,-2.7231,-2.7231,-2.7231,-2.7231,-2.7231,-2.7231,-2.7231,-2.7231,-2.7231,-2.7231,-2.7231,-2.7231,-2.7231,-2.7231,-2.7231,-2.7231,-2.7231,-2.7231,-2.7231,-2.7231,-2.7231,-2.7231,-2.7231,-2.7231,-2.7231,-2.7231,-2.7231,-2.7231,-2.7231,-2.7231,-2.7231,-2.7001,-2.6554,-2.6496,-2.6069,-2.5159,-2.5651,-2.6481,-0.8535,-0.8984,-0.9338,0.0,-0.9086,-0.8899,-0.846,-0.8485,-0.8414,-0.8052,-0.8038,-0.8038,-0.8038,-0.7842,-0.7842,0.0,-0.7743,-0.7646,-0.7646,-0.7646,-0.7444,-0.7042,-0.7537,-0.8524,-0.9998,-1.0592,-1.1477,-1.2953,-1.3249,-1.3249,-1.3055,-1.3249,-1.3346,-1.3443,-1.3738,-1.3931,-1.4118,-1.4202,-1.4484,-1.4956,-1.5988,-1.6922,-1.7948,-1.898,-1.9729,-2.0292,-2.0292,-2.0292,-2.0292,-2.0292,-2.0292,-2.0292,-2.0382,-2.0564,-2.0744,-2.1212,-2.1482,-2.1571,-2.1651,-2.1989,-2.2422,-2.2921,-2.3357,-2.3877,-2.4734,-2.4829,-2.4659,-2.5568,-2.5579,-2.5505,-2.6362,-2.661,-2.6704,-2.7138,-2.7231,-2.7231,-2.7231,-2.7231,-2.7231,-2.7231,-2.7231,-2.7231,-2.7231,-2.7231,-2.7231,-2.7231,-2.7231,-2.7231,-2.7231,-2.7231,-2.7231,-2.7231,-2.7231,-2.7231,-2.7231,-2.7231,-2.7231,-2.7231,-2.7231,-2.7231,-2.7231,-2.7231,-2.7231,-2.7231,-2.7231,-2.6978,-2.6462,-2.6175,-2.58,-2.5444,-2.5721,-2.6288,-0.8432,-0.8733,0.0,-0.873,-0.8627,-0.8531,-0.8333,-0.8333,-0.8233,-0.8038,-0.8038,-0.7942,-0.7942,-0.7743,-0.7743,-0.7842,-0.7746,-0.7646,-0.7646,-0.7543,-0.7344,-0.6942,-0.7238,-0.8226,-0.9801,-0.9998,-1.0788,-1.2759,-1.2953,-1.2953,-1.2861,-1.2953,-1.3147,-1.3346,-1.3642,-1.3835,-1.4027,-1.4208,-1.4298,-1.4298,-1.533,-1.6358,-1.7382,-1.8603,-1.9637,-2.0292,-2.0292,-2.0292,-2.0292,-2.0292,-2.0292,-2.0292,-2.0292,-2.0382,-2.0654,-2.1024,-2.1203,-2.1293,-2.1562,-2.1651,-2.1741,-2.2501,-2.2668,-2.2931,-2.38,-2.4145,-2.4317,-2.5158,-2.5568,-2.5997,-2.6622,-2.6974,-2.7231,-2.7231,-2.7231,-2.7231,-2.7231,-2.7231,-2.7231,-2.7231,-2.7231,-2.7231,-2.7231,-2.7231,-2.7231,-2.7231,-2.7231,-2.7231,-2.7231,-2.7231,-2.7231,-2.7231,-2.7231,-2.7231,-2.7231,-2.7231,-2.7231,-2.7231,-2.7231,-2.7231,-2.7231,-2.7231,-2.7231,-2.7231,-2.6919,-2.6691,-2.6255,-2.5673,-2.5385,-2.5392,-2.5705,-2.6139,-0.8726,0.0,-0.8432,-0.8432,-0.8237,-0.8038,-0.8041,-0.8038,-0.8038,-0.8038,-0.8038,-0.7942,-0.7643,-0.7842,-0.7942,-0.7646,-0.7646,-0.7646,-0.7646,-0.7341,-0.7238,-0.7238,-0.7836,-0.8825,0.0,-0.9998,-1.0886,-1.2953,-1.2958,-1.2861,-1.305,-1.2953,-1.3152,-1.3835,-1.3642,-1.3727,-1.4298,-1.4298,-1.4298,-1.4298,-1.533,-1.6358,-1.739,-1.9355,-2.0292,-2.0292,-2.0292,-2.0292,-2.0292,-2.0292,-2.0292,-2.0292,-2.0292,-2.0292,-2.0382,-2.0654,-2.0826,-2.1087,-2.1302,-2.1392,-2.1482,-2.1651,-2.1731,-2.1909,-2.2843,-2.3096,-2.3357,-2.4317,-2.5158,-2.583,-2.583,-2.6528,-2.7231,-2.7231,-2.7231,-2.7231,-2.7231,-2.7231,-2.7231,-2.7231,-2.7231,-2.7231,-2.7231,-2.7231,-2.7231,-2.7231,-2.7231,-2.7231,-2.7231,-2.7231,-2.7231,-2.7231,-2.7231,-2.7231,-2.7231,-2.7231,-2.7231,-2.7231,-2.7231,-2.7231,-2.7231,-2.7231,-2.7231,-2.7231,-2.6404,-2.5837,-2.5739,-2.483,-2.4408,-2.4296,-2.5382,-2.5931,-0.8237,0.0,-0.8333,-0.8137,-0.8038,-0.8038,-0.8038,-0.8038,-0.8038,-0.8038,-0.8038,-0.7942,-0.7842,-0.7842,-0.7743,-0.7842,-0.754,-0.7441,-0.7547,-0.7341,-0.7138,-0.6942,-0.7141,0.0,0.0,0.0,0.0,-1.2759,-1.2861,-1.2861,-1.2861,-1.2958,-1.3147,-1.3636,-1.3738,-1.3925,-1.4298,-1.4298,-1.4298,-1.4298,-1.5981,-1.7016,-1.739,-1.9355,-2.0292,-2.0292,-2.0292,-2.0292,-2.0292,-2.0292,-2.0292,-2.0292,-2.0292,-2.0292,-2.0292,-2.0382,-2.0464,-2.0645,-2.1203,-2.1392,-2.1392,-2.1651,-2.1741,-2.1731,-2.2078,-2.2157,-2.2334,-2.328,-2.378,-2.4286,-2.5484,-2.5997,-2.6268,-2.6268,-2.6268,-2.6268,-2.6268,-2.6268,-2.6445,-2.7056,-2.7231,-2.7231,-2.7231,-2.7231,-2.7231,-2.7231,-2.7231,-2.7231,-2.7231,-2.6962,-2.6704,-2.6704,-2.6704,-2.6704,-2.6704,-2.6704,-2.688,-2.7149,-2.6655,-2.6573,-2.7149,-2.688,-2.6721,-2.6726,-2.6474,-2.5959,-2.5187,-2.4853,-2.4733,-2.4743,-2.5158,-2.5721,-0.8038,-0.8137,-0.8237,-0.8038,-0.8038,-0.8038,-0.8038,-0.8038,-0.8038,-0.8038,-0.8038,-0.7942,-0.7842,-0.7743,-0.7646,-0.7842,-0.754,-0.7441,-0.7547,-0.7444,-0.7241,-0.6842,-0.7141,0.0,0.0,0.0,0.0,-1.2764,-1.2764,-1.2764,-1.2764,-1.2958,-1.3244,-1.3443,-1.3738,-1.4022,-1.4298,-1.4298,-1.4298,-1.4298,-1.6358,-1.7296,-1.739,-1.9355,-2.0292,-2.0292,-2.0292,-2.0292,-2.0292,-2.0292,-2.0292,-2.0292,-2.0292,-2.0292,-2.0292,-2.0292,-2.0292,-2.0382,-2.0934,-2.1203,-2.1293,-2.1562,-2.1651,-2.1741,-2.1741,-2.1741,-2.182,-2.2413,-2.2843,-2.3347,-2.4542,-2.5062,-2.5326,-2.5326,-2.5326,-2.5326,-2.5326,-2.5326,-2.5505,-2.6113,-2.6456,-2.6704,-2.6704,-2.6974,-2.7231,-2.7231,-2.7231,-2.7231,-2.7231,-2.6962,-2.6787,-2.6787,-2.6787,-2.6787,-2.6787,-2.6787,-2.6787,-2.6962,-2.6561,-2.6561,-2.6962,-2.6798,-2.6642,-2.6473,-2.6211,-2.5618,-2.4912,-2.4591,-2.4549,-2.4743,-2.4945,-2.5511,-0.8038,-0.8038,-0.8038,-0.8038,-0.8038,-0.8038,-0.8038,-0.8038,-0.8038,-0.8038,-0.8038,-0.7942,0.0,0.0,-0.7646,-0.7646,-0.7547,-0.7547,-0.7547,-0.7547,-0.7344,0.0,0.0,0.0,0.0,0.0,0.0,-1.2764,0.0,-1.2764,-1.2764,-1.305,-1.3244,-1.3539,-1.3738,-1.4022,-1.4298,-1.4298,-1.4298,-1.4298,-1.6264,-1.7296,-1.739,-1.9355,-2.0292,-2.0292,-2.0292,-2.0292,-2.0292,-2.0292,-2.0292,-2.0292,-2.0292,-2.0292,-2.0292,-2.0292,-2.0292,-2.0382,-2.0564,-2.0826,-2.0997,-2.1293,-2.1562,-2.1651,-2.1741,-2.1741,-2.1741,-2.1651,-2.2325,-2.3008,-2.3096,-2.3714,-2.4413,-2.4413,-2.4413,-2.4413,-2.4413,-2.4413,-2.4402,-2.4498,-2.5242,-2.5819,-2.5819,-2.661,-2.7231,-2.7149,-2.7149,-2.7231,-2.7231,-2.7149,-2.7149,-2.7149,-2.7149,-2.7149,-2.7149,-2.7149,-2.6962,-2.6528,-2.688,-2.6962,-2.6528,-2.694,-2.6955,-2.6439,-2.5531,-2.5023,-2.4877,-2.4039,-2.3824,-2.42,-2.4743,-2.53,-0.7939,-0.8038,-0.8038,-0.8038,-0.8038,-0.8038,-0.8038,-0.8038,-0.8038,-0.8038,-0.8038,-0.7942,0.0,0.0,0.0,-0.7646,-0.7244,0.0,-0.7045,-0.6839,0.0,-0.6539,0.0,-0.763,-0.941,-0.9805,0.0,0.0,-1.2764,-1.2861,-1.305,-1.3249,-1.3539,-1.3835,-1.4016,-1.4202,-1.4298,-1.4298,-1.4298,-1.4298,-1.5609,-1.6546,-1.7382,-1.8603,-1.9629,-2.0292,-2.0292,-2.0292,-2.0292,-2.0292,-2.0292,-2.0292,-2.0292,-2.0292,-2.0292,-2.0292,-2.0292,-2.0292,-2.0382,-2.0564,-2.0835,-2.1293,-2.1392,-2.1482,-2.1651,-2.1741,-2.1651,-2.1482,-2.1741,-2.2157,-2.2658,-2.3086,-2.3444,-2.3444,-2.3444,-2.3444,-2.3444,-2.3444,-2.3617,-2.4317,-2.5242,-2.5819,-2.5819,-2.661,-2.7056,-2.6704,-2.6974,-2.7231,-2.7231,-2.688,-2.6704,-2.6704,-2.6385,-2.6229,-2.6229,-2.5884,-2.5957,-2.6445,-2.603,-2.6124,-2.6974,-2.6447,-2.6098,-2.5911,-2.5306,-2.4791,-2.4372,-2.4185,-2.4127,-2.42,-2.4334,-2.4957,-0.7942,-0.8038,-0.8038,-0.8038,-0.8038,-0.8038,-0.8038,-0.8038,-0.8038,-0.8038,-0.7942,0.0,-0.7842,0.0,0.0,0.0,0.0,0.0,-0.6845,-0.6739,-0.6637,0.0,-0.6537,0.0,-0.8715,-0.9308,-1.0293,0.0,-1.2559,-1.2861,-1.305,-1.3346,-1.3636,-1.3931,-1.4208,-1.4298,-1.4298,-1.4298,-1.4298,-1.4298,-1.5798,-1.6734,-1.739,-1.8788,-1.9729,-2.0292,0.0,-2.0292,-2.0292,-2.0292,-2.0292,-2.0292,-2.0292,-2.0292,-2.0292,-2.0292,-2.0292,-2.0292,-2.0292,-2.0382,-2.0564,-2.0934,-2.1212,-2.1401,-2.1562,-2.1651,-2.1651,-2.1562,-2.1571,-2.1651,-2.2069,-2.2138,-2.2227,-2.2325,-2.2325,-2.2422,-2.2501,-2.2413,-2.2589,-2.3454,-2.3943,-2.4457,-2.4872,-2.5568,-2.6091,-2.583,-2.6279,-2.6727,-2.688,-2.6869,-2.6787,-2.6787,-2.6644,-2.649,-2.649,-2.6218,-2.6207,-2.6445,-2.608,-2.598,-2.6318,-2.5926,-2.5587,-2.5153,-2.4846,-2.4534,-2.42,-2.4043,-2.4055,-2.42,-2.42,-2.4826,-0.7935,-0.7942,-0.8038,-0.8038,-0.8038,-0.8038,-0.8038,-0.8038,-0.8038,-0.7939,0.0,-0.7547,-0.7547,-0.7144,-0.6942,-0.7138,0.0,-0.6745,-0.6742,-0.6939,-0.6936,-0.6437,-0.6639,-0.7138,-0.7925,-0.9011,-1.0096,-1.1175,-1.2262,-1.2958,-1.3147,-1.3443,-1.3636,-1.3931,-1.4208,-1.4298,-1.4298,-1.4298,-1.4298,-1.4298,-1.6075,-1.7008,-1.739,-1.9072,-2.0011,-2.0292,0.0,0.0,-2.0292,-2.0292,-2.0292,-2.0292,-2.0292,-2.0292,-2.0283,-2.024,-2.0215,-2.0215,-2.0163,-2.0138,-2.0245,-2.0558,-2.0863,-2.1212,-2.1257,-2.1318,-2.1487,-2.1398,-2.1318,-2.123,-2.115,-2.1034,-2.0935,-2.1141,-2.1239,-2.1248,-2.1471,-2.1436,-2.1553,-2.2138,-2.2306,-2.2648,-2.3501,-2.418,-2.4617,-2.4617,-2.5263,-2.5874,-2.6102,-2.6704,-2.7138,-2.7231,-2.7138,-2.7056,-2.7067,-2.7067,-2.6775,-2.6262,-2.6289,-2.5949,-2.5157,-2.5329,-2.5088,-2.4419,-2.434,-2.4254,-2.42,-2.3824,-2.3824,-2.42,-2.42,-2.4826,-0.771,-0.7842,-0.8038,-0.8038,-0.8038,-0.8038,-0.8038,-0.8038,0.0,0.0,-0.7646,-0.7543,-0.7341,-0.7238,-0.7039,-0.6942,0.0,0.0,0.0,0.0,-0.6537,0.0,0.0,0.0,0.0,0.0,0.0,0.0,0.0,0.0,-1.3443,-1.3636,-1.3925,-1.4202,-1.4298,-1.4298,-1.4298,-1.4298,-1.4298,-1.4298,-1.4675,-1.5704,-1.7296,-1.7669,-1.8696,-2.0292,0.0,0.0,-2.0292,-2.0292,-2.0292,-2.0292,-2.0292,-2.0292,-2.0257,-1.9949,-1.9838,-1.9795,-1.9478,-1.9367,-1.9505,-2.0,-2.028,-2.0307,-2.0146,-2.022,-2.0125,-1.9954,-2.0039,-2.0134,-1.9876,-1.9954,-2.0125,-2.0125,-2.0134,-2.0223,-2.0649,-2.0873,-2.1087,-2.1257,-2.1872,-2.2482,-2.2648,-2.3414,-2.3846,-2.3434,-2.4286,-2.4893,-2.4563,-2.5757,-2.6787,-2.7149,-2.688,-2.6456,-2.6146,-2.6146,-2.5804,-2.4884,-2.5207,-2.515,-2.4664,-2.4327,-2.4182,-2.4408,-2.3929,-2.3903,-2.42,-2.4127,-2.4127,-2.42,-2.42,-2.4826,-0.7707,-0.7882,-0.8038,-0.8038,-0.8038,-0.8038,-0.8038,0.0,0.0,0.0,-0.7347,-0.7144,-0.7042,-0.6839,0.0,0.0,0.0,0.0,0.0,0.0,0.0,0.0,0.0,0.0,0.0,0.0,0.0,0.0,0.0,0.0,-1.3636,-1.3925,-1.4208,-1.4298,-1.4298,-1.4298,-1.4298,-1.4298,-1.4298,-1.4298,-1.486,-1.5893,-1.7296,-1.7855,-1.888,-2.0292,-2.0292,0.0,-2.0275,-2.0086,-2.0009,-1.9992,-1.9787,-1.971,-1.9684,-1.9513,-1.9453,-1.9418,-1.9239,-1.917,-1.917,-1.9316,-1.9531,-1.9748,-1.9727,-1.975,-1.9835,-1.975,-1.9665,-1.9665,-1.9495,-1.9504,-1.9589,-1.9665,-1.9835,-1.9889,-1.9998,-2.0096,-2.0219,-2.0053,-2.0394,-2.0734,-2.0734,-2.1398,-2.1817,-2.1664,-2.2412,-2.3002,-2.3022,-2.394,-2.5142,-2.6423,-2.6068,-2.5749,-2.5513,-2.5295,-2.4962,-2.4551,-2.4473,-2.4312,-2.3837,-2.3525,-2.3415,-2.334,-2.3121,-2.3298,-2.3897,-2.3677,-2.3824,-2.42,-2.42,-2.4826,-0.7697,-0.7801,-0.7997,-0.8031,-0.8038,-0.8038,-0.8038,-0.7842,0.0,0.0,-0.7144,-0.6745,-0.6742,-0.6539,-0.6539,0.0,-0.6639,0.0,0.0,0.0,0.0,0.0,0.0,0.0,0.0,0.0,0.0,0.0,0.0,0.0,0.0,-1.4208,-1.4298,-1.4298,-1.4298,-1.4298,-1.4298,-1.4298,-1.4298,-1.4298,-1.514,-1.5988,-1.7016,-1.7762,-1.8788,-2.0002,-1.9926,0.0,0.0,-1.9769,-1.9615,-1.959,-1.929,-1.917,-1.9162,-1.9076,-1.905,-1.9033,-1.8956,-1.893,-1.8879,-1.8571,-1.8809,-1.9271,-1.9193,-1.9335,-1.9503,-1.9503,-1.9335,-1.9167,-1.9167,-1.9091,-1.9015,-1.9175,-1.9396,-1.9542,-1.9373,-1.9349,-1.9418,-1.9256,-1.917,-1.917,-1.917,-1.9674,-1.9996,-1.9996,-2.0578,-2.1163,-2.1578,-2.2155,-2.3166,-2.4734,-2.4995,-2.5011,-2.493,-2.4661,-2.4399,-2.4064,-2.3852,-2.3437,-2.2956,-2.2821,-2.2628,-2.2402,-2.2478,-2.2852,-2.3593,-2.3372,-2.3593,-2.42,-2.42,-2.4826,-0.7455,-0.7631,-0.7865,-0.8004,-0.8038,-0.8038,-0.8038,0.0,0.0,-0.7238,-0.7042,-0.6742,-0.6437,-0.6639,-0.6742,-0.6845,-0.6942,-0.7039,0.0,0.0,0.0,0.0,0.0,0.0,0.0,0.0,0.0,0.0,0.0,0.0,0.0,-1.4298,-1.4298,-1.4298,-1.4298,-1.4298,-1.4298,-1.4298,-1.4298,-1.4298,-1.4388,-1.4949,-1.5981,-1.5981,-1.7102,-1.8964,0.0,0.0,0.0,-1.9384,-1.923,-1.9222,-1.9187,-1.917,-1.9127,-1.8776,-1.8639,-1.8588,-1.8254,-1.8143,-1.8134,-1.81,-1.834,-1.8579,-1.8245,-1.8143,-1.8134,-1.8134,-1.8143,-1.8143,-1.8143,-1.8143,-1.8143,-1.8143,-1.8482,-1.8723,-1.8723,-1.9006,-1.9256,-1.917,-1.917,-1.917,-1.917,-1.9256,-1.9256,-1.9256,-1.9827,-2.0325,-2.0325,-2.0996,-2.1524,-2.1684,-2.3468,-2.4418,-2.3919,-2.4295,-2.3942,-2.2741,-2.3048,-2.2836,-2.1956,-2.1904,-2.2025,-2.2402,-2.2777,-2.315,-2.3593,-2.3897,-2.4127,-2.42,-2.42,-2.4826,-0.7533,-0.765,-0.7848,-0.8001,-0.8038,-0.7942,-0.7842,0.0,-0.7241,-0.7042,-0.6739,-0.6539,-0.6437,-0.6437,-0.6639,-0.6742,-0.6739,0.0,-0.6745,0.0,0.0,0.0,0.0,0.0,0.0,0.0,0.0,0.0,0.0,0.0,0.0,-1.4298,-1.4298,-1.4298,-1.4298,-1.4298,-1.4298,-1.4298,-1.4298,-1.4298,-1.4298,-1.486,-1.5792,-1.5618,-1.6643,-1.8462,0.0,0.0,0.0,-1.8982,-1.8819,-1.8793,-1.8579,-1.8494,-1.8468,-1.8314,-1.8254,-1.8237,-1.8091,-1.804,-1.804,-1.804,-1.8134,-1.8228,-1.8083,-1.804,-1.804,-1.804,-1.804,-1.804,-1.804,-1.804,-1.804,-1.804,-1.8143,-1.8254,-1.8254,-1.8382,-1.8494,-1.8494,-1.8494,-1.8494,-1.8494,-1.8494,-1.8494,-1.8494,-1.8724,-1.8889,-1.8889,-1.9453,-1.995,-1.995,-2.16,-2.2639,-2.24,-2.2726,-2.265,-2.2087,-2.223,-2.2224,-2.1818,-2.1807,-2.1949,-2.2402,-2.2553,-2.2927,-2.3593,-2.3751,-2.397,-2.42,-2.42,-2.4611,-0.7546,-0.7672,-0.7794,-0.7991,-0.8038,-0.7942,0.0,0.0,-0.7138,-0.6845,-0.6539,-0.6437,-0.6437,-0.6437,-0.6537,-0.6742,-0.6639,-0.6539,-0.6742,0.0,0.0,0.0,0.0,0.0,0.0,0.0,0.0,0.0,0.0,0.0,0.0,-1.41,-1.4298,-1.4298,-1.4298,-1.4298,-1.4298,-1.4298,-1.4298,-1.4298,-1.4298,-1.4632,-1.5194,-1.5,-1.5776,-1.7206,0.0,0.0,0.0,-1.8496,-1.8425,-1.84,-1.8134,-1.804,-1.804,-1.804,-1.804,-1.804,-1.804,-1.804,-1.804,-1.804,-1.804,-1.804,-1.804,-1.804,-1.804,-1.804,-1.804,-1.804,-1.804,-1.804,-1.804,-1.804,-1.804,-1.804,-1.804,-1.804,-1.804,-1.804,-1.804,-1.804,-1.804,-1.804,-1.804,-1.804,-1.804,-1.804,-1.804,-1.8434,-1.8683,-1.8683,-1.9949,-2.0917,-2.1313,-2.1433,-2.1568,-2.1807,-2.1807,-2.1807,-2.1807,-2.1807,-2.1949,-2.2402,-2.2553,-2.2927,-2.3593,-2.3751,-2.3897,-2.42,-2.42,-2.4611,-0.7426,-0.76,-0.7672,-0.7967,-0.8038,-0.7942,0.0,0.0,-0.7138,-0.6845,-0.6539,-0.6437,-0.6437,-0.6437,-0.6537,-0.6742,-0.6845,-0.6845,-0.6845,0.0,0.0,0.0,0.0,0.0,0.0,0.0,0.0,0.0,0.0,0.0,0.0,0.0,-1.4298,-1.4298,-1.4298,-1.4298,-1.4298,-1.4298,-1.4298,-1.4298,-1.4298,-1.4159,-1.3912,-1.3906,-1.4308,0.0,0.0,0.0,0.0,-1.7786,-1.804,-1.804,-1.804,-1.804,-1.804,-1.804,-1.804,-1.804,-1.804,-1.804,-1.804,-1.804,-1.804,-1.804,-1.804,-1.804,-1.804,-1.804,-1.804,-1.804,-1.804,-1.804,-1.804,-1.804,-1.804,-1.804,-1.804,-1.804,-1.804,-1.804,-1.804,-1.804,-1.804,-1.804,-1.804,-1.804,-1.804,-1.804,-1.804,-1.804,-1.8031,-1.8031,-1.8603,-1.9548,-2.0789,-2.0944,-2.1175,-2.1731,-2.1807,-2.1807,-2.1807,-2.1807,-2.1949,-2.2402,-2.2777,-2.3224,-2.3593,-2.397,-2.42,-2.42,-2.42,-2.4826,-0.7119,-0.7352,-0.7512,-0.7811,-0.769,-0.7521,-0.7319,0.0,-0.6842,-0.6539,-0.6437,-0.6437,-0.6437,-0.6437,-0.6437,-0.6539,-0.6539,-0.6639,0.0,0.0,0.0,0.0,0.0,0.0,0.0,0.0,0.0,0.0,0.0,0.0,0.0,0.0,-1.3511,-1.4298,-1.4298,-1.4298,-1.4298,-1.4298,-1.4208,-1.4032,-1.4032,-1.3894,-1.3634,-1.3453,0.0,0.0,0.0,0.0,0.0,-1.7082,-1.7448,-1.804,-1.804,-1.804,-1.804,-1.804,-1.804,-1.804,-1.804,-1.804,-1.804,-1.804,-1.804,-1.804,-1.804,-1.804,-1.804,-1.804,-1.804,-1.804,-1.804,-1.804,-1.804,-1.804,-1.804,-1.804,-1.804,-1.804,-1.804,-1.804,-1.804,-1.804,-1.804,-1.804,-1.804,-1.804,-1.804,-1.804,-1.804,-1.804,-1.804,-1.804,-1.8201,-1.8674,-1.9548,-2.0401,-2.1021,-2.1175,-2.1568,-2.1959,-2.2176,-2.1959,-2.2252,-2.3224,-2.3075,-2.3298,-2.397,-2.4116,-2.42,-2.42,-2.42,-2.4611,-0.6788,-0.7047,-0.7233,-0.7462,-0.7466,0.0,0.0,-0.6942,-0.6742,-0.6437,-0.6437,-0.6437,-0.6437,-0.6437,-0.6437,-0.6437,-0.6437,-0.6639,0.0,0.0,0.0,0.0,0.0,0.0,0.0,0.0,0.0,0.0,0.0,0.0,0.0,0.0,-1.2978,-1.357,-1.4046,-1.425,-1.4153,-1.4153,-1.4014,-1.3761,-1.3761,-1.3622,-1.3363,-1.32,0.0,0.0,0.0,0.0,0.0,-1.6041,-1.6706,-1.7538,-1.7538,-1.77,-1.804,-1.804,-1.804,-1.804,-1.804,-1.804,-1.804,-1.804,-1.804,-1.804,-1.804,-1.804,-1.804,-1.804,-1.804,-1.804,-1.804,-1.804,-1.804,-1.804,-1.804,-1.804,-1.804,-1.804,-1.804,-1.804,-1.804,-1.804,-1.804,-1.804,-1.804,-1.804,-1.804,-1.804,-1.804,-1.804,-1.804,-1.804,-1.804,-1.8201,-1.8603,-1.9618,-2.0401,-2.0867,-2.1252,-2.1721,-2.2402,-2.2176,-2.2553,-2.3593,-2.3372,-2.3519,-2.42,-2.42,-2.42,-2.42,-2.42,-2.4467,0.0,-0.6728,-0.6856,0.0,0.0,0.0,0.0,-0.6745,0.0,-0.6437,-0.6437,-0.6437,-0.6437,-0.6437,-0.6437,-0.6437,-0.6639,0.0,0.0,0.0,0.0,0.0,0.0,0.0,0.0,0.0,0.0,0.0,0.0,0.0,0.0,0.0,0.0,-1.2267,-1.3535,-1.4123,-1.3882,-1.3876,-1.3749,-1.3483,-1.3483,-1.335,-1.3097,-1.3097,0.0,0.0,0.0,0.0,0.0,-1.497,-1.5801,-1.6617,-1.6698,-1.7196,-1.7951,-1.7959,-1.804,-1.804,-1.804,-1.804,-1.804,-1.804,-1.804,-1.804,-1.804,-1.804,-1.804,-1.804,-1.804,-1.804,-1.804,-1.804,-1.804,-1.804,-1.804,-1.804,-1.804,-1.804,-1.804,-1.804,-1.804,-1.804,-1.804,-1.804,-1.804,-1.804,-1.804,-1.804,-1.804,-1.804,-1.804,-1.804,-1.804,-1.804,-1.804,-1.8674,-1.9548,-2.0779,-2.0944,-2.1405,-2.2402,-2.2402,-2.2777,-2.3604,-2.3666,-2.3824,-2.42,-2.42,-2.42,-2.42,-2.42,-2.4467,-0.6079,0.0,-0.6716,-0.6853,-0.6795,-0.6721,0.0,0.0,0.0,0.0,0.0,-0.6437,-0.6437,-0.6437,-0.6437,-0.6437,-0.6639,0.0,0.0,0.0,0.0,0.0,0.0,0.0,0.0,0.0,0.0,0.0,0.0,0.0,0.0,0.0,0.0,-1.2108,-1.3193,-1.367,-1.3604,-1.3793,-1.3664,-1.3218,-1.3383,-1.333,-1.3065,-1.3065,0.0,0.0,0.0,0.0,-1.4041,-1.421,-1.4887,-1.5801,-1.6453,-1.6862,-1.7115,-1.7781,-1.804,-1.804,-1.804,-1.804,-1.804,-1.804,-1.804,-1.804,-1.804,-1.804,-1.804,-1.804,-1.804,-1.804,-1.804,-1.804,-1.804,-1.804,-1.804,-1.804,-1.804,-1.804,-1.804,-1.804,-1.804,-1.804,-1.804,-1.804,-1.804,-1.804,-1.804,-1.804,-1.804,-1.804,-1.804,-1.804,-1.804,-1.8201,-1.8763,-1.9292,-1.9835,-2.0138,-2.1011,-2.1949,-2.2852,-2.2553,-2.2927,-2.4043,-2.4043,-2.4116,-2.42,-2.42,-2.42,-2.42,-2.42,-2.4261,-0.5988,-0.6213,-0.6464,-0.6533,-0.6546,-0.6555,-0.6625,-0.6537,0.0,0.0,0.0,-0.6437,-0.6539,-0.6539,-0.6639,-0.6736,-0.7042,0.0,0.0,0.0,0.0,0.0,0.0,0.0,0.0,0.0,0.0,0.0,0.0,0.0,0.0,0.0,0.0,0.0,-1.2322,-1.3052,-1.3505,-1.3594,-1.3554,-1.3281,-1.3275,-1.328,-1.3228,-1.3143,0.0,0.0,0.0,0.0,-1.3548,-1.3464,-1.3964,-1.4887,-1.5711,-1.637,-1.678,-1.77,-1.804,-1.804,-1.804,-1.804,-1.804,-1.804,-1.804,-1.804,-1.804,-1.804,-1.804,-1.804,-1.804,-1.804,-1.804,-1.804,-1.804,-1.804,-1.804,-1.804,-1.804,-1.804,-1.804,-1.804,-1.804,-1.804,-1.804,-1.804,-1.804,-1.804,-1.804,-1.804,-1.804,-1.804,-1.804,-1.804,-1.804,-1.8121,-1.8514,-1.9362,-2.006,-2.0304,-2.1165,-2.209,-2.2927,-2.3001,-2.3372,-2.4189,-2.4043,-2.4043,-2.42,-2.42,-2.42,-2.42,-2.42,-2.4334,-0.6582,-0.6678,-0.6677,-0.6371,-0.6352,-0.6437,-0.6437,-0.6437,-0.6437,0.0,0.0,0.0,-0.6939,-0.6942,0.0,0.0,0.0,0.0,0.0,0.0,0.0,0.0,0.0,0.0,0.0,0.0,0.0,0.0,0.0,0.0,0.0,0.0,0.0,0.0,-1.1352,-1.2417,-1.3305,-1.348,-1.3454,-1.3398,-1.3228,-1.3307,-1.3483,-1.3307,0.0,0.0,0.0,0.0,-1.3058,-1.279,-1.3124,-1.3873,-1.4803,-1.5636,-1.6445,-1.7448,-1.7789,-1.7789,-1.7951,-1.804,-1.804,-1.804,-1.804,-1.804,-1.804,-1.804,-1.804,-1.804,-1.804,-1.804,-1.804,-1.804,-1.804,-1.804,-1.804,-1.804,-1.804,-1.804,-1.804,-1.804,-1.804,-1.804,-1.804,-1.804,-1.804,-1.804,-1.804,-1.804,-1.804,-1.804,-1.804,-1.804,-1.804,-1.804,-1.8121,-1.9125,-2.007,-2.0867,-2.1318,-2.2004,-2.2927,-2.3446,-2.3824,-2.4189,-2.3824,-2.3824,-2.42,-2.4116,-2.4116,-2.42,-2.42,-2.4467,-0.8913,-0.9038,-0.8652,-0.6778,-0.6352,-0.6437,-0.6437,-0.6437,-0.6437,0.0,0.0,0.0,0.0,-0.7434,0.0,0.0,0.0,0.0,0.0,0.0,0.0,0.0,0.0,0.0,0.0,0.0,0.0,0.0,0.0,0.0,0.0,0.0,0.0,0.0,0.0,-1.1813,-1.2593,-1.3284,-1.3606,-1.3398,-1.3561,-1.3652,-1.3652,-1.3652,-1.3652,0.0,0.0,-1.3228,-1.3058,-1.279,-1.279,-1.2954,-1.3873,-1.4294,-1.4622,-1.6281,-1.6862,-1.7033,-1.7708,-1.804,-1.804,-1.804,-1.804,-1.804,-1.804,-1.804,-1.804,-1.804,-1.804,-1.804,-1.804,-1.804,-1.804,-1.804,-1.804,-1.804,-1.804,-1.804,-1.804,-1.804,-1.804,-1.804,-1.804,-1.804,-1.804,-1.804,-1.804,-1.804,-1.804,-1.804,-1.804,-1.804,-1.804,-1.8201,-1.8843,-1.8993,-1.9618,-2.0867,-2.1415,-2.2101,-2.3001,-2.374,-2.4116,-2.42,-2.3824,-2.3824,-2.42,-2.3824,-2.3897,-2.42,-2.42,-2.4261,-0.9482,-0.9543,-0.9391,-0.8528,-0.8368,-0.8414,-0.8506,-0.8601,-0.8403,0.0,0.0,0.0,0.0,0.0,0.0,0.0,0.0,0.0,0.0,0.0,0.0,0.0,0.0,0.0,0.0,0.0,0.0,0.0,0.0,0.0,0.0,0.0,0.0,0.0,0.0,-1.1397,-1.2345,-1.3385,-1.3913,-1.3743,-1.3737,-1.3737,-1.3913,-1.3737,-1.3737,-1.3913,0.0,-1.3313,-1.3222,-1.2875,-1.2705,-1.279,-1.3626,-1.3957,-1.421,-1.6034,-1.6698,-1.678,-1.7708,-1.804,-1.804,-1.804,-1.804,-1.804,-1.804,-1.804,-1.804,-1.804,-1.804,-1.804,-1.804,-1.804,-1.804,-1.804,-1.804,-1.804,-1.804,-1.804,-1.804,-1.804,-1.804,-1.804,-1.804,-1.804,-1.804,-1.804,-1.804,-1.804,-1.804,-1.804,-1.804,-1.804,-1.804,-1.8121,-1.8434,-1.8754,-1.9618,-2.1165,-2.1787,-2.2402,-2.3001,-2.315,-2.3298,-2.353,-2.3372,-2.3446,-2.3897,-2.3897,-2.4043,-2.42,-2.42,-2.4334,-1.0219,-1.0232,-1.0338,-1.0676,-1.0391,-1.0092,-1.0373,-1.0369,-1.0173,0.0,0.0,0.0,0.0,0.0,0.0,0.0,0.0,0.0,0.0,0.0,0.0,0.0,0.0,0.0,0.0,0.0,0.0,0.0,0.0,0.0,0.0,0.0,0.0,0.0,-0.9666,-1.0697,-1.1729,-1.3039,-1.3828,-1.4088,-1.3913,-1.3913,-1.4088,-1.3913,-1.3913,-1.4088,-1.3652,-1.3483,-1.3398,-1.2966,-1.279,-1.279,-1.3457,-1.3795,-1.421,-1.5538,-1.6206,-1.6453,-1.7123,-1.7375,-1.7375,-1.7375,-1.7465,-1.7546,-1.7546,-1.7708,-1.7878,-1.7878,-1.7959,-1.804,-1.804,-1.804,-1.804,-1.804,-1.804,-1.804,-1.804,-1.804,-1.804,-1.804,-1.804,-1.804,-1.804,-1.804,-1.804,-1.804,-1.804,-1.804,-1.804,-1.804,-1.804,-1.804,-1.804,-1.804,-1.804,-1.8754,-1.9766,-2.1068,-2.1928,-2.2553,-2.2852,-2.2628,-2.2703,-2.3001,-2.2927,-2.3075,-2.3593,-2.3824,-2.4043,-2.42,-2.42,-2.4467,-1.2188,-1.2152,-1.23,-1.2796,-1.1473,-1.0092,-1.0373,-1.0369,0.0,-1.0271,0.0,0.0,0.0,0.0,0.0,0.0,0.0,0.0,0.0,0.0,0.0,0.0,0.0,0.0,0.0,0.0,0.0,0.0,0.0,0.0,0.0,0.0,0.0,0.0,0.0,-0.9327,-1.0028,-1.1671,-1.3052,-1.4088,-1.4088,-1.4088,-1.4088,-1.4088,-1.4088,-1.4088,-1.3828,-1.3561,-1.3398,-1.3137,-1.2875,-1.2705,-1.279,-1.3288,-1.4041,-1.4126,-1.4713,-1.5477,-1.556,-1.556,-1.556,-1.556,-1.5884,-1.6221,-1.6221,-1.6804,-1.7473,-1.7473,-1.7716,-1.804,-1.804,-1.804,-1.804,-1.804,-1.804,-1.804,-1.804,-1.804,-1.804,-1.804,-1.804,-1.804,-1.804,-1.804,-1.804,-1.804,-1.804,-1.804,-1.804,-1.804,-1.804,-1.804,-1.804,-1.804,-1.804,-1.9125,-1.9904,-1.9982,-2.1548,-2.2402,-2.2478,-2.2777,-2.3001,-2.3001,-2.2628,-2.2852,-2.3593,-2.3224,-2.3446,-2.42,-2.42,-2.4467,-1.2346,-1.2461,-1.2668,-1.3042,-1.2603,0.0,0.0,-1.2316,-1.2215,-1.1642,-1.1437,0.0,0.0,0.0,0.0,0.0,0.0,0.0,0.0,0.0,0.0,0.0,0.0,0.0,0.0,0.0,0.0,0.0,0.0,0.0,0.0,0.0,0.0,0.0,0.0,-0.9235,-0.9501,-1.0977,-1.218,-1.3027,-1.373,-1.4088,-1.4088,-1.4088,-1.4088,-1.4088,-1.3822,-1.3568,-1.3398,-1.3137,-1.2966,-1.2705,-1.2705,-1.2869,-1.3294,-1.3795,-1.421,-1.4636,-1.5228,-1.5394,-1.5394,-1.522,-1.5296,-1.5462,-1.5794,-1.6041,-1.646,-1.7221,-1.7473,-1.7716,-1.7959,-1.804,-1.804,-1.804,-1.804,-1.804,-1.804,-1.804,-1.804,-1.804,-1.804,-1.804,-1.804,-1.804,-1.804,-1.804,-1.804,-1.804,-1.804,-1.804,-1.804,-1.804,-1.804,-1.804,-1.804,-1.8825,-1.9529,-1.9904,-2.1242,-2.2035,-2.2035,-2.2176,-2.2252,-2.2252,-2.2628,-2.2927,-2.3224,-2.3604,-2.3897,-2.42,-2.42,-2.4334,-1.2276,-1.2479,-1.2677,-1.2939,0.0,0.0,-1.3211,-1.3408,-1.3409,-1.2851,-1.2238,0.0,0.0,0.0,0.0,0.0,0.0,0.0,0.0,0.0,0.0,0.0,0.0,0.0,0.0,0.0,0.0,0.0,0.0,0.0,0.0,0.0,0.0,0.0,0.0,0.0,-0.889,-1.0106,-1.1139,-1.1992,-1.3124,-1.3828,-1.4088,-1.4088,-1.4088,-1.4088,-1.3913,-1.3737,-1.3476,-1.3307,-1.2966,-1.2705,-1.2705,-1.2705,-1.279,-1.3372,-1.3626,-1.3711,-1.43,-1.4552,-1.4552,-1.4552,-1.4629,-1.4796,-1.5213,-1.5711,-1.6214,-1.6976,-1.7392,-1.7635,-1.7959,-1.804,-1.804,-1.804,-1.804,-1.804,-1.804,-1.804,-1.804,-1.804,-1.804,-1.804,-1.804,-1.804,-1.804,-1.804,-1.804,-1.804,-1.804,-1.804,-1.804,-1.804,-1.804,-1.804,-1.804,-1.8594,-1.9222,-1.9825,-2.0934,-2.1568,-2.1807,-2.1807,-2.1807,-2.1807,-2.2327,-2.2777,-2.3001,-2.3519,-2.397,-2.42,-2.42,-2.4261,-1.1987,-1.2231,-1.2466,-1.2615,0.0,0.0,-1.2727,-1.3338,-1.3821,-1.3562,0.0,-1.1941,0.0,0.0,0.0,0.0,0.0,0.0,0.0,0.0,0.0,0.0,0.0,0.0,0.0,0.0,0.0,0.0,0.0,0.0,0.0,0.0,0.0,0.0,0.0,0.0,-0.8201,-0.9148,-1.0193,-1.1327,-1.2272,-1.3222,-1.4088,-1.4088,-1.4088,-1.4088,-1.4088,-1.3913,-1.3652,-1.3476,-1.3137,-1.2705,-1.2705,-1.2705,-1.2705,-1.2705,-1.2705,-1.2705,-1.2705,-1.2705,-1.279,-1.3222,-1.3724,-1.4139,-1.4566,-1.5567,-1.6648,-1.6656,-1.7302,-1.7951,-1.7951,-1.7951,-1.7959,-1.7951,-1.7951,-1.7959,-1.7951,-1.7951,-1.804,-1.804,-1.804,-1.804,-1.804,-1.804,-1.804,-1.804,-1.804,-1.804,-1.804,-1.804,-1.804,-1.804,-1.804,-1.804,-1.804,-1.8603,-1.9222,-1.9904,-2.0537,-2.1175,-2.1807,-2.1807,-2.1807,-2.1807,-2.1807,-2.2176,-2.3001,-2.3001,-2.3446,-2.42,-2.42,-2.4467,-1.1956,-1.2313,0.0,-1.2661,0.0,0.0,0.0,-1.2921,0.0,0.0,0.0,0.0,0.0,0.0,0.0,0.0,0.0,0.0,0.0,0.0,0.0,0.0,0.0,0.0,0.0,0.0,0.0,0.0,0.0,0.0,0.0,0.0,0.0,0.0,0.0,0.0,-0.768,-0.8978,-1.0014,-1.0788,-1.2095,-1.3222,-1.4088,-1.4088,-1.4088,-1.4088,-1.4088,-1.3913,-1.3652,-1.3307,-1.2966,-1.2705,-1.2705,-1.2705,-1.2705,-1.2705,-1.2619,-1.2448,-1.2448,-1.2448,-1.2454,-1.2289,-1.2375,-1.2796,-1.3561,-1.3717,-1.3964,-1.522,-1.5379,-1.5289,-1.5621,-1.6034,-1.6617,-1.7383,-1.731,-1.7139,-1.7473,-1.7554,-1.7635,-1.7959,-1.804,-1.804,-1.804,-1.804,-1.804,-1.804,-1.804,-1.804,-1.804,-1.804,-1.804,-1.804,-1.804,-1.8193,-1.8683,-1.8922,-1.9469,-2.0547,-2.0779,-2.1175,-2.1807,-2.1807,-2.1807,-2.1807,-2.2101,-2.2478,-2.3001,-2.3298,-2.3677,-2.42,-2.42,-2.4261,-1.2123,-1.2454,0.0,-1.2705,-1.2831,-1.2916,-1.2741,0.0,0.0,0.0,0.0,0.0,0.0,0.0,0.0,0.0,0.0,0.0,0.0,0.0,0.0,0.0,0.0,0.0,0.0,0.0,0.0,0.0,0.0,0.0,0.0,0.0,0.0,0.0,0.0,0.0,-0.7507,-0.8372,-0.9405,-1.0783,-1.1655,-1.2784,-1.4088,-1.4088,-1.4088,-1.4088,-1.4088,-1.3913,-1.3652,-1.3313,-1.3052,-1.2875,-1.2705,-1.2705,-1.2705,-1.2705,-1.2619,-1.2534,-1.2534,-1.2534,-1.2448,-1.2289,-1.2289,-1.2546,-1.3228,-1.3215,-1.3288,-1.4378,-1.4461,-1.4371,-1.4622,-1.4873,-1.5289,-1.646,-1.6722,-1.6812,-1.731,-1.7392,-1.7554,-1.7959,-1.804,-1.804,-1.804,-1.804,-1.804,-1.804,-1.804,-1.804,-1.804,-1.804,-1.804,-1.804,-1.804,-1.8201,-1.8603,-1.8603,-1.9143,-2.0391,-2.0459,-2.0857,-2.1731,-2.1807,-2.1807,-2.1807,-2.2025,-2.2478,-2.3001,-2.3224,-2.3677,-2.42,-2.4394,-2.4539,-1.2283,-1.2534,-1.2705,-1.2705,-1.2705,0.0,-1.2705,-1.2705,-1.2705,0.0,0.0,0.0,0.0,0.0,0.0,0.0,0.0,0.0,0.0,0.0,0.0,0.0,0.0,0.0,0.0,0.0,0.0,0.0,0.0,0.0,0.0,0.0,0.0,0.0,0.0,0.0,-0.7503,-0.7591,-0.8719,0.0,-1.0956,-1.2083,-1.4004,-1.4088,-1.4088,-1.4088,-1.4088,-1.3913,-1.3652,-1.3476,-1.3307,-1.3052,-1.279,-1.2705,-1.2705,-1.2705,-1.2705,-1.2705,-1.2705,-1.2619,-1.2619,-1.279,-1.2875,-1.296,-1.3222,-1.3555,-1.3795,-1.3873,-1.4119,-1.4371,-1.4371,-1.4126,-1.4126,-1.5206,-1.5966,-1.6566,-1.7139,-1.7221,-1.7383,-1.7878,-1.804,-1.804,-1.804,-1.804,-1.804,-1.804,-1.804,-1.804,-1.804,-1.804,-1.804,-1.804,-1.804,-1.804,-1.8121,-1.8112,-1.8665,-1.9904,-1.9982,-2.0537,-2.1731,-2.1807,-2.1807,-2.1807,-2.1807,-2.2176,-2.2927,-2.3001,-2.3372,-2.4127,-2.4671,-2.4945,-1.2037,-1.2369,0.0,0.0,-1.2705,-1.2705,-1.2705,-1.2705,0.0,0.0,0.0,0.0,0.0,0.0,0.0,0.0,0.0,0.0,0.0,0.0,0.0,0.0,0.0,0.0,0.0,0.0,0.0,0.0,0.0,0.0,0.0,0.0,0.0,0.0,0.0,-0.7139,-0.7143,-0.8277,-0.9061,0.0,-1.0712,-1.1837,-1.3052,-1.3743,-1.4088,-1.4088,-1.4088,-1.3913,-1.3652,-1.3476,-1.3307,-1.3052,-1.279,-1.2705,-1.2705,-1.2705,-1.2619,-1.2448,-1.2448,-1.2369,-1.2123,-1.2037,-1.1952,-1.2037,-1.2454,-1.2283,-1.2026,-1.2613,-1.2363,-1.202,-1.202,-1.2363,-1.2954,-1.3724,-1.3977,-1.4475,-1.5786,-1.6041,-1.6453,-1.7789,-1.804,-1.804,-1.804,-1.804,-1.804,-1.804,-1.804,-1.804,-1.804,-1.804,-1.804,-1.804,-1.804,-1.8193,-1.8763,-1.8763,-1.9301,-2.0624,-2.0702,-2.1011,-2.1807,-2.1807,-2.1807,-2.1807,-2.1807,-2.2025,-2.2553,-2.2852,-2.3224,-2.3751,-2.4177,-2.4406,-1.2118,0.0,0.0,-1.2705,0.0,-1.2705,-1.2705,-1.2705,0.0,0.0,0.0,0.0,0.0,0.0,0.0,0.0,0.0,0.0,0.0,0.0,0.0,0.0,0.0,0.0,0.0,0.0,0.0,0.0,0.0,0.0,0.0,0.0,0.0,0.0,-0.7139,-0.7139,-0.7139,-0.7837,-0.8536,-0.9235,-0.9927,-1.1144,-1.2705,-1.3652,-1.4088,-1.4088,-1.4088,-1.3997,-1.3913,-1.3568,-1.3313,-1.3222,-1.2875,-1.2705,-1.2705,-1.2705,-1.2619,-1.2534,-1.2534,-1.2369,-1.2118,-1.1957,-1.1785,-1.1699,-1.186,-1.1602,-1.1348,-1.1774,-1.1602,-1.1262,-1.1262,-1.1607,-1.1946,-1.2289,-1.3137,-1.423,-1.556,-1.5891,-1.6221,-1.7221,-1.7383,-1.7383,-1.7383,-1.7554,-1.7716,-1.7716,-1.7878,-1.7951,-1.7716,-1.7716,-1.7716,-1.7716,-1.7716,-1.7951,-1.8523,-1.8843,-1.9381,-2.0382,-2.0702,-2.1175,-2.1807,-2.1807,-2.1807,-2.1807,-2.1807,-2.2035,-2.2402,-2.2777,-2.3075,-2.3372,-2.4394,-2.4754,-1.2198,0.0,-1.2448,-1.2619,-1.2705,0.0,-1.2705,0.0,0.0,0.0,0.0,0.0,0.0,0.0,0.0,0.0,0.0,0.0,0.0,0.0,0.0,0.0,0.0,0.0,0.0,0.0,0.0,0.0,0.0,0.0,0.0,0.0,-0.7316,-0.7316,-0.7228,-0.7139,-0.7139,-0.7143,-0.7753,-0.889,-0.9148,-1.0274,-1.2272,-1.3392,-1.3913,-1.4088,-1.4088,-1.4088,-1.4088,-1.3568,-1.3398,-1.3307,-1.2875,-1.2705,-1.2705,-1.2705,-1.2705,-1.2705,-1.2705,-1.2534,-1.2283,-1.2037,-1.1871,-1.1613,-1.1348,-1.1262,-1.1262,-1.1262,-1.1262,-1.1262,-1.1262,-1.1262,-1.1348,-1.1435,-1.279,-1.4391,-1.5492,-1.5748,-1.5914,-1.6566,-1.673,-1.6738,-1.6812,-1.7066,-1.731,-1.731,-1.7554,-1.7635,-1.731,-1.731,-1.7392,-1.7392,-1.7473,-1.7635,-1.7951,-1.8523,-1.9143,-1.9825,-2.0382,-2.1021,-2.1807,-2.1807,-2.1807,-2.1807,-2.1807,-2.1949,-2.2327,-2.2703,-2.2927,-2.2927,-2.4599,-2.517,-1.1785,0.0,-1.2448,0.0,-1.2705,-1.2705,0.0,0.0,0.0,0.0,0.0,0.0,0.0,0.0,0.0,0.0,0.0,0.0,0.0,0.0,0.0,0.0,0.0,0.0,0.0,0.0,0.0,0.0,0.0,0.0,0.0,-0.9235,-0.8281,-0.8281,-0.7492,-0.7139,-0.7139,-0.7323,-0.7503,-0.7768,-0.8978,-0.9758,-1.0289,-1.21,-1.3307,-1.4088,-1.4088,-1.4088,-1.4088,-1.3568,-1.3398,-1.3307,-1.2875,-1.2705,-1.2705,-1.2705,-1.2705,-1.2705,-1.2705,-1.2454,-1.2043,-1.2037,-1.1693,-1.1354,-1.1354,-1.1262,-1.1262,-1.1262,-1.1262,-1.1262,-1.1262,-1.1262,-1.1435,-1.2112,-1.2448,-1.2954,-1.4048,-1.43,-1.472,-1.6402,-1.673,-1.6812,-1.7229,-1.6984,-1.6812,-1.6812,-1.682,-1.6812,-1.682,-1.7147,-1.7392,-1.7392,-1.7716,-1.7959,-1.804,-1.8121,-1.8665,-1.9825,-1.9982,-2.0537,-2.1731,-2.1807,-2.1807,-2.1807,-2.1807,-2.1807,-2.1883,-2.2252,-2.2478,-2.2478,-2.3813,-2.4334,-1.1699,-1.1952,-1.2203,0.0,-1.2289,-1.2289,0.0,0.0,0.0,0.0,0.0,0.0,0.0,0.0,0.0,0.0,0.0,0.0,0.0,0.0,0.0,0.0,0.0,0.0,0.0,0.0,0.0,0.0,0.0,0.0,-1.1327,-1.0014,-0.9061,-0.8544,-0.8105,-0.7669,-0.7139,-0.7231,-0.7323,-0.7507,-0.8372,-0.9152,-0.9763,-1.1235,-1.2448,-1.3313,-1.3828,-1.3997,-1.3822,-1.3568,-1.3307,-1.3228,-1.2875,-1.2705,-1.2705,-1.2705,-1.2705,-1.2705,-1.2534,-1.2283,-1.1957,-1.1871,-1.1613,-1.1262,-1.1262,-1.1262,-1.1262,-1.1262,-1.1262,-1.1262,-1.1262,-1.1262,-1.1348,-1.1688,-1.1768,-1.2026,-1.2869,-1.3379,-1.3971,-1.5144,-1.5394,-1.5567,-1.6162,-1.5989,-1.5899,-1.6327,-1.6574,-1.6656,-1.6409,-1.6738,-1.6984,-1.6984,-1.7392,-1.7797,-1.7959,-1.8362,-1.8904,-1.9816,-2.0216,-2.0857,-2.1731,-2.1807,-2.1807,-2.1807,-2.1807,-2.1807,-2.1807,-2.2176,-2.2252,-2.2101,-2.3717,-2.4371,0.0,0.0,-1.1957,-1.1957,-1.2043,-1.2043,0.0,0.0,0.0,0.0,0.0,0.0,0.0,0.0,0.0,0.0,0.0,0.0,0.0,0.0,0.0,0.0,0.0,0.0,0.0,0.0,0.0,0.0,0.0,0.0,-1.1671,-1.0799,-0.9927,-0.924,-0.8715,-0.8193,-0.7489,-0.7228,-0.7231,-0.7507,-0.7852,-0.846,-0.924,-1.0279,-1.1144,-1.1923,-1.3392,-1.3913,-1.3652,-1.3476,-1.3307,-1.3052,-1.279,-1.2705,-1.2705,-1.2705,-1.2705,-1.2705,-1.2448,-1.2203,-1.1957,-1.1785,-1.1527,-1.1262,-1.1262,-1.1262,-1.1262,-1.1262,-1.1262,-1.1262,-1.1262,-1.1262,-1.1262,-1.1262,-1.1262,-1.1521,-1.2283,-1.2966,-1.3561,-1.4139,-1.423,-1.4405,-1.5166,-1.5068,-1.5151,-1.5839,-1.617,-1.6245,-1.5922,-1.6409,-1.673,-1.673,-1.7221,-1.7635,-1.7951,-1.8594,-1.9222,-1.9825,-2.0547,-2.1175,-2.1807,-2.1807,-2.1807,-2.1807,-2.1807,-2.1807,-2.1807,-2.2101,-2.2101,-2.1807,-2.3694,-2.4409,0.0,-1.1699,0.0,-1.1957,0.0,0.0,0.0,0.0,0.0,0.0,0.0,0.0,0.0,0.0,0.0,0.0,0.0,0.0,0.0,0.0,0.0,0.0,0.0,0.0,0.0,0.0,0.0,0.0,0.0,0.0,-1.2619,-1.1752,-1.1235,-1.1154,-0.9414,-0.8456,-0.8456,-0.7577,-0.7231,-0.7507,-0.7507,-0.768,-0.8028,-0.889,-0.9323,-0.9579,-1.2693,-1.3913,-1.3652,-1.3476,-1.3307,-1.3052,-1.279,-1.2705,-1.2705,-1.2705,-1.2705,-1.2705,-1.2448,-1.2203,-1.1957,-1.1785,-1.1527,-1.1262,-1.1262,-1.1262,-1.1262,-1.1262,-1.1262,-1.1262,-1.1262,-1.1262,-1.1262,-1.1262,-1.1262,-1.1521,-1.2283,-1.2966,-1.3561,-1.3964,-1.3724,-1.3808,-1.4894,-1.4727,-1.465,-1.534,-1.5431,-1.5431,-1.5431,-1.6162,-1.673,-1.673,-1.7465,-1.7959,-1.804,-1.8594,-1.9222,-1.9825,-2.0547,-2.1175,-2.1807,-2.1807,-2.1807,-2.1807,-2.1807,-2.1807,-2.1807,-2.1807,-2.1807,-2.1807,-2.339,-2.4192,0.0,0.0,0.0,-1.1521,0.0,0.0,0.0,0.0,0.0,0.0,0.0,0.0,0.0,0.0,0.0,0.0,0.0,0.0,0.0,0.0,0.0,0.0,0.0,0.0,0.0,0.0,0.0,0.0,0.0,0.0,-1.2705,-1.2357,-1.1929,-1.1322,-1.0101,-0.8798,-0.7577,-0.7228,-0.7143,-0.7234,-0.7415,-0.7507,-0.768,-0.8715,-0.9231,-0.9323,-1.1746,-1.2619,-1.2448,-1.2966,-1.3052,-1.279,-1.2705,-1.2705,-1.2705,-1.2705,-1.2705,-1.2705,-1.2448,-1.2203,-1.1957,-1.1785,-1.1527,-1.1262,-1.1262,-1.1262,-1.1262,-1.1262,-1.1262,-1.1262,-1.1262,-1.1262,-1.1262,-1.1262,-1.1262,-1.1348,-1.1602,-1.2283,-1.279,-1.2954,-1.3215,-1.3646,-1.4475,-1.4475,-1.465,-1.5257,-1.5431,-1.5431,-1.5431,-1.5922,-1.6409,-1.6648,-1.7229,-1.7716,-1.7959,-1.8201,-1.8594,-1.9301,-1.9913,-2.0537,-2.1175,-2.1568,-2.1807,-2.1807,-2.1807,-2.1807,-2.1807,-2.1807,-2.1807,-2.1807,-2.2905,-2.3423,-1.1262,0.0,0.0,0.0,0.0,0.0,0.0,0.0,0.0,0.0,0.0,0.0,0.0,0.0,0.0,0.0,0.0,0.0,0.0,0.0,0.0,0.0,0.0,0.0,0.0,0.0,0.0,0.0,0.0,0.0,-1.2705,-1.2705,-1.2095,-1.0885,-1.0274,-0.8969,-0.7139,-0.7139,-0.7139,-0.7139,-0.7323,-0.7326,-0.7411,-0.8193,-0.8536,-0.8623,-1.0188,-1.1149,-1.1757,-1.2711,-1.2966,-1.2705,-1.2705,-1.2705,-1.2705,-1.2705,-1.2705,-1.2619,-1.2369,-1.2123,-1.1957,-1.1699,-1.144,-1.1262,-1.1262,-1.1262,-1.1262,-1.1262,-1.1262,-1.1262,-1.1262,-1.1262,-1.1262,-1.1262,-1.1262,-1.1262,-1.1262,-1.1854,-1.2363,-1.2363,-1.2966,-1.3646,-1.4314,-1.4398,-1.465,-1.5257,-1.5431,-1.5431,-1.5431,-1.5839,-1.617,-1.6492,-1.6902,-1.731,-1.7546,-1.7789,-1.8264,-1.9063,-1.9668,-2.0372,-2.1175,-2.1568,-2.1807,-2.1807,-2.1807,-2.1807,-2.1807,-2.1807,-2.1807,-2.1807,-2.2905,-2.3644,0.0,0.0,0.0,0.0,0.0,0.0,0.0,0.0,0.0,0.0,0.0,0.0,0.0,0.0,0.0,0.0,0.0,0.0,0.0,0.0,0.0,0.0,0.0,0.0,0.0,0.0,0.0,0.0,0.0,-1.3626,-1.279,-1.2705,-1.1832,-1.0009,-0.9923,-0.9052,-0.7139,-0.7139,-0.7139,-0.7139,-0.7139,-0.7139,-0.7139,-0.7139,-0.7139,-0.7139,-0.8105,-0.9671,-1.1757,-1.2619,-1.2881,-1.2705,-1.2705,-1.2705,-1.2705,-1.2705,-1.2705,-1.2619,-1.2209,-1.2043,-1.1957,-1.1435,-1.1354,-1.1262,-1.1262,-1.1262,-1.1262,-1.1262,-1.1262,-1.1262,-1.1262,-1.1262,-1.1262,-1.1262,-1.1262,-1.1262,-1.1262,-1.1854,-1.2363,-1.2363,-1.2881,-1.3561,-1.423,-1.4398,-1.465,-1.5257,-1.5431,-1.5431,-1.5431,-1.5756,-1.6087,-1.6087,-1.6409,-1.6656,-1.673,-1.7294,-1.8167,-1.9186,-1.9885,-2.0682,-2.1731,-2.1807,-2.1807,-2.1807,-2.1807,-2.1807,-2.1807,-2.1807,-2.1807,-2.1807,-2.3401,-2.4921,-1.1262,0.0,0.0,0.0,0.0,0.0,0.0,0.0,0.0,0.0,0.0,0.0,0.0,0.0,0.0,0.0,0.0,0.0,0.0,0.0,0.0,0.0,0.0,0.0,0.0,0.0,0.0,0.0,-1.3957,-1.3626,-1.279,-1.2705,-1.2186,-1.0971,-1.0269,-0.9318,-0.8105,-0.7404,-0.7139,-0.7139,-0.7139,-0.7139,-0.7139,-0.7139,-0.7139,-0.7139,-0.8105,-0.9235,-1.0448,-1.1408,-1.2186,-1.2705,-1.2705,-1.2705,-1.2705,-1.2705,-1.2619,-1.2448,-1.2369,-1.2032,-1.1785,-1.1613,-1.144,-1.1262,-1.1262,-1.1262,-1.1262,-1.1262,-1.1262,-1.1262,-1.1262,-1.1262,-1.1262,-1.1262,-1.1262,-1.1262,-1.1262,-1.1854,-1.2283,-1.1688,-1.2198,-1.2875,-1.3561,-1.4062,-1.465,-1.5257,-1.5431,-1.5431,-1.5431,-1.5514,-1.5756,-1.6087,-1.617,-1.6409,-1.6656,-1.7139,-1.7781,-1.8567,-1.9432,-2.0294,-2.1098,-2.1568,-2.1807,-2.1807,-2.1807,-2.1807,-2.1807,-2.1807,-2.1807,-2.1807,-2.283,-2.4143,-1.1262,-1.1262,-1.1262,0.0,0.0,0.0,0.0,-1.1262,0.0,0.0,0.0,0.0,0.0,0.0,0.0,0.0,0.0,0.0,0.0,0.0,0.0,0.0,0.0,0.0,0.0,0.0,0.0,0.0,-1.4552,-1.4048,-1.279,-1.2705,-1.2272,-1.1322,-1.0361,-0.9492,-0.8544,-0.7577,-0.7139,-0.7139,-0.7139,-0.7139,-0.7139,-0.7139,-0.7139,-0.7139,-0.7665,-0.8711,-0.9923,-1.0448,-1.1488,-1.2705,-1.2705,-1.2705,-1.2705,-1.2619,-1.2534,-1.2363,-1.2203,-1.1952,-1.1699,-1.1613,-1.144,-1.1262,-1.1262,-1.1262,-1.1262,-1.1262,-1.1262,-1.1262,-1.1262,-1.1262,-1.1262,-1.1262,-1.1262,-1.1262,-1.1262,-1.1602,-1.194,-1.1768,-1.2369,-1.2966,-1.3307,-1.373,-1.4153,-1.4496,-1.4831,-1.4999,-1.4999,-1.5257,-1.5514,-1.5763,-1.5846,-1.5922,-1.6162,-1.6574,-1.7221,-1.8014,-1.8807,-1.9747,-2.0857,-2.1252,-2.1568,-2.1807,-2.1807,-2.1807,-2.1807,-2.1807,-2.209,-2.2745,-2.3559,-2.4587,-1.1348,-1.1262,-1.1262,0.0,0.0,0.0,-1.1262,-1.1262,0.0,0.0,0.0,0.0,0.0,0.0,0.0,0.0,0.0,0.0,0.0,0.0,0.0,0.0,0.0,0.0,0.0,0.0,-1.7294,-1.5643,-1.5394,-1.4468,-1.279,-1.2705,-1.2357,-1.1499,-1.0448,-0.9488,-0.8627,-0.7665,-0.7139,-0.7139,-0.7139,-0.7139,-0.7139,-0.7139,-0.7139,-0.7139,-0.7139,-0.8097,-0.9749,-0.9749,-1.088,-1.2705,-1.2705,-1.2705,-1.2619,-1.2448,-1.2363,-1.2283,-1.1866,-1.1699,-1.1613,-1.1354,-1.1262,-1.1262,-1.1262,-1.1262,-1.1262,-1.1262,-1.1262,-1.1262,-1.1262,-1.1262,-1.1262,-1.1262,-1.1262,-1.1262,-1.1262,-1.1262,-1.1521,-1.2112,-1.2796,-1.3222,-1.3307,-1.3307,-1.3313,-1.3476,-1.4062,-1.4398,-1.4482,-1.4999,-1.5431,-1.5431,-1.5431,-1.5431,-1.5431,-1.5846,-1.6574,-1.7691,-1.8175,-1.9204,-2.0944,-2.0944,-2.1262,-2.1807,-2.1807,-2.1807,-2.1807,-2.1807,-2.2596,-2.412,-2.4862,-2.5664,0.0,0.0,0.0,0.0,0.0,0.0,-1.1262,-1.1262,0.0,0.0,0.0,0.0,0.0,0.0,0.0,0.0,0.0,0.0,0.0,0.0,0.0,0.0,0.0,0.0,0.0,0.0,-1.7538,-1.6535,-1.513,-1.3795,-1.279,-1.2705,-1.2619,-1.2448,-1.0788,-0.9836,-0.9666,-0.7925,-0.7139,-0.7139,-0.7139,-0.7139,-0.7139,-0.7139,-0.7139,-0.7139,-0.7139,-0.7753,-0.8803,-0.8803,-1.0361,-1.2705,-1.2705,-1.2619,-1.2448,-1.2448,-1.2198,-1.1785,-1.1699,-1.1527,-1.1348,-1.1354,-1.1262,-1.1262,-1.1262,-1.1262,-1.1262,-1.1262,-1.1262,-1.1262,-1.1262,-1.1262,-1.1262,-1.1262,-1.1262,-1.1262,-1.1262,-1.1262,-1.1348,-1.1521,-1.1607,-1.186,-1.2448,-1.2619,-1.296,-1.4055,-1.4314,-1.4566,-1.5173,-1.534,-1.5431,-1.5431,-1.5431,-1.5431,-1.5431,-1.5846,-1.6796,-1.8292,-1.8709,-1.9668,-2.1568,-2.1502,-2.1502,-2.1807,-2.1807,-2.1731,-2.1578,-2.1731,-2.2596,-2.4108,-2.4264,-2.5134,0.0,0.0,0.0,-1.1262,0.0,0.0,0.0,-1.0824,0.0,0.0,0.0,0.0,0.0,0.0,0.0,0.0,0.0,0.0,0.0,0.0,0.0,0.0,0.0,0.0,0.0,0.0,-1.7619,-1.678,-1.5039,-1.3789,-1.3372,-1.2954,-1.2705,-1.2705,-1.1316,-1.0361,-0.9923,-0.8536,-0.7577,-0.7139,-0.7139,-0.7139,-0.7139,-0.7139,-0.7139,-0.7139,-0.7139,-0.7669,-0.8544,-0.8544,-0.9845,-1.2015,-1.2015,-1.2186,-1.2363,-1.2289,-1.1952,-1.1699,-1.1527,-1.144,-1.1262,-1.1262,-1.1262,-1.1262,-1.1262,-1.1262,-1.1262,-1.1262,-1.1262,-1.1262,-1.1262,-1.1262,-1.1262,-1.1262,-1.1262,-1.1262,-1.1262,-1.1262,-1.1262,-1.1262,-1.1262,-1.1435,-1.1774,-1.2198,-1.2619,-1.3294,-1.3971,-1.4482,-1.4824,-1.5173,-1.5431,-1.5431,-1.5431,-1.5431,-1.5431,-1.5846,-1.6484,-1.7269,-1.8078,-1.9036,-2.0382,-2.0712,-2.1118,-2.1655,-2.1655,-2.1655,-2.1655,-2.1731,-2.2596,-2.4108,-2.4492,-2.5358,0.0,0.0,0.0,0.0,0.0,-1.0727,0.0,0.0,0.0,0.0,0.0,0.0,0.0,0.0,0.0,0.0,0.0,0.0,0.0,0.0,0.0,0.0,0.0,0.0,0.0,0.0,-1.7619,-1.678,-1.5206,-1.421,-1.4041,-1.3209,-1.2705,-1.2705,-1.1757,-1.0885,-0.9923,-0.8973,-0.8017,-0.7139,-0.7139,-0.7139,-0.7139,-0.7139,-0.7139,-0.7139,-0.7139,-0.7492,-0.8193,-0.8193,-0.9323,-1.0977,-1.1149,-1.1671,-1.2283,-1.2037,-1.1785,-1.1613,-1.1354,-1.1262,-1.1262,-1.1262,-1.1262,-1.1262,-1.1262,-1.1262,-1.1262,-1.1262,-1.1262,-1.1262,-1.1262,-1.1262,-1.1262,-1.1262,-1.1262,-1.1262,-1.1262,-1.1262,-1.1262,-1.1262,-1.1262,-1.1262,-1.1262,-1.1774,-1.2283,-1.2534,-1.3555,-1.4314,-1.4566,-1.5082,-1.5431,-1.5431,-1.5431,-1.5431,-1.5431,-1.5756,-1.6087,-1.6237,-1.7196,-1.8078,-1.8877,-1.9766,-2.0644,-2.1436,-2.1512,-2.1721,-2.1949,-2.2025,-2.2745,-2.412,-2.4791,-2.5594,0.0,0.0,0.0,0.0,-1.0992,0.0,0.0,0.0,0.0,0.0,0.0,0.0,0.0,0.0,0.0,0.0,0.0,0.0,0.0,0.0,0.0,0.0,0.0,0.0,0.0,0.0,0.0,-1.678,-1.5801,-1.4887,-1.4041,-1.3209,-1.2705,-1.2705,-1.1757,-1.0885,-0.9923,-0.8973,-0.8017,-0.7139,-0.7139,-0.7139,-0.7139,-0.7139,-0.7139,-0.7139,-0.7139,-0.7139,-0.7228,-0.7228,-0.8273,-0.9845,-1.0717,-1.1424,-1.2043,-1.1785,-1.1613,-1.1354,-1.1354,-1.1262,-1.1262,-1.1262,-1.1262,-1.1262,-1.1262,-1.1262,-1.1262,-1.1262,-1.1262,-1.1262,-1.1262,-1.1262,-1.1262,-1.1262,-1.1262,-1.1262,-1.1262,-1.1262,-1.1262,-1.1262,-1.1262,-1.1262,-1.1262,-1.1348,-1.186,-1.3137,-1.3392,-1.3899,-1.509,-1.534,-1.5431,-1.5431,-1.5431,-1.5431,-1.5431,-1.5431,-1.5906,-1.6846,-1.6854,-1.7415,-1.8603,-1.964,-2.0537,-2.1205,-2.1578,-2.2014,-2.2585,-2.2767,-2.3276,-2.4108,-2.4192,-2.5063,0.0,0.0,0.0,0.0,0.0,0.0,-1.1413,0.0,-1.1225,0.0,0.0,0.0,0.0,0.0,0.0,0.0,0.0,0.0,0.0,0.0,0.0,0.0,0.0,0.0,0.0,0.0,0.0,0.0,0.0,-1.497,-1.4041,-1.3209,-1.2705,-1.2705,-1.2357,-1.1402,-0.9923,-0.9492,-0.8536,-0.7139,-0.7139,-0.7139,-0.7139,-0.7139,-0.7139,-0.7139,-0.7139,-0.7139,-0.7051,-0.6966,-0.7665,-0.8882,-0.9497,-1.0641,-1.1785,-1.1699,-1.1527,-1.1262,-1.1262,-1.1262,-1.1262,-1.1262,-1.1262,-1.1262,-1.1262,-1.1262,-1.1262,-1.1262,-1.1262,-1.1262,-1.1262,-1.1262,-1.1262,-1.1262,-1.1262,-1.1262,-1.1262,-1.1262,-1.1262,-1.1262,-1.1262,-1.1262,-1.1262,-1.1688,-1.2112,-1.2705,-1.3137,-1.373,-1.4741,-1.4824,-1.4999,-1.5347,-1.5431,-1.5431,-1.5431,-1.5431,-1.5582,-1.6057,-1.6944,-1.7908,-1.8957,-1.9913,-2.0712,-2.1205,-2.1282,-2.1578,-2.2166,-2.2596,-2.3254,-2.4108,-2.4564,-2.5441,-1.3815,0.0,0.0,0.0,0.0,0.0,0.0,0.0,0.0,0.0,0.0,0.0,0.0,0.0,0.0,-1.2857,0.0,0.0,0.0,0.0,0.0,0.0,0.0,0.0,0.0,0.0,0.0,0.0,-1.5311,0.0,-1.3957,-1.3124,-1.2705,-1.2705,-1.2705,-1.1923,-1.0269,-1.0009,-0.9056,-0.7492,-0.7228,-0.7139,-0.7139,-0.7139,-0.7139,-0.7139,-0.7054,-0.7054,-0.6966,-0.6792,-0.7224,-0.8009,-0.8364,-0.9593,-1.1262,-1.1527,-1.144,-1.1262,-1.1262,-1.1262,-1.1262,-1.1262,-1.1262,-1.1262,-1.1262,-1.1262,-1.1262,-1.1262,-1.1262,-1.1262,-1.1262,-1.1262,-1.1262,-1.1262,-1.1262,-1.1262,-1.1262,-1.1262,-1.1262,-1.117,-1.1176,-1.1262,-1.117,-1.1682,-1.2192,-1.2363,-1.2796,-1.3392,-1.4062,-1.4314,-1.4566,-1.5082,-1.5257,-1.5431,-1.5431,-1.5431,-1.5506,-1.5748,-1.6952,-1.8158,-1.9222,-1.9932,-2.0566,-2.1138,-2.1061,-2.1359,-2.2014,-2.2531,-2.3327,-2.4409,-2.5016,-2.5746,0.0,0.0,0.0,-1.2528,0.0,0.0,0.0,0.0,-1.1843,0.0,0.0,0.0,0.0,0.0,-1.3392,-1.3652,-1.4237,0.0,0.0,0.0,0.0,0.0,0.0,0.0,0.0,0.0,0.0,-1.5703,-1.5054,0.0,-1.3789,-1.3039,-1.2705,-1.2705,-1.2705,-1.2272,-1.1235,-1.0361,-0.9405,-0.8456,-0.7492,-0.7139,-0.7139,-0.7139,-0.7139,-0.7051,-0.6881,-0.6795,-0.6795,-0.652,-0.6871,-0.7489,-0.7577,-0.854,-1.0033,-1.0997,-1.1354,-1.1262,-1.1262,-1.1262,-1.1262,-1.1262,-1.1262,-1.1262,-1.1262,-1.1262,-1.1262,-1.1262,-1.1262,-1.1262,-1.1262,-1.1262,-1.1262,-1.1262,-1.1262,-1.1262,-1.1262,-1.1262,-1.1176,-1.0722,-1.0992,-1.117,-1.0727,-1.0997,-1.1607,-1.2277,-1.2448,-1.2705,-1.3307,-1.3977,-1.4398,-1.4398,-1.4999,-1.5431,-1.5431,-1.5431,-1.5748,-1.6617,-1.6698,-1.7513,-1.9222,-1.9529,-2.001,-2.0906,-2.1282,-2.1863,-2.266,-2.2905,-2.379,-2.5241,-2.5312,-2.5746,0.0,0.0,-1.458,-1.4055,0.0,0.0,0.0,0.0,0.0,0.0,0.0,0.0,0.0,0.0,-1.4146,-1.4321,-1.4398,-1.4657,0.0,0.0,0.0,0.0,0.0,0.0,0.0,0.0,0.0,-1.4622,-1.421,-1.3711,0.0,-1.2784,-1.2705,-1.2705,-1.2705,-1.2272,-1.1327,-1.0361,-0.9405,-0.8456,-0.7577,-0.7139,-0.7139,-0.7139,-0.7054,-0.6881,-0.6792,-0.6704,-0.652,-0.6257,-0.6697,-0.7577,-0.8017,-0.8894,-0.9946,-1.0294,-1.0738,-1.1262,-1.1262,-1.1262,-1.1262,-1.1262,-1.1262,-1.1262,-1.1262,-1.1262,-1.1262,-1.1262,-1.1262,-1.1262,-1.1262,-1.1262,-1.1262,-1.0906,-1.0819,-1.0727,-1.0472,-1.0477,-1.0472,-1.0549,-1.0727,-1.0906,-1.1084,-1.1176,-1.1348,-1.1602,-1.2112,-1.2619,-1.3307,-1.3977,-1.4566,-1.4999,-1.5257,-1.5431,-1.5431,-1.5431,-1.5506,-1.5824,-1.6378,-1.7188,-1.8407,-1.9054,-1.9932,-2.1061,-2.1138,-2.1425,-2.209,-2.3032,-2.3829,-2.4564,-2.5594,-2.6245,-1.5431,-1.5431,0.0,-1.4915,-1.4999,0.0,-1.4566,0.0,0.0,0.0,0.0,0.0,0.0,0.0,-1.4482,-1.4566,-1.4482,-1.4566,0.0,-1.5257,0.0,0.0,0.0,0.0,0.0,0.0,-1.4048,-1.3542,-1.3542,-1.3294,0.0,0.0,-1.2705,-1.2705,-1.2705,-1.2443,-1.1843,-1.0534,-0.9579,-0.8973,-0.7665,-0.7139,-0.7139,-0.7139,-0.6966,-0.6795,-0.6704,-0.6697,-0.6782,-0.6523,-0.7051,-0.7929,-0.8364,-0.9069,-0.9946,-1.0299,-1.0824,-1.1262,-1.1262,-1.1262,-1.1262,-1.1262,-1.1262,-1.1262,-1.1084,-1.1176,-1.1262,-1.0916,-1.0911,-1.0997,-1.0911,-1.0829,-1.0738,-1.0467,-1.0381,-1.0294,-1.0038,-1.012,-1.0207,-1.0381,-1.0641,-1.0906,-1.0997,-1.1176,-1.1262,-1.1262,-1.1688,-1.2198,-1.2631,-1.347,-1.4237,-1.4664,-1.509,-1.5431,-1.5431,-1.5431,-1.5673,-1.6319,-1.687,-1.7666,-1.8877,-1.945,-2.01,-2.0735,-2.0894,-2.1201,-2.1688,-2.2881,-2.3683,-2.4337,-2.5358,-2.6025]}]]